<?xml version="1.0" encoding="ISO-8859-1" standalone="yes"?>
<gpx
  xmlns="http://www.topografix.com/GPX/1/1"
  version="1.1" creator="LoadMyTracks/073 http://www.cluetrust.com/LoadMyTracks.html"
  xmlns:xsi="http://www.w3.org/2001/XMLSchema-instance"
  xmlns:gpxdata="http://www.cluetrust.com/XML/GPXDATA/1/0"
  xmlns:geocache="http://www.groundspeak.com/cache/1/0"
  xsi:schemaLocation="http://www.topografix.com/GPX/1/1 http://www.topografix.com/GPX/1/1/gpx.xsd
http://www.cluetrust.com/XML/GPXDATA/1/0 http://www.cluetrust.com/Schemas/gpxdata10.xsd">
<trk>
<name>2010/6/30 8:43:33 GMT</name>
<trkseg>
	<trkpt lat="51.96480167" lon="-1.740413333"><ele>251.000000</ele><time>2010-06-30T08:43:33Z</time></trkpt>
	<trkpt lat="51.96480333" lon="-1.740408333"><ele>251.000000</ele><time>2010-06-30T08:43:38Z</time></trkpt>
	<trkpt lat="51.96481333" lon="-1.740431667"><ele>250.000000</ele><time>2010-06-30T08:43:43Z</time></trkpt>
	<trkpt lat="51.96482667" lon="-1.740468333"><ele>248.000000</ele><time>2010-06-30T08:43:48Z</time></trkpt>
	<trkpt lat="51.96483833" lon="-1.740503333"><ele>246.000000</ele><time>2010-06-30T08:43:53Z</time></trkpt>
	<trkpt lat="51.965125" lon="-1.74134"><ele>197.000000</ele><time>2010-06-30T08:43:58Z</time></trkpt>
	<trkpt lat="51.96512" lon="-1.741405"><ele>189.000000</ele><time>2010-06-30T08:44:03Z</time></trkpt>
	<trkpt lat="51.96511667" lon="-1.74142"><ele>186.000000</ele><time>2010-06-30T08:44:08Z</time></trkpt>
	<trkpt lat="51.965115" lon="-1.74142"><ele>186.000000</ele><time>2010-06-30T08:44:13Z</time></trkpt>
	<trkpt lat="51.96511667" lon="-1.741418333"><ele>185.000000</ele><time>2010-06-30T08:44:18Z</time></trkpt>
	<trkpt lat="51.96511667" lon="-1.741416667"><ele>185.000000</ele><time>2010-06-30T08:44:23Z</time></trkpt>
	<trkpt lat="51.96511833" lon="-1.741416667"><ele>185.000000</ele><time>2010-06-30T08:44:28Z</time></trkpt>
	<trkpt lat="51.96512" lon="-1.741415"><ele>185.000000</ele><time>2010-06-30T08:44:33Z</time></trkpt>
	<trkpt lat="51.96512167" lon="-1.741415"><ele>185.000000</ele><time>2010-06-30T08:44:38Z</time></trkpt>
	<trkpt lat="51.96512333" lon="-1.741415"><ele>185.000000</ele><time>2010-06-30T08:44:43Z</time></trkpt>
	<trkpt lat="51.965125" lon="-1.741416667"><ele>185.000000</ele><time>2010-06-30T08:44:48Z</time></trkpt>
	<trkpt lat="51.96512833" lon="-1.741416667"><ele>186.000000</ele><time>2010-06-30T08:44:53Z</time></trkpt>
	<trkpt lat="51.96512833" lon="-1.741416667"><ele>186.000000</ele><time>2010-06-30T08:44:58Z</time></trkpt>
	<trkpt lat="51.96512833" lon="-1.741415"><ele>186.000000</ele><time>2010-06-30T08:45:03Z</time></trkpt>
	<trkpt lat="51.96512833" lon="-1.741415"><ele>186.000000</ele><time>2010-06-30T08:45:08Z</time></trkpt>
	<trkpt lat="51.96513" lon="-1.741415"><ele>186.000000</ele><time>2010-06-30T08:45:13Z</time></trkpt>
	<trkpt lat="51.96513" lon="-1.741416667"><ele>186.000000</ele><time>2010-06-30T08:45:18Z</time></trkpt>
	<trkpt lat="51.96513167" lon="-1.741418333"><ele>186.000000</ele><time>2010-06-30T08:45:23Z</time></trkpt>
	<trkpt lat="51.965125" lon="-1.741406667"><ele>186.000000</ele><time>2010-06-30T08:45:28Z</time></trkpt>
	<trkpt lat="51.965125" lon="-1.741396667"><ele>187.000000</ele><time>2010-06-30T08:45:33Z</time></trkpt>
	<trkpt lat="51.96512333" lon="-1.741386667"><ele>187.000000</ele><time>2010-06-30T08:45:38Z</time></trkpt>
	<trkpt lat="51.96512" lon="-1.74138"><ele>187.000000</ele><time>2010-06-30T08:45:43Z</time></trkpt>
	<trkpt lat="51.96511833" lon="-1.741373333"><ele>188.000000</ele><time>2010-06-30T08:45:48Z</time></trkpt>
	<trkpt lat="51.965115" lon="-1.741368333"><ele>188.000000</ele><time>2010-06-30T08:45:53Z</time></trkpt>
	<trkpt lat="51.96511" lon="-1.741363333"><ele>188.000000</ele><time>2010-06-30T08:45:58Z</time></trkpt>
	<trkpt lat="51.96510667" lon="-1.741358333"><ele>189.000000</ele><time>2010-06-30T08:46:03Z</time></trkpt>
	<trkpt lat="51.96510333" lon="-1.741356667"><ele>189.000000</ele><time>2010-06-30T08:46:08Z</time></trkpt>
	<trkpt lat="51.9651" lon="-1.741355"><ele>189.000000</ele><time>2010-06-30T08:46:13Z</time></trkpt>
	<trkpt lat="51.96509667" lon="-1.741358333"><ele>189.000000</ele><time>2010-06-30T08:46:18Z</time></trkpt>
	<trkpt lat="51.96509333" lon="-1.741358333"><ele>189.000000</ele><time>2010-06-30T08:46:23Z</time></trkpt>
	<trkpt lat="51.96509" lon="-1.741358333"><ele>189.000000</ele><time>2010-06-30T08:46:28Z</time></trkpt>
	<trkpt lat="51.96508833" lon="-1.741361667"><ele>189.000000</ele><time>2010-06-30T08:46:33Z</time></trkpt>
	<trkpt lat="51.96508667" lon="-1.741368333"><ele>189.000000</ele><time>2010-06-30T08:46:38Z</time></trkpt>
	<trkpt lat="51.965085" lon="-1.74137"><ele>189.000000</ele><time>2010-06-30T08:46:43Z</time></trkpt>
	<trkpt lat="51.96508333" lon="-1.741366667"><ele>190.000000</ele><time>2010-06-30T08:46:48Z</time></trkpt>
	<trkpt lat="51.96508" lon="-1.741366667"><ele>190.000000</ele><time>2010-06-30T08:46:53Z</time></trkpt>
	<trkpt lat="51.96507833" lon="-1.74137"><ele>190.000000</ele><time>2010-06-30T08:46:58Z</time></trkpt>
	<trkpt lat="51.965075" lon="-1.741373333"><ele>190.000000</ele><time>2010-06-30T08:47:03Z</time></trkpt>
	<trkpt lat="51.96507167" lon="-1.741371667"><ele>190.000000</ele><time>2010-06-30T08:47:08Z</time></trkpt>
	<trkpt lat="51.96506667" lon="-1.74138"><ele>191.000000</ele><time>2010-06-30T08:47:13Z</time></trkpt>
	<trkpt lat="51.965065" lon="-1.741396667"><ele>190.000000</ele><time>2010-06-30T08:47:18Z</time></trkpt>
	<trkpt lat="51.96507667" lon="-1.741423333"><ele>190.000000</ele><time>2010-06-30T08:47:23Z</time></trkpt>
	<trkpt lat="51.96507167" lon="-1.741401667"><ele>191.000000</ele><time>2010-06-30T08:47:28Z</time></trkpt>
	<trkpt lat="51.96507833" lon="-1.741445"><ele>189.000000</ele><time>2010-06-30T08:47:33Z</time></trkpt>
	<trkpt lat="51.96508167" lon="-1.741465"><ele>188.000000</ele><time>2010-06-30T08:47:38Z</time></trkpt>
	<trkpt lat="51.96508" lon="-1.741458333"><ele>188.000000</ele><time>2010-06-30T08:47:43Z</time></trkpt>
	<trkpt lat="51.96508833" lon="-1.741465"><ele>188.000000</ele><time>2010-06-30T08:47:48Z</time></trkpt>
	<trkpt lat="51.96507667" lon="-1.741398333"><ele>190.000000</ele><time>2010-06-30T08:47:53Z</time></trkpt>
	<trkpt lat="51.965055" lon="-1.741358333"><ele>191.000000</ele><time>2010-06-30T08:47:58Z</time></trkpt>
	<trkpt lat="51.96501833" lon="-1.741315"><ele>191.000000</ele><time>2010-06-30T08:48:03Z</time></trkpt>
	<trkpt lat="51.96496833" lon="-1.741298333"><ele>191.000000</ele><time>2010-06-30T08:48:08Z</time></trkpt>
	<trkpt lat="51.96492667" lon="-1.741273333"><ele>190.000000</ele><time>2010-06-30T08:48:13Z</time></trkpt>
	<trkpt lat="51.96492333" lon="-1.74128"><ele>188.000000</ele><time>2010-06-30T08:48:18Z</time></trkpt>
	<trkpt lat="51.96492333" lon="-1.741281667"><ele>187.000000</ele><time>2010-06-30T08:48:23Z</time></trkpt>
	<trkpt lat="51.96492333" lon="-1.74129"><ele>186.000000</ele><time>2010-06-30T08:48:28Z</time></trkpt>
	<trkpt lat="51.96492333" lon="-1.741296667"><ele>185.000000</ele><time>2010-06-30T08:48:33Z</time></trkpt>
	<trkpt lat="51.964925" lon="-1.741306667"><ele>184.000000</ele><time>2010-06-30T08:48:38Z</time></trkpt>
	<trkpt lat="51.96492667" lon="-1.741313333"><ele>184.000000</ele><time>2010-06-30T08:48:43Z</time></trkpt>
	<trkpt lat="51.964925" lon="-1.741323333"><ele>182.000000</ele><time>2010-06-30T08:48:48Z</time></trkpt>
	<trkpt lat="51.96491833" lon="-1.741296667"><ele>185.000000</ele><time>2010-06-30T08:48:53Z</time></trkpt>
	<trkpt lat="51.96491667" lon="-1.741245"><ele>192.000000</ele><time>2010-06-30T08:48:58Z</time></trkpt>
	<trkpt lat="51.96492" lon="-1.741225"><ele>197.000000</ele><time>2010-06-30T08:49:03Z</time></trkpt>
	<trkpt lat="51.96492667" lon="-1.74121"><ele>201.000000</ele><time>2010-06-30T08:49:08Z</time></trkpt>
	<trkpt lat="51.96493333" lon="-1.741201667"><ele>203.000000</ele><time>2010-06-30T08:49:13Z</time></trkpt>
	<trkpt lat="51.96493833" lon="-1.741196667"><ele>205.000000</ele><time>2010-06-30T08:49:18Z</time></trkpt>
	<trkpt lat="51.96494333" lon="-1.741191667"><ele>207.000000</ele><time>2010-06-30T08:49:23Z</time></trkpt>
	<trkpt lat="51.96494833" lon="-1.741188333"><ele>208.000000</ele><time>2010-06-30T08:49:28Z</time></trkpt>
	<trkpt lat="51.96495333" lon="-1.741188333"><ele>209.000000</ele><time>2010-06-30T08:49:33Z</time></trkpt>
	<trkpt lat="51.96495667" lon="-1.741186667"><ele>210.000000</ele><time>2010-06-30T08:49:38Z</time></trkpt>
	<trkpt lat="51.96496167" lon="-1.741186667"><ele>211.000000</ele><time>2010-06-30T08:49:43Z</time></trkpt>
	<trkpt lat="51.96496667" lon="-1.741186667"><ele>212.000000</ele><time>2010-06-30T08:49:48Z</time></trkpt>
	<trkpt lat="51.96497" lon="-1.741186667"><ele>213.000000</ele><time>2010-06-30T08:49:53Z</time></trkpt>
	<trkpt lat="51.96497167" lon="-1.741186667"><ele>213.000000</ele><time>2010-06-30T08:49:58Z</time></trkpt>
	<trkpt lat="51.964975" lon="-1.741186667"><ele>213.000000</ele><time>2010-06-30T08:50:03Z</time></trkpt>
	<trkpt lat="51.964975" lon="-1.741186667"><ele>214.000000</ele><time>2010-06-30T08:50:08Z</time></trkpt>
	<trkpt lat="51.96497667" lon="-1.741188333"><ele>214.000000</ele><time>2010-06-30T08:50:13Z</time></trkpt>
	<trkpt lat="51.96497667" lon="-1.741188333"><ele>214.000000</ele><time>2010-06-30T08:50:18Z</time></trkpt>
	<trkpt lat="51.96497833" lon="-1.741188333"><ele>214.000000</ele><time>2010-06-30T08:50:23Z</time></trkpt>
	<trkpt lat="51.96498" lon="-1.74119"><ele>215.000000</ele><time>2010-06-30T08:50:28Z</time></trkpt>
	<trkpt lat="51.96497833" lon="-1.74119"><ele>215.000000</ele><time>2010-06-30T08:50:33Z</time></trkpt>
	<trkpt lat="51.96497833" lon="-1.741188333"><ele>215.000000</ele><time>2010-06-30T08:50:38Z</time></trkpt>
	<trkpt lat="51.96497833" lon="-1.741188333"><ele>215.000000</ele><time>2010-06-30T08:50:43Z</time></trkpt>
	<trkpt lat="51.96497833" lon="-1.741186667"><ele>215.000000</ele><time>2010-06-30T08:50:48Z</time></trkpt>
	<trkpt lat="51.96497833" lon="-1.741186667"><ele>215.000000</ele><time>2010-06-30T08:50:53Z</time></trkpt>
	<trkpt lat="51.96498" lon="-1.741185"><ele>215.000000</ele><time>2010-06-30T08:50:58Z</time></trkpt>
	<trkpt lat="51.96497833" lon="-1.741183333"><ele>215.000000</ele><time>2010-06-30T08:51:03Z</time></trkpt>
	<trkpt lat="51.96498" lon="-1.741185"><ele>215.000000</ele><time>2010-06-30T08:51:08Z</time></trkpt>
	<trkpt lat="51.96498167" lon="-1.741185"><ele>214.000000</ele><time>2010-06-30T08:51:13Z</time></trkpt>
	<trkpt lat="51.964985" lon="-1.741193333"><ele>216.000000</ele><time>2010-06-30T08:51:18Z</time></trkpt>
	<trkpt lat="51.96498833" lon="-1.741201667"><ele>217.000000</ele><time>2010-06-30T08:51:23Z</time></trkpt>
	<trkpt lat="51.96499" lon="-1.74121"><ele>219.000000</ele><time>2010-06-30T08:51:28Z</time></trkpt>
	<trkpt lat="51.96499167" lon="-1.741215"><ele>220.000000</ele><time>2010-06-30T08:51:33Z</time></trkpt>
	<trkpt lat="51.96499167" lon="-1.74122"><ele>221.000000</ele><time>2010-06-30T08:51:38Z</time></trkpt>
	<trkpt lat="51.96499" lon="-1.741213333"><ele>220.000000</ele><time>2010-06-30T08:51:43Z</time></trkpt>
	<trkpt lat="51.96498667" lon="-1.741206667"><ele>218.000000</ele><time>2010-06-30T08:51:48Z</time></trkpt>
	<trkpt lat="51.96498333" lon="-1.741201667"><ele>217.000000</ele><time>2010-06-30T08:51:53Z</time></trkpt>
	<trkpt lat="51.96498167" lon="-1.741198333"><ele>216.000000</ele><time>2010-06-30T08:51:58Z</time></trkpt>
	<trkpt lat="51.96498" lon="-1.741195"><ele>216.000000</ele><time>2010-06-30T08:52:03Z</time></trkpt>
	<trkpt lat="51.96497667" lon="-1.741191667"><ele>215.000000</ele><time>2010-06-30T08:52:08Z</time></trkpt>
	<trkpt lat="51.96496833" lon="-1.74119"><ele>214.000000</ele><time>2010-06-30T08:52:13Z</time></trkpt>
	<trkpt lat="51.96496333" lon="-1.741186667"><ele>212.000000</ele><time>2010-06-30T08:52:18Z</time></trkpt>
	<trkpt lat="51.96496333" lon="-1.741186667"><ele>212.000000</ele><time>2010-06-30T08:52:23Z</time></trkpt>
	<trkpt lat="51.96496667" lon="-1.74119"><ele>213.000000</ele><time>2010-06-30T08:52:28Z</time></trkpt>
	<trkpt lat="51.96496667" lon="-1.741195"><ele>214.000000</ele><time>2010-06-30T08:52:33Z</time></trkpt>
	<trkpt lat="51.96496833" lon="-1.7412"><ele>215.000000</ele><time>2010-06-30T08:52:38Z</time></trkpt>
	<trkpt lat="51.96497333" lon="-1.741206667"><ele>216.000000</ele><time>2010-06-30T08:52:43Z</time></trkpt>
	<trkpt lat="51.96497833" lon="-1.741213333"><ele>218.000000</ele><time>2010-06-30T08:52:48Z</time></trkpt>
	<trkpt lat="51.96498" lon="-1.74122"><ele>219.000000</ele><time>2010-06-30T08:52:53Z</time></trkpt>
	<trkpt lat="51.96497667" lon="-1.741211667"><ele>217.000000</ele><time>2010-06-30T08:52:58Z</time></trkpt>
	<trkpt lat="51.96497833" lon="-1.741211667"><ele>218.000000</ele><time>2010-06-30T08:53:03Z</time></trkpt>
	<trkpt lat="51.96496833" lon="-1.741201667"><ele>215.000000</ele><time>2010-06-30T08:53:08Z</time></trkpt>
	<trkpt lat="51.96496333" lon="-1.7412"><ele>212.000000</ele><time>2010-06-30T08:53:13Z</time></trkpt>
	<trkpt lat="51.96496167" lon="-1.741196667"><ele>212.000000</ele><time>2010-06-30T08:53:18Z</time></trkpt>
	<trkpt lat="51.96496833" lon="-1.741201667"><ele>214.000000</ele><time>2010-06-30T08:53:23Z</time></trkpt>
	<trkpt lat="51.96497167" lon="-1.741208333"><ele>216.000000</ele><time>2010-06-30T08:53:28Z</time></trkpt>
	<trkpt lat="51.96497" lon="-1.741201667"><ele>216.000000</ele><time>2010-06-30T08:53:33Z</time></trkpt>
	<trkpt lat="51.96496667" lon="-1.741198333"><ele>216.000000</ele><time>2010-06-30T08:53:38Z</time></trkpt>
	<trkpt lat="51.96493667" lon="-1.74117"><ele>211.000000</ele><time>2010-06-30T08:53:43Z</time></trkpt>
	<trkpt lat="51.9649" lon="-1.74113"><ele>206.000000</ele><time>2010-06-30T08:53:48Z</time></trkpt>
	<trkpt lat="51.964885" lon="-1.741111667"><ele>205.000000</ele><time>2010-06-30T08:53:53Z</time></trkpt>
	<trkpt lat="51.96487833" lon="-1.741101667"><ele>205.000000</ele><time>2010-06-30T08:53:58Z</time></trkpt>
	<trkpt lat="51.96486333" lon="-1.741101667"><ele>207.000000</ele><time>2010-06-30T08:54:03Z</time></trkpt>
	<trkpt lat="51.96486667" lon="-1.741111667"><ele>209.000000</ele><time>2010-06-30T08:54:08Z</time></trkpt>
	<trkpt lat="51.96487333" lon="-1.741116667"><ele>211.000000</ele><time>2010-06-30T08:54:13Z</time></trkpt>
	<trkpt lat="51.96488333" lon="-1.741125"><ele>212.000000</ele><time>2010-06-30T08:54:18Z</time></trkpt>
	<trkpt lat="51.96489" lon="-1.741128333"><ele>212.000000</ele><time>2010-06-30T08:54:23Z</time></trkpt>
	<trkpt lat="51.96489333" lon="-1.741126667"><ele>213.000000</ele><time>2010-06-30T08:54:28Z</time></trkpt>
	<trkpt lat="51.96489667" lon="-1.741125"><ele>213.000000</ele><time>2010-06-30T08:54:33Z</time></trkpt>
	<trkpt lat="51.964885" lon="-1.741125"><ele>212.000000</ele><time>2010-06-30T08:54:38Z</time></trkpt>
	<trkpt lat="51.96488333" lon="-1.741108333"><ele>214.000000</ele><time>2010-06-30T08:54:43Z</time></trkpt>
	<trkpt lat="51.96488167" lon="-1.741106667"><ele>214.000000</ele><time>2010-06-30T08:54:48Z</time></trkpt>
	<trkpt lat="51.96488333" lon="-1.741106667"><ele>214.000000</ele><time>2010-06-30T08:54:53Z</time></trkpt>
	<trkpt lat="51.96489167" lon="-1.741108333"><ele>215.000000</ele><time>2010-06-30T08:54:58Z</time></trkpt>
	<trkpt lat="51.96490167" lon="-1.741116667"><ele>216.000000</ele><time>2010-06-30T08:55:03Z</time></trkpt>
	<trkpt lat="51.96491333" lon="-1.74113"><ele>217.000000</ele><time>2010-06-30T08:55:08Z</time></trkpt>
	<trkpt lat="51.96491667" lon="-1.741128333"><ele>216.000000</ele><time>2010-06-30T08:55:13Z</time></trkpt>
	<trkpt lat="51.96492167" lon="-1.74113"><ele>214.000000</ele><time>2010-06-30T08:55:18Z</time></trkpt>
	<trkpt lat="51.96492833" lon="-1.741138333"><ele>215.000000</ele><time>2010-06-30T08:55:23Z</time></trkpt>
	<trkpt lat="51.964935" lon="-1.741145"><ele>215.000000</ele><time>2010-06-30T08:55:28Z</time></trkpt>
	<trkpt lat="51.96494167" lon="-1.741151667"><ele>215.000000</ele><time>2010-06-30T08:55:33Z</time></trkpt>
	<trkpt lat="51.96494667" lon="-1.741155"><ele>215.000000</ele><time>2010-06-30T08:55:38Z</time></trkpt>
	<trkpt lat="51.96495" lon="-1.74116"><ele>216.000000</ele><time>2010-06-30T08:55:43Z</time></trkpt>
	<trkpt lat="51.96495333" lon="-1.741163333"><ele>216.000000</ele><time>2010-06-30T08:55:48Z</time></trkpt>
	<trkpt lat="51.96495667" lon="-1.741166667"><ele>216.000000</ele><time>2010-06-30T08:55:53Z</time></trkpt>
	<trkpt lat="51.96495333" lon="-1.74117"><ele>214.000000</ele><time>2010-06-30T08:55:58Z</time></trkpt>
	<trkpt lat="51.96495167" lon="-1.741171667"><ele>212.000000</ele><time>2010-06-30T08:56:03Z</time></trkpt>
	<trkpt lat="51.96495167" lon="-1.741166667"><ele>212.000000</ele><time>2010-06-30T08:56:08Z</time></trkpt>
	<trkpt lat="51.96494833" lon="-1.741168333"><ele>211.000000</ele><time>2010-06-30T08:56:13Z</time></trkpt>
	<trkpt lat="51.96494333" lon="-1.741166667"><ele>210.000000</ele><time>2010-06-30T08:56:18Z</time></trkpt>
	<trkpt lat="51.96494333" lon="-1.741165"><ele>210.000000</ele><time>2010-06-30T08:56:23Z</time></trkpt>
	<trkpt lat="51.96494667" lon="-1.741165"><ele>212.000000</ele><time>2010-06-30T08:56:28Z</time></trkpt>
	<trkpt lat="51.96495" lon="-1.741163333"><ele>212.000000</ele><time>2010-06-30T08:56:33Z</time></trkpt>
	<trkpt lat="51.96493833" lon="-1.741161667"><ele>209.000000</ele><time>2010-06-30T08:56:38Z</time></trkpt>
	<trkpt lat="51.96492833" lon="-1.741173333"><ele>205.000000</ele><time>2010-06-30T08:56:43Z</time></trkpt>
	<trkpt lat="51.96492833" lon="-1.741188333"><ele>201.000000</ele><time>2010-06-30T08:56:48Z</time></trkpt>
	<trkpt lat="51.96493167" lon="-1.741183333"><ele>200.000000</ele><time>2010-06-30T08:56:53Z</time></trkpt>
	<trkpt lat="51.96493333" lon="-1.741186667"><ele>199.000000</ele><time>2010-06-30T08:56:58Z</time></trkpt>
	<trkpt lat="51.96494" lon="-1.741201667"><ele>196.000000</ele><time>2010-06-30T08:57:03Z</time></trkpt>
	<trkpt lat="51.96494667" lon="-1.741216667"><ele>193.000000</ele><time>2010-06-30T08:57:08Z</time></trkpt>
	<trkpt lat="51.96495333" lon="-1.741238333"><ele>190.000000</ele><time>2010-06-30T08:57:13Z</time></trkpt>
	<trkpt lat="51.96495" lon="-1.741228333"><ele>191.000000</ele><time>2010-06-30T08:57:18Z</time></trkpt>
	<trkpt lat="51.96495" lon="-1.741238333"><ele>190.000000</ele><time>2010-06-30T08:57:23Z</time></trkpt>
	<trkpt lat="51.96494833" lon="-1.741248333"><ele>189.000000</ele><time>2010-06-30T08:57:28Z</time></trkpt>
	<trkpt lat="51.96495" lon="-1.741251667"><ele>189.000000</ele><time>2010-06-30T08:57:33Z</time></trkpt>
	<trkpt lat="51.964945" lon="-1.741256667"><ele>188.000000</ele><time>2010-06-30T08:57:38Z</time></trkpt>
	<trkpt lat="51.96494333" lon="-1.741261667"><ele>188.000000</ele><time>2010-06-30T08:57:43Z</time></trkpt>
	<trkpt lat="51.964945" lon="-1.741266667"><ele>187.000000</ele><time>2010-06-30T08:57:48Z</time></trkpt>
	<trkpt lat="51.96494833" lon="-1.741268333"><ele>187.000000</ele><time>2010-06-30T08:57:53Z</time></trkpt>
	<trkpt lat="51.96495167" lon="-1.741273333"><ele>186.000000</ele><time>2010-06-30T08:57:58Z</time></trkpt>
	<trkpt lat="51.96496333" lon="-1.741291667"><ele>183.000000</ele><time>2010-06-30T08:58:03Z</time></trkpt>
	<trkpt lat="51.964965" lon="-1.741301667"><ele>182.000000</ele><time>2010-06-30T08:58:08Z</time></trkpt>
	<trkpt lat="51.964965" lon="-1.741305"><ele>181.000000</ele><time>2010-06-30T08:58:13Z</time></trkpt>
	<trkpt lat="51.96496667" lon="-1.741306667"><ele>181.000000</ele><time>2010-06-30T08:58:18Z</time></trkpt>
	<trkpt lat="51.96497" lon="-1.741311667"><ele>180.000000</ele><time>2010-06-30T08:58:23Z</time></trkpt>
	<trkpt lat="51.96496333" lon="-1.741281667"><ele>184.000000</ele><time>2010-06-30T08:58:28Z</time></trkpt>
	<trkpt lat="51.96495167" lon="-1.741238333"><ele>188.000000</ele><time>2010-06-30T08:58:33Z</time></trkpt>
	<trkpt lat="51.96495167" lon="-1.741235"><ele>189.000000</ele><time>2010-06-30T08:58:38Z</time></trkpt>
	<trkpt lat="51.96494167" lon="-1.741223333"><ele>191.000000</ele><time>2010-06-30T08:58:43Z</time></trkpt>
	<trkpt lat="51.96494167" lon="-1.741226667"><ele>190.000000</ele><time>2010-06-30T08:58:48Z</time></trkpt>
	<trkpt lat="51.96494667" lon="-1.741238333"><ele>189.000000</ele><time>2010-06-30T08:58:53Z</time></trkpt>
	<trkpt lat="51.96495333" lon="-1.74125"><ele>188.000000</ele><time>2010-06-30T08:58:58Z</time></trkpt>
	<trkpt lat="51.964965" lon="-1.741266667"><ele>186.000000</ele><time>2010-06-30T08:59:03Z</time></trkpt>
	<trkpt lat="51.96497333" lon="-1.741248333"><ele>184.000000</ele><time>2010-06-30T08:59:08Z</time></trkpt>
	<trkpt lat="51.96497667" lon="-1.741206667"><ele>182.000000</ele><time>2010-06-30T08:59:13Z</time></trkpt>
	<trkpt lat="51.964995" lon="-1.741173333"><ele>181.000000</ele><time>2010-06-30T08:59:18Z</time></trkpt>
	<trkpt lat="51.96503167" lon="-1.74115"><ele>180.000000</ele><time>2010-06-30T08:59:23Z</time></trkpt>
	<trkpt lat="51.96508" lon="-1.741143333"><ele>178.000000</ele><time>2010-06-30T08:59:28Z</time></trkpt>
	<trkpt lat="51.96513" lon="-1.741121667"><ele>177.000000</ele><time>2010-06-30T08:59:33Z</time></trkpt>
	<trkpt lat="51.96518" lon="-1.741096667"><ele>177.000000</ele><time>2010-06-30T08:59:38Z</time></trkpt>
	<trkpt lat="51.96523" lon="-1.74107"><ele>176.000000</ele><time>2010-06-30T08:59:43Z</time></trkpt>
	<trkpt lat="51.96526833" lon="-1.741051667"><ele>176.000000</ele><time>2010-06-30T08:59:48Z</time></trkpt>
	<trkpt lat="51.965305" lon="-1.741025"><ele>177.000000</ele><time>2010-06-30T08:59:53Z</time></trkpt>
	<trkpt lat="51.96535" lon="-1.740995"><ele>176.000000</ele><time>2010-06-30T08:59:58Z</time></trkpt>
	<trkpt lat="51.9654" lon="-1.740951667"><ele>175.000000</ele><time>2010-06-30T09:00:03Z</time></trkpt>
	<trkpt lat="51.96544" lon="-1.740911667"><ele>176.000000</ele><time>2010-06-30T09:00:08Z</time></trkpt>
	<trkpt lat="51.96548167" lon="-1.740873333"><ele>176.000000</ele><time>2010-06-30T09:00:13Z</time></trkpt>
	<trkpt lat="51.96552167" lon="-1.740821667"><ele>176.000000</ele><time>2010-06-30T09:00:18Z</time></trkpt>
	<trkpt lat="51.96556" lon="-1.740766667"><ele>176.000000</ele><time>2010-06-30T09:00:23Z</time></trkpt>
	<trkpt lat="51.965605" lon="-1.740715"><ele>175.000000</ele><time>2010-06-30T09:00:28Z</time></trkpt>
	<trkpt lat="51.96564833" lon="-1.740663333"><ele>175.000000</ele><time>2010-06-30T09:00:33Z</time></trkpt>
	<trkpt lat="51.965695" lon="-1.740601667"><ele>174.000000</ele><time>2010-06-30T09:00:38Z</time></trkpt>
	<trkpt lat="51.96573833" lon="-1.740545"><ele>174.000000</ele><time>2010-06-30T09:00:43Z</time></trkpt>
	<trkpt lat="51.965785" lon="-1.740491667"><ele>174.000000</ele><time>2010-06-30T09:00:48Z</time></trkpt>
	<trkpt lat="51.96583667" lon="-1.740438333"><ele>173.000000</ele><time>2010-06-30T09:00:53Z</time></trkpt>
	<trkpt lat="51.96589333" lon="-1.740406667"><ele>172.000000</ele><time>2010-06-30T09:00:58Z</time></trkpt>
	<trkpt lat="51.96594833" lon="-1.740403333"><ele>172.000000</ele><time>2010-06-30T09:01:03Z</time></trkpt>
	<trkpt lat="51.96600167" lon="-1.740415"><ele>172.000000</ele><time>2010-06-30T09:01:08Z</time></trkpt>
	<trkpt lat="51.96605" lon="-1.740445"><ele>173.000000</ele><time>2010-06-30T09:01:13Z</time></trkpt>
	<trkpt lat="51.96608667" lon="-1.74046"><ele>176.000000</ele><time>2010-06-30T09:01:18Z</time></trkpt>
	<trkpt lat="51.96612667" lon="-1.740478333"><ele>178.000000</ele><time>2010-06-30T09:01:23Z</time></trkpt>
	<trkpt lat="51.96617833" lon="-1.740506667"><ele>179.000000</ele><time>2010-06-30T09:01:28Z</time></trkpt>
	<trkpt lat="51.96623" lon="-1.740535"><ele>179.000000</ele><time>2010-06-30T09:01:33Z</time></trkpt>
	<trkpt lat="51.96627833" lon="-1.740553333"><ele>179.000000</ele><time>2010-06-30T09:01:38Z</time></trkpt>
	<trkpt lat="51.966315" lon="-1.740578333"><ele>180.000000</ele><time>2010-06-30T09:01:43Z</time></trkpt>
	<trkpt lat="51.96636167" lon="-1.740591667"><ele>179.000000</ele><time>2010-06-30T09:01:48Z</time></trkpt>
	<trkpt lat="51.966415" lon="-1.7406"><ele>179.000000</ele><time>2010-06-30T09:01:53Z</time></trkpt>
	<trkpt lat="51.96646667" lon="-1.74061"><ele>179.000000</ele><time>2010-06-30T09:01:58Z</time></trkpt>
	<trkpt lat="51.96652" lon="-1.740616667"><ele>179.000000</ele><time>2010-06-30T09:02:03Z</time></trkpt>
	<trkpt lat="51.96657167" lon="-1.740623333"><ele>179.000000</ele><time>2010-06-30T09:02:08Z</time></trkpt>
	<trkpt lat="51.96661667" lon="-1.740628333"><ele>180.000000</ele><time>2010-06-30T09:02:13Z</time></trkpt>
	<trkpt lat="51.96667" lon="-1.74064"><ele>179.000000</ele><time>2010-06-30T09:02:18Z</time></trkpt>
	<trkpt lat="51.96672667" lon="-1.740645"><ele>179.000000</ele><time>2010-06-30T09:02:23Z</time></trkpt>
	<trkpt lat="51.96678167" lon="-1.740658333"><ele>179.000000</ele><time>2010-06-30T09:02:28Z</time></trkpt>
	<trkpt lat="51.96684" lon="-1.740666667"><ele>179.000000</ele><time>2010-06-30T09:02:33Z</time></trkpt>
	<trkpt lat="51.96689333" lon="-1.740676667"><ele>178.000000</ele><time>2010-06-30T09:02:38Z</time></trkpt>
	<trkpt lat="51.96694667" lon="-1.740683333"><ele>178.000000</ele><time>2010-06-30T09:02:43Z</time></trkpt>
	<trkpt lat="51.96699167" lon="-1.740666667"><ele>180.000000</ele><time>2010-06-30T09:02:48Z</time></trkpt>
	<trkpt lat="51.96704167" lon="-1.740656667"><ele>181.000000</ele><time>2010-06-30T09:02:53Z</time></trkpt>
	<trkpt lat="51.96708833" lon="-1.740653333"><ele>181.000000</ele><time>2010-06-30T09:02:58Z</time></trkpt>
	<trkpt lat="51.96712167" lon="-1.740665"><ele>181.000000</ele><time>2010-06-30T09:03:03Z</time></trkpt>
	<trkpt lat="51.96713667" lon="-1.740663333"><ele>181.000000</ele><time>2010-06-30T09:03:08Z</time></trkpt>
	<trkpt lat="51.96715333" lon="-1.740658333"><ele>182.000000</ele><time>2010-06-30T09:03:13Z</time></trkpt>
	<trkpt lat="51.96717" lon="-1.740668333"><ele>182.000000</ele><time>2010-06-30T09:03:18Z</time></trkpt>
	<trkpt lat="51.96716667" lon="-1.74066"><ele>182.000000</ele><time>2010-06-30T09:03:23Z</time></trkpt>
	<trkpt lat="51.96720833" lon="-1.740653333"><ele>181.000000</ele><time>2010-06-30T09:03:28Z</time></trkpt>
	<trkpt lat="51.96726667" lon="-1.740645"><ele>180.000000</ele><time>2010-06-30T09:03:33Z</time></trkpt>
	<trkpt lat="51.96732" lon="-1.740631667"><ele>179.000000</ele><time>2010-06-30T09:03:38Z</time></trkpt>
	<trkpt lat="51.96737333" lon="-1.740613333"><ele>178.000000</ele><time>2010-06-30T09:03:43Z</time></trkpt>
	<trkpt lat="51.96742667" lon="-1.740608333"><ele>177.000000</ele><time>2010-06-30T09:03:48Z</time></trkpt>
	<trkpt lat="51.96747833" lon="-1.740593333"><ele>177.000000</ele><time>2010-06-30T09:03:53Z</time></trkpt>
	<trkpt lat="51.96753" lon="-1.740571667"><ele>177.000000</ele><time>2010-06-30T09:03:58Z</time></trkpt>
	<trkpt lat="51.96758167" lon="-1.740545"><ele>176.000000</ele><time>2010-06-30T09:04:03Z</time></trkpt>
	<trkpt lat="51.96762833" lon="-1.740516667"><ele>176.000000</ele><time>2010-06-30T09:04:08Z</time></trkpt>
	<trkpt lat="51.96767333" lon="-1.740483333"><ele>176.000000</ele><time>2010-06-30T09:04:13Z</time></trkpt>
	<trkpt lat="51.96772333" lon="-1.740448333"><ele>175.000000</ele><time>2010-06-30T09:04:18Z</time></trkpt>
	<trkpt lat="51.967775" lon="-1.740411667"><ele>175.000000</ele><time>2010-06-30T09:04:23Z</time></trkpt>
	<trkpt lat="51.96782167" lon="-1.740376667"><ele>175.000000</ele><time>2010-06-30T09:04:28Z</time></trkpt>
	<trkpt lat="51.96786833" lon="-1.740343333"><ele>174.000000</ele><time>2010-06-30T09:04:33Z</time></trkpt>
	<trkpt lat="51.96791333" lon="-1.740306667"><ele>174.000000</ele><time>2010-06-30T09:04:38Z</time></trkpt>
	<trkpt lat="51.96795833" lon="-1.740265"><ele>173.000000</ele><time>2010-06-30T09:04:43Z</time></trkpt>
	<trkpt lat="51.96800167" lon="-1.740216667"><ele>173.000000</ele><time>2010-06-30T09:04:48Z</time></trkpt>
	<trkpt lat="51.96804" lon="-1.740173333"><ele>172.000000</ele><time>2010-06-30T09:04:53Z</time></trkpt>
	<trkpt lat="51.96807667" lon="-1.740131667"><ele>172.000000</ele><time>2010-06-30T09:04:58Z</time></trkpt>
	<trkpt lat="51.96811667" lon="-1.740088333"><ele>172.000000</ele><time>2010-06-30T09:05:03Z</time></trkpt>
	<trkpt lat="51.968145" lon="-1.74006"><ele>172.000000</ele><time>2010-06-30T09:05:08Z</time></trkpt>
	<trkpt lat="51.96817833" lon="-1.74003"><ele>171.000000</ele><time>2010-06-30T09:05:13Z</time></trkpt>
	<trkpt lat="51.96821167" lon="-1.739985"><ele>171.000000</ele><time>2010-06-30T09:05:18Z</time></trkpt>
	<trkpt lat="51.96824833" lon="-1.739938333"><ele>170.000000</ele><time>2010-06-30T09:05:23Z</time></trkpt>
	<trkpt lat="51.96828" lon="-1.739893333"><ele>170.000000</ele><time>2010-06-30T09:05:28Z</time></trkpt>
	<trkpt lat="51.96831833" lon="-1.739846667"><ele>170.000000</ele><time>2010-06-30T09:05:33Z</time></trkpt>
	<trkpt lat="51.96835833" lon="-1.73981"><ele>169.000000</ele><time>2010-06-30T09:05:38Z</time></trkpt>
	<trkpt lat="51.96839833" lon="-1.739768333"><ele>169.000000</ele><time>2010-06-30T09:05:43Z</time></trkpt>
	<trkpt lat="51.96844167" lon="-1.739726667"><ele>168.000000</ele><time>2010-06-30T09:05:48Z</time></trkpt>
	<trkpt lat="51.96848333" lon="-1.739686667"><ele>168.000000</ele><time>2010-06-30T09:05:53Z</time></trkpt>
	<trkpt lat="51.96852" lon="-1.739645"><ele>167.000000</ele><time>2010-06-30T09:05:58Z</time></trkpt>
	<trkpt lat="51.968555" lon="-1.739595"><ele>167.000000</ele><time>2010-06-30T09:06:03Z</time></trkpt>
	<trkpt lat="51.96859333" lon="-1.739545"><ele>167.000000</ele><time>2010-06-30T09:06:08Z</time></trkpt>
	<trkpt lat="51.96863167" lon="-1.739495"><ele>167.000000</ele><time>2010-06-30T09:06:13Z</time></trkpt>
	<trkpt lat="51.96866667" lon="-1.73944"><ele>167.000000</ele><time>2010-06-30T09:06:18Z</time></trkpt>
	<trkpt lat="51.9687" lon="-1.739381667"><ele>167.000000</ele><time>2010-06-30T09:06:23Z</time></trkpt>
	<trkpt lat="51.96873833" lon="-1.739326667"><ele>167.000000</ele><time>2010-06-30T09:06:28Z</time></trkpt>
	<trkpt lat="51.968775" lon="-1.739271667"><ele>167.000000</ele><time>2010-06-30T09:06:33Z</time></trkpt>
	<trkpt lat="51.968815" lon="-1.739216667"><ele>166.000000</ele><time>2010-06-30T09:06:38Z</time></trkpt>
	<trkpt lat="51.968855" lon="-1.739161667"><ele>166.000000</ele><time>2010-06-30T09:06:43Z</time></trkpt>
	<trkpt lat="51.968895" lon="-1.73911"><ele>165.000000</ele><time>2010-06-30T09:06:48Z</time></trkpt>
	<trkpt lat="51.968925" lon="-1.739058333"><ele>165.000000</ele><time>2010-06-30T09:06:53Z</time></trkpt>
	<trkpt lat="51.96896" lon="-1.738995"><ele>165.000000</ele><time>2010-06-30T09:06:58Z</time></trkpt>
	<trkpt lat="51.96899833" lon="-1.738943333"><ele>164.000000</ele><time>2010-06-30T09:07:03Z</time></trkpt>
	<trkpt lat="51.96904167" lon="-1.738896667"><ele>164.000000</ele><time>2010-06-30T09:07:08Z</time></trkpt>
	<trkpt lat="51.96908167" lon="-1.738858333"><ele>164.000000</ele><time>2010-06-30T09:07:13Z</time></trkpt>
	<trkpt lat="51.96912" lon="-1.738836667"><ele>164.000000</ele><time>2010-06-30T09:07:18Z</time></trkpt>
	<trkpt lat="51.96913167" lon="-1.738805"><ele>164.000000</ele><time>2010-06-30T09:07:23Z</time></trkpt>
	<trkpt lat="51.96913333" lon="-1.738801667"><ele>164.000000</ele><time>2010-06-30T09:07:28Z</time></trkpt>
	<trkpt lat="51.96915667" lon="-1.738785"><ele>163.000000</ele><time>2010-06-30T09:07:33Z</time></trkpt>
	<trkpt lat="51.96920167" lon="-1.738746667"><ele>163.000000</ele><time>2010-06-30T09:07:38Z</time></trkpt>
	<trkpt lat="51.96925333" lon="-1.7387"><ele>162.000000</ele><time>2010-06-30T09:07:43Z</time></trkpt>
	<trkpt lat="51.96930167" lon="-1.738656667"><ele>162.000000</ele><time>2010-06-30T09:07:48Z</time></trkpt>
	<trkpt lat="51.96934833" lon="-1.738605"><ele>161.000000</ele><time>2010-06-30T09:07:53Z</time></trkpt>
	<trkpt lat="51.969395" lon="-1.738555"><ele>161.000000</ele><time>2010-06-30T09:07:58Z</time></trkpt>
	<trkpt lat="51.96943" lon="-1.7385"><ele>161.000000</ele><time>2010-06-30T09:08:03Z</time></trkpt>
	<trkpt lat="51.96947" lon="-1.738441667"><ele>161.000000</ele><time>2010-06-30T09:08:08Z</time></trkpt>
	<trkpt lat="51.96950667" lon="-1.738376667"><ele>161.000000</ele><time>2010-06-30T09:08:13Z</time></trkpt>
	<trkpt lat="51.96954333" lon="-1.738315"><ele>161.000000</ele><time>2010-06-30T09:08:18Z</time></trkpt>
	<trkpt lat="51.96958167" lon="-1.738251667"><ele>160.000000</ele><time>2010-06-30T09:08:23Z</time></trkpt>
	<trkpt lat="51.96961333" lon="-1.738195"><ele>160.000000</ele><time>2010-06-30T09:08:28Z</time></trkpt>
	<trkpt lat="51.96965" lon="-1.738133333"><ele>160.000000</ele><time>2010-06-30T09:08:33Z</time></trkpt>
	<trkpt lat="51.96969333" lon="-1.738091667"><ele>160.000000</ele><time>2010-06-30T09:08:38Z</time></trkpt>
	<trkpt lat="51.96974" lon="-1.738053333"><ele>159.000000</ele><time>2010-06-30T09:08:43Z</time></trkpt>
	<trkpt lat="51.96978667" lon="-1.738018333"><ele>159.000000</ele><time>2010-06-30T09:08:48Z</time></trkpt>
	<trkpt lat="51.96982833" lon="-1.737973333"><ele>159.000000</ele><time>2010-06-30T09:08:53Z</time></trkpt>
	<trkpt lat="51.96987" lon="-1.73793"><ele>159.000000</ele><time>2010-06-30T09:08:58Z</time></trkpt>
	<trkpt lat="51.96991167" lon="-1.737876667"><ele>159.000000</ele><time>2010-06-30T09:09:03Z</time></trkpt>
	<trkpt lat="51.96995667" lon="-1.737828333"><ele>158.000000</ele><time>2010-06-30T09:09:08Z</time></trkpt>
	<trkpt lat="51.970005" lon="-1.737788333"><ele>157.000000</ele><time>2010-06-30T09:09:13Z</time></trkpt>
	<trkpt lat="51.97005" lon="-1.737755"><ele>157.000000</ele><time>2010-06-30T09:09:18Z</time></trkpt>
	<trkpt lat="51.9701" lon="-1.737743333"><ele>157.000000</ele><time>2010-06-30T09:09:23Z</time></trkpt>
	<trkpt lat="51.97015" lon="-1.737723333"><ele>156.000000</ele><time>2010-06-30T09:09:28Z</time></trkpt>
	<trkpt lat="51.9702" lon="-1.737705"><ele>156.000000</ele><time>2010-06-30T09:09:33Z</time></trkpt>
	<trkpt lat="51.97024833" lon="-1.737678333"><ele>155.000000</ele><time>2010-06-30T09:09:38Z</time></trkpt>
	<trkpt lat="51.97029333" lon="-1.737648333"><ele>155.000000</ele><time>2010-06-30T09:09:43Z</time></trkpt>
	<trkpt lat="51.97034667" lon="-1.737643333"><ele>155.000000</ele><time>2010-06-30T09:09:48Z</time></trkpt>
	<trkpt lat="51.97040167" lon="-1.737633333"><ele>154.000000</ele><time>2010-06-30T09:09:53Z</time></trkpt>
	<trkpt lat="51.97045167" lon="-1.737608333"><ele>155.000000</ele><time>2010-06-30T09:09:58Z</time></trkpt>
	<trkpt lat="51.97050167" lon="-1.737581667"><ele>155.000000</ele><time>2010-06-30T09:10:03Z</time></trkpt>
	<trkpt lat="51.97055667" lon="-1.737553333"><ele>154.000000</ele><time>2010-06-30T09:10:08Z</time></trkpt>
	<trkpt lat="51.97060833" lon="-1.737525"><ele>154.000000</ele><time>2010-06-30T09:10:13Z</time></trkpt>
	<trkpt lat="51.97066" lon="-1.737496667"><ele>153.000000</ele><time>2010-06-30T09:10:18Z</time></trkpt>
	<trkpt lat="51.970705" lon="-1.737463333"><ele>154.000000</ele><time>2010-06-30T09:10:23Z</time></trkpt>
	<trkpt lat="51.97075333" lon="-1.737435"><ele>154.000000</ele><time>2010-06-30T09:10:28Z</time></trkpt>
	<trkpt lat="51.97080667" lon="-1.737406667"><ele>154.000000</ele><time>2010-06-30T09:10:33Z</time></trkpt>
	<trkpt lat="51.97085667" lon="-1.737381667"><ele>153.000000</ele><time>2010-06-30T09:10:38Z</time></trkpt>
	<trkpt lat="51.97091" lon="-1.73736"><ele>153.000000</ele><time>2010-06-30T09:10:43Z</time></trkpt>
	<trkpt lat="51.97096333" lon="-1.737341667"><ele>153.000000</ele><time>2010-06-30T09:10:48Z</time></trkpt>
	<trkpt lat="51.97102" lon="-1.737323333"><ele>153.000000</ele><time>2010-06-30T09:10:53Z</time></trkpt>
	<trkpt lat="51.97106833" lon="-1.737296667"><ele>154.000000</ele><time>2010-06-30T09:10:58Z</time></trkpt>
	<trkpt lat="51.97111833" lon="-1.737261667"><ele>154.000000</ele><time>2010-06-30T09:11:03Z</time></trkpt>
	<trkpt lat="51.97116833" lon="-1.737231667"><ele>154.000000</ele><time>2010-06-30T09:11:08Z</time></trkpt>
	<trkpt lat="51.97122333" lon="-1.737196667"><ele>154.000000</ele><time>2010-06-30T09:11:13Z</time></trkpt>
	<trkpt lat="51.97127833" lon="-1.737171667"><ele>154.000000</ele><time>2010-06-30T09:11:18Z</time></trkpt>
	<trkpt lat="51.97132333" lon="-1.737138333"><ele>154.000000</ele><time>2010-06-30T09:11:23Z</time></trkpt>
	<trkpt lat="51.971365" lon="-1.737106667"><ele>155.000000</ele><time>2010-06-30T09:11:28Z</time></trkpt>
	<trkpt lat="51.97140833" lon="-1.737071667"><ele>155.000000</ele><time>2010-06-30T09:11:33Z</time></trkpt>
	<trkpt lat="51.97145" lon="-1.737046667"><ele>155.000000</ele><time>2010-06-30T09:11:38Z</time></trkpt>
	<trkpt lat="51.971505" lon="-1.737016667"><ele>154.000000</ele><time>2010-06-30T09:11:43Z</time></trkpt>
	<trkpt lat="51.97155833" lon="-1.736986667"><ele>154.000000</ele><time>2010-06-30T09:11:48Z</time></trkpt>
	<trkpt lat="51.97161167" lon="-1.736961667"><ele>154.000000</ele><time>2010-06-30T09:11:53Z</time></trkpt>
	<trkpt lat="51.97166833" lon="-1.736935"><ele>153.000000</ele><time>2010-06-30T09:11:58Z</time></trkpt>
	<trkpt lat="51.97172" lon="-1.736906667"><ele>153.000000</ele><time>2010-06-30T09:12:03Z</time></trkpt>
	<trkpt lat="51.97176833" lon="-1.736871667"><ele>153.000000</ele><time>2010-06-30T09:12:08Z</time></trkpt>
	<trkpt lat="51.97182167" lon="-1.736843333"><ele>154.000000</ele><time>2010-06-30T09:12:13Z</time></trkpt>
	<trkpt lat="51.97186333" lon="-1.736806667"><ele>154.000000</ele><time>2010-06-30T09:12:18Z</time></trkpt>
	<trkpt lat="51.97190833" lon="-1.736771667"><ele>154.000000</ele><time>2010-06-30T09:12:23Z</time></trkpt>
	<trkpt lat="51.97194333" lon="-1.736741667"><ele>155.000000</ele><time>2010-06-30T09:12:28Z</time></trkpt>
	<trkpt lat="51.97195833" lon="-1.736706667"><ele>156.000000</ele><time>2010-06-30T09:12:33Z</time></trkpt>
	<trkpt lat="51.97195333" lon="-1.736706667"><ele>156.000000</ele><time>2010-06-30T09:12:38Z</time></trkpt>
	<trkpt lat="51.97195" lon="-1.73669"><ele>157.000000</ele><time>2010-06-30T09:12:43Z</time></trkpt>
	<trkpt lat="51.971945" lon="-1.736686667"><ele>157.000000</ele><time>2010-06-30T09:12:48Z</time></trkpt>
	<trkpt lat="51.97194833" lon="-1.736678333"><ele>157.000000</ele><time>2010-06-30T09:12:53Z</time></trkpt>
	<trkpt lat="51.97195333" lon="-1.736663333"><ele>157.000000</ele><time>2010-06-30T09:12:58Z</time></trkpt>
	<trkpt lat="51.97196" lon="-1.736648333"><ele>157.000000</ele><time>2010-06-30T09:13:03Z</time></trkpt>
	<trkpt lat="51.97197333" lon="-1.736621667"><ele>156.000000</ele><time>2010-06-30T09:13:08Z</time></trkpt>
	<trkpt lat="51.97198167" lon="-1.736606667"><ele>155.000000</ele><time>2010-06-30T09:13:13Z</time></trkpt>
	<trkpt lat="51.97199" lon="-1.736588333"><ele>155.000000</ele><time>2010-06-30T09:13:18Z</time></trkpt>
	<trkpt lat="51.97200833" lon="-1.736545"><ele>156.000000</ele><time>2010-06-30T09:13:23Z</time></trkpt>
	<trkpt lat="51.97201" lon="-1.736528333"><ele>157.000000</ele><time>2010-06-30T09:13:28Z</time></trkpt>
	<trkpt lat="51.97202333" lon="-1.736511667"><ele>157.000000</ele><time>2010-06-30T09:13:33Z</time></trkpt>
	<trkpt lat="51.97207333" lon="-1.736465"><ele>156.000000</ele><time>2010-06-30T09:13:38Z</time></trkpt>
	<trkpt lat="51.97211" lon="-1.736421667"><ele>155.000000</ele><time>2010-06-30T09:13:43Z</time></trkpt>
	<trkpt lat="51.97216833" lon="-1.736375"><ele>154.000000</ele><time>2010-06-30T09:13:48Z</time></trkpt>
	<trkpt lat="51.97221333" lon="-1.736341667"><ele>154.000000</ele><time>2010-06-30T09:13:53Z</time></trkpt>
	<trkpt lat="51.97226333" lon="-1.736311667"><ele>154.000000</ele><time>2010-06-30T09:13:58Z</time></trkpt>
	<trkpt lat="51.97231333" lon="-1.736273333"><ele>153.000000</ele><time>2010-06-30T09:14:03Z</time></trkpt>
	<trkpt lat="51.972355" lon="-1.73623"><ele>153.000000</ele><time>2010-06-30T09:14:08Z</time></trkpt>
	<trkpt lat="51.97240167" lon="-1.736193333"><ele>152.000000</ele><time>2010-06-30T09:14:13Z</time></trkpt>
	<trkpt lat="51.97244667" lon="-1.736145"><ele>152.000000</ele><time>2010-06-30T09:14:18Z</time></trkpt>
	<trkpt lat="51.97249" lon="-1.736093333"><ele>152.000000</ele><time>2010-06-30T09:14:23Z</time></trkpt>
	<trkpt lat="51.97253667" lon="-1.736036667"><ele>151.000000</ele><time>2010-06-30T09:14:28Z</time></trkpt>
	<trkpt lat="51.97258667" lon="-1.735988333"><ele>150.000000</ele><time>2010-06-30T09:14:33Z</time></trkpt>
	<trkpt lat="51.97263333" lon="-1.735948333"><ele>150.000000</ele><time>2010-06-30T09:14:38Z</time></trkpt>
	<trkpt lat="51.97268667" lon="-1.735915"><ele>149.000000</ele><time>2010-06-30T09:14:43Z</time></trkpt>
	<trkpt lat="51.972725" lon="-1.735875"><ele>150.000000</ele><time>2010-06-30T09:14:48Z</time></trkpt>
	<trkpt lat="51.972765" lon="-1.735841667"><ele>150.000000</ele><time>2010-06-30T09:14:53Z</time></trkpt>
	<trkpt lat="51.97281167" lon="-1.735806667"><ele>151.000000</ele><time>2010-06-30T09:14:58Z</time></trkpt>
	<trkpt lat="51.97286333" lon="-1.735765"><ele>150.000000</ele><time>2010-06-30T09:15:03Z</time></trkpt>
	<trkpt lat="51.97291167" lon="-1.73572"><ele>150.000000</ele><time>2010-06-30T09:15:08Z</time></trkpt>
	<trkpt lat="51.97296167" lon="-1.735676667"><ele>149.000000</ele><time>2010-06-30T09:15:13Z</time></trkpt>
	<trkpt lat="51.97301" lon="-1.735636667"><ele>148.000000</ele><time>2010-06-30T09:15:18Z</time></trkpt>
	<trkpt lat="51.97305333" lon="-1.735598333"><ele>149.000000</ele><time>2010-06-30T09:15:23Z</time></trkpt>
	<trkpt lat="51.97309667" lon="-1.735558333"><ele>149.000000</ele><time>2010-06-30T09:15:28Z</time></trkpt>
	<trkpt lat="51.97314667" lon="-1.73552"><ele>149.000000</ele><time>2010-06-30T09:15:33Z</time></trkpt>
	<trkpt lat="51.97319" lon="-1.73548"><ele>149.000000</ele><time>2010-06-30T09:15:38Z</time></trkpt>
	<trkpt lat="51.973235" lon="-1.735435"><ele>149.000000</ele><time>2010-06-30T09:15:43Z</time></trkpt>
	<trkpt lat="51.97327667" lon="-1.735393333"><ele>149.000000</ele><time>2010-06-30T09:15:48Z</time></trkpt>
	<trkpt lat="51.97331833" lon="-1.735351667"><ele>149.000000</ele><time>2010-06-30T09:15:53Z</time></trkpt>
	<trkpt lat="51.97337167" lon="-1.735308333"><ele>148.000000</ele><time>2010-06-30T09:15:58Z</time></trkpt>
	<trkpt lat="51.973425" lon="-1.735268333"><ele>147.000000</ele><time>2010-06-30T09:16:03Z</time></trkpt>
	<trkpt lat="51.97346667" lon="-1.735228333"><ele>147.000000</ele><time>2010-06-30T09:16:08Z</time></trkpt>
	<trkpt lat="51.97351167" lon="-1.735191667"><ele>148.000000</ele><time>2010-06-30T09:16:13Z</time></trkpt>
	<trkpt lat="51.97355667" lon="-1.735145"><ele>147.000000</ele><time>2010-06-30T09:16:18Z</time></trkpt>
	<trkpt lat="51.97359833" lon="-1.735101667"><ele>148.000000</ele><time>2010-06-30T09:16:23Z</time></trkpt>
	<trkpt lat="51.97364333" lon="-1.735065"><ele>148.000000</ele><time>2010-06-30T09:16:28Z</time></trkpt>
	<trkpt lat="51.97368833" lon="-1.735023333"><ele>148.000000</ele><time>2010-06-30T09:16:33Z</time></trkpt>
	<trkpt lat="51.97373333" lon="-1.73498"><ele>148.000000</ele><time>2010-06-30T09:16:38Z</time></trkpt>
	<trkpt lat="51.97378167" lon="-1.734933333"><ele>147.000000</ele><time>2010-06-30T09:16:43Z</time></trkpt>
	<trkpt lat="51.97383333" lon="-1.73489"><ele>147.000000</ele><time>2010-06-30T09:16:48Z</time></trkpt>
	<trkpt lat="51.973885" lon="-1.734851667"><ele>146.000000</ele><time>2010-06-30T09:16:53Z</time></trkpt>
	<trkpt lat="51.973935" lon="-1.734816667"><ele>146.000000</ele><time>2010-06-30T09:16:58Z</time></trkpt>
	<trkpt lat="51.97398" lon="-1.734778333"><ele>146.000000</ele><time>2010-06-30T09:17:03Z</time></trkpt>
	<trkpt lat="51.974025" lon="-1.734743333"><ele>146.000000</ele><time>2010-06-30T09:17:08Z</time></trkpt>
	<trkpt lat="51.97407" lon="-1.734705"><ele>145.000000</ele><time>2010-06-30T09:17:13Z</time></trkpt>
	<trkpt lat="51.97411667" lon="-1.734665"><ele>145.000000</ele><time>2010-06-30T09:17:18Z</time></trkpt>
	<trkpt lat="51.97416167" lon="-1.734628333"><ele>145.000000</ele><time>2010-06-30T09:17:23Z</time></trkpt>
	<trkpt lat="51.97420667" lon="-1.734593333"><ele>145.000000</ele><time>2010-06-30T09:17:28Z</time></trkpt>
	<trkpt lat="51.97425167" lon="-1.734558333"><ele>144.000000</ele><time>2010-06-30T09:17:33Z</time></trkpt>
	<trkpt lat="51.97429" lon="-1.734516667"><ele>144.000000</ele><time>2010-06-30T09:17:38Z</time></trkpt>
	<trkpt lat="51.97432833" lon="-1.73447"><ele>144.000000</ele><time>2010-06-30T09:17:43Z</time></trkpt>
	<trkpt lat="51.974355" lon="-1.734408333"><ele>145.000000</ele><time>2010-06-30T09:17:48Z</time></trkpt>
	<trkpt lat="51.97437833" lon="-1.734346667"><ele>145.000000</ele><time>2010-06-30T09:17:53Z</time></trkpt>
	<trkpt lat="51.97439667" lon="-1.734281667"><ele>145.000000</ele><time>2010-06-30T09:17:58Z</time></trkpt>
	<trkpt lat="51.97440167" lon="-1.734223333"><ele>147.000000</ele><time>2010-06-30T09:18:03Z</time></trkpt>
	<trkpt lat="51.97441333" lon="-1.734176667"><ele>147.000000</ele><time>2010-06-30T09:18:08Z</time></trkpt>
	<trkpt lat="51.97443333" lon="-1.734151667"><ele>147.000000</ele><time>2010-06-30T09:18:13Z</time></trkpt>
	<trkpt lat="51.97443167" lon="-1.734143333"><ele>147.000000</ele><time>2010-06-30T09:18:18Z</time></trkpt>
	<trkpt lat="51.97443667" lon="-1.734148333"><ele>148.000000</ele><time>2010-06-30T09:18:23Z</time></trkpt>
	<trkpt lat="51.97442333" lon="-1.734166667"><ele>150.000000</ele><time>2010-06-30T09:18:28Z</time></trkpt>
	<trkpt lat="51.97443667" lon="-1.734163333"><ele>149.000000</ele><time>2010-06-30T09:18:33Z</time></trkpt>
	<trkpt lat="51.974465" lon="-1.734153333"><ele>149.000000</ele><time>2010-06-30T09:18:38Z</time></trkpt>
	<trkpt lat="51.974475" lon="-1.734138333"><ele>149.000000</ele><time>2010-06-30T09:18:43Z</time></trkpt>
	<trkpt lat="51.97447667" lon="-1.734131667"><ele>150.000000</ele><time>2010-06-30T09:18:48Z</time></trkpt>
	<trkpt lat="51.97449333" lon="-1.734121667"><ele>150.000000</ele><time>2010-06-30T09:18:53Z</time></trkpt>
	<trkpt lat="51.9745" lon="-1.73411"><ele>149.000000</ele><time>2010-06-30T09:18:58Z</time></trkpt>
	<trkpt lat="51.97451" lon="-1.734113333"><ele>149.000000</ele><time>2010-06-30T09:19:03Z</time></trkpt>
	<trkpt lat="51.97451333" lon="-1.734103333"><ele>147.000000</ele><time>2010-06-30T09:19:08Z</time></trkpt>
	<trkpt lat="51.97452" lon="-1.734091667"><ele>146.000000</ele><time>2010-06-30T09:19:13Z</time></trkpt>
	<trkpt lat="51.97453667" lon="-1.734078333"><ele>144.000000</ele><time>2010-06-30T09:19:18Z</time></trkpt>
	<trkpt lat="51.97453833" lon="-1.734073333"><ele>144.000000</ele><time>2010-06-30T09:19:23Z</time></trkpt>
	<trkpt lat="51.97454167" lon="-1.734073333"><ele>144.000000</ele><time>2010-06-30T09:19:28Z</time></trkpt>
	<trkpt lat="51.97455667" lon="-1.734063333"><ele>144.000000</ele><time>2010-06-30T09:19:33Z</time></trkpt>
	<trkpt lat="51.97457" lon="-1.734071667"><ele>144.000000</ele><time>2010-06-30T09:19:38Z</time></trkpt>
	<trkpt lat="51.97456" lon="-1.734088333"><ele>144.000000</ele><time>2010-06-30T09:19:43Z</time></trkpt>
	<trkpt lat="51.97455" lon="-1.73408"><ele>147.000000</ele><time>2010-06-30T09:19:48Z</time></trkpt>
	<trkpt lat="51.97453833" lon="-1.734071667"><ele>150.000000</ele><time>2010-06-30T09:19:53Z</time></trkpt>
	<trkpt lat="51.97454833" lon="-1.734066667"><ele>149.000000</ele><time>2010-06-30T09:19:58Z</time></trkpt>
	<trkpt lat="51.97455167" lon="-1.734065"><ele>148.000000</ele><time>2010-06-30T09:20:03Z</time></trkpt>
	<trkpt lat="51.974555" lon="-1.734066667"><ele>148.000000</ele><time>2010-06-30T09:20:08Z</time></trkpt>
	<trkpt lat="51.97456" lon="-1.734066667"><ele>147.000000</ele><time>2010-06-30T09:20:13Z</time></trkpt>
	<trkpt lat="51.97456333" lon="-1.734066667"><ele>147.000000</ele><time>2010-06-30T09:20:18Z</time></trkpt>
	<trkpt lat="51.97456667" lon="-1.734073333"><ele>147.000000</ele><time>2010-06-30T09:20:23Z</time></trkpt>
	<trkpt lat="51.97456833" lon="-1.734071667"><ele>146.000000</ele><time>2010-06-30T09:20:28Z</time></trkpt>
	<trkpt lat="51.97459" lon="-1.734066667"><ele>146.000000</ele><time>2010-06-30T09:20:33Z</time></trkpt>
	<trkpt lat="51.974625" lon="-1.734051667"><ele>147.000000</ele><time>2010-06-30T09:20:38Z</time></trkpt>
	<trkpt lat="51.974665" lon="-1.734035"><ele>147.000000</ele><time>2010-06-30T09:20:43Z</time></trkpt>
	<trkpt lat="51.97470333" lon="-1.734021667"><ele>148.000000</ele><time>2010-06-30T09:20:48Z</time></trkpt>
	<trkpt lat="51.97474667" lon="-1.73401"><ele>148.000000</ele><time>2010-06-30T09:20:53Z</time></trkpt>
	<trkpt lat="51.974795" lon="-1.734"><ele>148.000000</ele><time>2010-06-30T09:20:58Z</time></trkpt>
	<trkpt lat="51.97484167" lon="-1.733985"><ele>148.000000</ele><time>2010-06-30T09:21:03Z</time></trkpt>
	<trkpt lat="51.97489" lon="-1.733966667"><ele>148.000000</ele><time>2010-06-30T09:21:08Z</time></trkpt>
	<trkpt lat="51.97493833" lon="-1.733951667"><ele>148.000000</ele><time>2010-06-30T09:21:13Z</time></trkpt>
	<trkpt lat="51.97498333" lon="-1.733938333"><ele>147.000000</ele><time>2010-06-30T09:21:18Z</time></trkpt>
	<trkpt lat="51.97503" lon="-1.73392"><ele>147.000000</ele><time>2010-06-30T09:21:23Z</time></trkpt>
	<trkpt lat="51.975075" lon="-1.73391"><ele>147.000000</ele><time>2010-06-30T09:21:28Z</time></trkpt>
	<trkpt lat="51.97512" lon="-1.7339"><ele>147.000000</ele><time>2010-06-30T09:21:33Z</time></trkpt>
	<trkpt lat="51.97516" lon="-1.733885"><ele>147.000000</ele><time>2010-06-30T09:21:38Z</time></trkpt>
	<trkpt lat="51.975205" lon="-1.73387"><ele>147.000000</ele><time>2010-06-30T09:21:43Z</time></trkpt>
	<trkpt lat="51.975245" lon="-1.73385"><ele>147.000000</ele><time>2010-06-30T09:21:48Z</time></trkpt>
	<trkpt lat="51.97528833" lon="-1.733838333"><ele>147.000000</ele><time>2010-06-30T09:21:53Z</time></trkpt>
	<trkpt lat="51.97533" lon="-1.733823333"><ele>147.000000</ele><time>2010-06-30T09:21:58Z</time></trkpt>
	<trkpt lat="51.97537167" lon="-1.733813333"><ele>147.000000</ele><time>2010-06-30T09:22:03Z</time></trkpt>
	<trkpt lat="51.97541667" lon="-1.733801667"><ele>147.000000</ele><time>2010-06-30T09:22:08Z</time></trkpt>
	<trkpt lat="51.97545667" lon="-1.733795"><ele>147.000000</ele><time>2010-06-30T09:22:13Z</time></trkpt>
	<trkpt lat="51.97548333" lon="-1.733781667"><ele>147.000000</ele><time>2010-06-30T09:22:18Z</time></trkpt>
	<trkpt lat="51.975495" lon="-1.733768333"><ele>147.000000</ele><time>2010-06-30T09:22:23Z</time></trkpt>
	<trkpt lat="51.97551667" lon="-1.733765"><ele>147.000000</ele><time>2010-06-30T09:22:28Z</time></trkpt>
	<trkpt lat="51.97552167" lon="-1.733751667"><ele>147.000000</ele><time>2010-06-30T09:22:33Z</time></trkpt>
	<trkpt lat="51.97556167" lon="-1.73375"><ele>147.000000</ele><time>2010-06-30T09:22:38Z</time></trkpt>
	<trkpt lat="51.97561167" lon="-1.733741667"><ele>146.000000</ele><time>2010-06-30T09:22:43Z</time></trkpt>
	<trkpt lat="51.97565667" lon="-1.733743333"><ele>147.000000</ele><time>2010-06-30T09:22:48Z</time></trkpt>
	<trkpt lat="51.97570167" lon="-1.73374"><ele>147.000000</ele><time>2010-06-30T09:22:53Z</time></trkpt>
	<trkpt lat="51.97574667" lon="-1.733736667"><ele>147.000000</ele><time>2010-06-30T09:22:58Z</time></trkpt>
	<trkpt lat="51.975795" lon="-1.733733333"><ele>147.000000</ele><time>2010-06-30T09:23:03Z</time></trkpt>
	<trkpt lat="51.97584" lon="-1.733725"><ele>148.000000</ele><time>2010-06-30T09:23:08Z</time></trkpt>
	<trkpt lat="51.97588667" lon="-1.733725"><ele>148.000000</ele><time>2010-06-30T09:23:13Z</time></trkpt>
	<trkpt lat="51.975935" lon="-1.733725"><ele>148.000000</ele><time>2010-06-30T09:23:18Z</time></trkpt>
	<trkpt lat="51.975985" lon="-1.733723333"><ele>148.000000</ele><time>2010-06-30T09:23:23Z</time></trkpt>
	<trkpt lat="51.97603333" lon="-1.733721667"><ele>148.000000</ele><time>2010-06-30T09:23:28Z</time></trkpt>
	<trkpt lat="51.97608167" lon="-1.733716667"><ele>149.000000</ele><time>2010-06-30T09:23:33Z</time></trkpt>
	<trkpt lat="51.97612667" lon="-1.73371"><ele>149.000000</ele><time>2010-06-30T09:23:38Z</time></trkpt>
	<trkpt lat="51.97616833" lon="-1.73371"><ele>149.000000</ele><time>2010-06-30T09:23:43Z</time></trkpt>
	<trkpt lat="51.97621167" lon="-1.733705"><ele>149.000000</ele><time>2010-06-30T09:23:48Z</time></trkpt>
	<trkpt lat="51.97625333" lon="-1.733693333"><ele>149.000000</ele><time>2010-06-30T09:23:53Z</time></trkpt>
	<trkpt lat="51.97629667" lon="-1.733691667"><ele>150.000000</ele><time>2010-06-30T09:23:58Z</time></trkpt>
	<trkpt lat="51.97634167" lon="-1.733686667"><ele>150.000000</ele><time>2010-06-30T09:24:03Z</time></trkpt>
	<trkpt lat="51.97638333" lon="-1.733681667"><ele>150.000000</ele><time>2010-06-30T09:24:08Z</time></trkpt>
	<trkpt lat="51.976425" lon="-1.733678333"><ele>150.000000</ele><time>2010-06-30T09:24:13Z</time></trkpt>
	<trkpt lat="51.97647" lon="-1.733666667"><ele>150.000000</ele><time>2010-06-30T09:24:18Z</time></trkpt>
	<trkpt lat="51.97651167" lon="-1.73366"><ele>150.000000</ele><time>2010-06-30T09:24:23Z</time></trkpt>
	<trkpt lat="51.976555" lon="-1.733653333"><ele>150.000000</ele><time>2010-06-30T09:24:28Z</time></trkpt>
	<trkpt lat="51.97659833" lon="-1.733648333"><ele>150.000000</ele><time>2010-06-30T09:24:33Z</time></trkpt>
	<trkpt lat="51.97664167" lon="-1.73364"><ele>150.000000</ele><time>2010-06-30T09:24:38Z</time></trkpt>
	<trkpt lat="51.97668833" lon="-1.733636667"><ele>151.000000</ele><time>2010-06-30T09:24:43Z</time></trkpt>
	<trkpt lat="51.97673167" lon="-1.73363"><ele>151.000000</ele><time>2010-06-30T09:24:48Z</time></trkpt>
	<trkpt lat="51.97677667" lon="-1.733621667"><ele>151.000000</ele><time>2010-06-30T09:24:53Z</time></trkpt>
	<trkpt lat="51.97682333" lon="-1.733618333"><ele>151.000000</ele><time>2010-06-30T09:24:58Z</time></trkpt>
	<trkpt lat="51.97686667" lon="-1.733616667"><ele>151.000000</ele><time>2010-06-30T09:25:03Z</time></trkpt>
	<trkpt lat="51.97690667" lon="-1.73361"><ele>152.000000</ele><time>2010-06-30T09:25:08Z</time></trkpt>
	<trkpt lat="51.97694833" lon="-1.733596667"><ele>152.000000</ele><time>2010-06-30T09:25:13Z</time></trkpt>
	<trkpt lat="51.97699333" lon="-1.733596667"><ele>152.000000</ele><time>2010-06-30T09:25:18Z</time></trkpt>
	<trkpt lat="51.97703833" lon="-1.7336"><ele>152.000000</ele><time>2010-06-30T09:25:23Z</time></trkpt>
	<trkpt lat="51.97708167" lon="-1.733596667"><ele>152.000000</ele><time>2010-06-30T09:25:28Z</time></trkpt>
	<trkpt lat="51.97712167" lon="-1.733585"><ele>152.000000</ele><time>2010-06-30T09:25:33Z</time></trkpt>
	<trkpt lat="51.97716" lon="-1.733551667"><ele>153.000000</ele><time>2010-06-30T09:25:38Z</time></trkpt>
	<trkpt lat="51.97719667" lon="-1.733508333"><ele>152.000000</ele><time>2010-06-30T09:25:43Z</time></trkpt>
	<trkpt lat="51.97722833" lon="-1.733466667"><ele>152.000000</ele><time>2010-06-30T09:25:48Z</time></trkpt>
	<trkpt lat="51.97725" lon="-1.733411667"><ele>153.000000</ele><time>2010-06-30T09:25:53Z</time></trkpt>
	<trkpt lat="51.97727667" lon="-1.733361667"><ele>152.000000</ele><time>2010-06-30T09:25:58Z</time></trkpt>
	<trkpt lat="51.9773" lon="-1.733313333"><ele>153.000000</ele><time>2010-06-30T09:26:03Z</time></trkpt>
	<trkpt lat="51.97730333" lon="-1.733278333"><ele>153.000000</ele><time>2010-06-30T09:26:08Z</time></trkpt>
	<trkpt lat="51.9773" lon="-1.733215"><ele>153.000000</ele><time>2010-06-30T09:26:13Z</time></trkpt>
	<trkpt lat="51.97729833" lon="-1.733183333"><ele>152.000000</ele><time>2010-06-30T09:26:18Z</time></trkpt>
	<trkpt lat="51.97728667" lon="-1.733143333"><ele>152.000000</ele><time>2010-06-30T09:26:23Z</time></trkpt>
	<trkpt lat="51.97727333" lon="-1.733106667"><ele>153.000000</ele><time>2010-06-30T09:26:28Z</time></trkpt>
	<trkpt lat="51.977255" lon="-1.73304"><ele>153.000000</ele><time>2010-06-30T09:26:33Z</time></trkpt>
	<trkpt lat="51.97724667" lon="-1.733025"><ele>153.000000</ele><time>2010-06-30T09:26:38Z</time></trkpt>
	<trkpt lat="51.97723167" lon="-1.732963333"><ele>153.000000</ele><time>2010-06-30T09:26:43Z</time></trkpt>
	<trkpt lat="51.97722333" lon="-1.73289"><ele>154.000000</ele><time>2010-06-30T09:26:48Z</time></trkpt>
	<trkpt lat="51.97721667" lon="-1.732808333"><ele>153.000000</ele><time>2010-06-30T09:26:53Z</time></trkpt>
	<trkpt lat="51.97721167" lon="-1.732728333"><ele>153.000000</ele><time>2010-06-30T09:26:58Z</time></trkpt>
	<trkpt lat="51.97720833" lon="-1.732648333"><ele>153.000000</ele><time>2010-06-30T09:27:03Z</time></trkpt>
	<trkpt lat="51.977205" lon="-1.732571667"><ele>154.000000</ele><time>2010-06-30T09:27:08Z</time></trkpt>
	<trkpt lat="51.977205" lon="-1.732506667"><ele>154.000000</ele><time>2010-06-30T09:27:13Z</time></trkpt>
	<trkpt lat="51.977205" lon="-1.732435"><ele>155.000000</ele><time>2010-06-30T09:27:18Z</time></trkpt>
	<trkpt lat="51.97720667" lon="-1.732358333"><ele>155.000000</ele><time>2010-06-30T09:27:23Z</time></trkpt>
	<trkpt lat="51.97721" lon="-1.732288333"><ele>156.000000</ele><time>2010-06-30T09:27:28Z</time></trkpt>
	<trkpt lat="51.977235" lon="-1.732221667"><ele>155.000000</ele><time>2010-06-30T09:27:33Z</time></trkpt>
	<trkpt lat="51.97728667" lon="-1.732193333"><ele>155.000000</ele><time>2010-06-30T09:27:38Z</time></trkpt>
	<trkpt lat="51.97732833" lon="-1.732176667"><ele>157.000000</ele><time>2010-06-30T09:27:43Z</time></trkpt>
	<trkpt lat="51.977375" lon="-1.732186667"><ele>157.000000</ele><time>2010-06-30T09:27:48Z</time></trkpt>
	<trkpt lat="51.97741333" lon="-1.732201667"><ele>157.000000</ele><time>2010-06-30T09:27:53Z</time></trkpt>
	<trkpt lat="51.977455" lon="-1.732211667"><ele>158.000000</ele><time>2010-06-30T09:27:58Z</time></trkpt>
	<trkpt lat="51.9775" lon="-1.732221667"><ele>158.000000</ele><time>2010-06-30T09:28:03Z</time></trkpt>
	<trkpt lat="51.97754667" lon="-1.732233333"><ele>157.000000</ele><time>2010-06-30T09:28:08Z</time></trkpt>
	<trkpt lat="51.97759667" lon="-1.732251667"><ele>157.000000</ele><time>2010-06-30T09:28:13Z</time></trkpt>
	<trkpt lat="51.97764667" lon="-1.73226"><ele>156.000000</ele><time>2010-06-30T09:28:18Z</time></trkpt>
	<trkpt lat="51.977695" lon="-1.732268333"><ele>156.000000</ele><time>2010-06-30T09:28:23Z</time></trkpt>
	<trkpt lat="51.97774167" lon="-1.732278333"><ele>156.000000</ele><time>2010-06-30T09:28:28Z</time></trkpt>
	<trkpt lat="51.97779" lon="-1.732293333"><ele>155.000000</ele><time>2010-06-30T09:28:33Z</time></trkpt>
	<trkpt lat="51.97784" lon="-1.732298333"><ele>155.000000</ele><time>2010-06-30T09:28:38Z</time></trkpt>
	<trkpt lat="51.97788667" lon="-1.732303333"><ele>155.000000</ele><time>2010-06-30T09:28:43Z</time></trkpt>
	<trkpt lat="51.97793333" lon="-1.732315"><ele>154.000000</ele><time>2010-06-30T09:28:48Z</time></trkpt>
	<trkpt lat="51.97797833" lon="-1.73232"><ele>154.000000</ele><time>2010-06-30T09:28:53Z</time></trkpt>
	<trkpt lat="51.97802333" lon="-1.732323333"><ele>155.000000</ele><time>2010-06-30T09:28:58Z</time></trkpt>
	<trkpt lat="51.97807333" lon="-1.732325"><ele>155.000000</ele><time>2010-06-30T09:29:03Z</time></trkpt>
	<trkpt lat="51.97812" lon="-1.732326667"><ele>155.000000</ele><time>2010-06-30T09:29:08Z</time></trkpt>
	<trkpt lat="51.97817167" lon="-1.732335"><ele>155.000000</ele><time>2010-06-30T09:29:13Z</time></trkpt>
	<trkpt lat="51.97822167" lon="-1.732326667"><ele>155.000000</ele><time>2010-06-30T09:29:18Z</time></trkpt>
	<trkpt lat="51.97827333" lon="-1.732326667"><ele>155.000000</ele><time>2010-06-30T09:29:23Z</time></trkpt>
	<trkpt lat="51.97832667" lon="-1.732331667"><ele>155.000000</ele><time>2010-06-30T09:29:28Z</time></trkpt>
	<trkpt lat="51.97838167" lon="-1.73234"><ele>154.000000</ele><time>2010-06-30T09:29:33Z</time></trkpt>
	<trkpt lat="51.978435" lon="-1.73235"><ele>154.000000</ele><time>2010-06-30T09:29:38Z</time></trkpt>
	<trkpt lat="51.97848667" lon="-1.732351667"><ele>154.000000</ele><time>2010-06-30T09:29:43Z</time></trkpt>
	<trkpt lat="51.97853667" lon="-1.732355"><ele>154.000000</ele><time>2010-06-30T09:29:48Z</time></trkpt>
	<trkpt lat="51.97859" lon="-1.73237"><ele>153.000000</ele><time>2010-06-30T09:29:53Z</time></trkpt>
	<trkpt lat="51.978645" lon="-1.732381667"><ele>153.000000</ele><time>2010-06-30T09:29:58Z</time></trkpt>
	<trkpt lat="51.97869667" lon="-1.73238"><ele>153.000000</ele><time>2010-06-30T09:30:03Z</time></trkpt>
	<trkpt lat="51.97875333" lon="-1.732393333"><ele>152.000000</ele><time>2010-06-30T09:30:08Z</time></trkpt>
	<trkpt lat="51.97880667" lon="-1.732398333"><ele>152.000000</ele><time>2010-06-30T09:30:13Z</time></trkpt>
	<trkpt lat="51.97885833" lon="-1.732401667"><ele>152.000000</ele><time>2010-06-30T09:30:18Z</time></trkpt>
	<trkpt lat="51.97891333" lon="-1.73241"><ele>152.000000</ele><time>2010-06-30T09:30:23Z</time></trkpt>
	<trkpt lat="51.978965" lon="-1.732426667"><ele>151.000000</ele><time>2010-06-30T09:30:28Z</time></trkpt>
	<trkpt lat="51.97901167" lon="-1.73244"><ele>150.000000</ele><time>2010-06-30T09:30:33Z</time></trkpt>
	<trkpt lat="51.97906167" lon="-1.732421667"><ele>151.000000</ele><time>2010-06-30T09:30:38Z</time></trkpt>
	<trkpt lat="51.97911667" lon="-1.732408333"><ele>152.000000</ele><time>2010-06-30T09:30:43Z</time></trkpt>
	<trkpt lat="51.97917333" lon="-1.7324"><ele>153.000000</ele><time>2010-06-30T09:30:48Z</time></trkpt>
	<trkpt lat="51.979225" lon="-1.732386667"><ele>154.000000</ele><time>2010-06-30T09:30:53Z</time></trkpt>
	<trkpt lat="51.97928167" lon="-1.732388333"><ele>154.000000</ele><time>2010-06-30T09:30:58Z</time></trkpt>
	<trkpt lat="51.97933833" lon="-1.732395"><ele>153.000000</ele><time>2010-06-30T09:31:03Z</time></trkpt>
	<trkpt lat="51.979385" lon="-1.732388333"><ele>153.000000</ele><time>2010-06-30T09:31:08Z</time></trkpt>
	<trkpt lat="51.97939333" lon="-1.732386667"><ele>152.000000</ele><time>2010-06-30T09:31:13Z</time></trkpt>
	<trkpt lat="51.97939333" lon="-1.73239"><ele>151.000000</ele><time>2010-06-30T09:31:18Z</time></trkpt>
	<trkpt lat="51.97939833" lon="-1.732398333"><ele>150.000000</ele><time>2010-06-30T09:31:23Z</time></trkpt>
	<trkpt lat="51.97942833" lon="-1.732396667"><ele>150.000000</ele><time>2010-06-30T09:31:28Z</time></trkpt>
	<trkpt lat="51.97946833" lon="-1.73239"><ele>150.000000</ele><time>2010-06-30T09:31:33Z</time></trkpt>
	<trkpt lat="51.97951333" lon="-1.73238"><ele>150.000000</ele><time>2010-06-30T09:31:38Z</time></trkpt>
	<trkpt lat="51.97956167" lon="-1.732368333"><ele>150.000000</ele><time>2010-06-30T09:31:43Z</time></trkpt>
	<trkpt lat="51.979615" lon="-1.732353333"><ele>150.000000</ele><time>2010-06-30T09:31:48Z</time></trkpt>
	<trkpt lat="51.97966667" lon="-1.73234"><ele>150.000000</ele><time>2010-06-30T09:31:53Z</time></trkpt>
	<trkpt lat="51.97971833" lon="-1.732325"><ele>150.000000</ele><time>2010-06-30T09:31:58Z</time></trkpt>
	<trkpt lat="51.97977167" lon="-1.73231"><ele>150.000000</ele><time>2010-06-30T09:32:03Z</time></trkpt>
	<trkpt lat="51.97982" lon="-1.732293333"><ele>150.000000</ele><time>2010-06-30T09:32:08Z</time></trkpt>
	<trkpt lat="51.97987167" lon="-1.732278333"><ele>149.000000</ele><time>2010-06-30T09:32:13Z</time></trkpt>
	<trkpt lat="51.97992333" lon="-1.732258333"><ele>149.000000</ele><time>2010-06-30T09:32:18Z</time></trkpt>
	<trkpt lat="51.97997667" lon="-1.732241667"><ele>149.000000</ele><time>2010-06-30T09:32:23Z</time></trkpt>
	<trkpt lat="51.98002833" lon="-1.732226667"><ele>149.000000</ele><time>2010-06-30T09:32:28Z</time></trkpt>
	<trkpt lat="51.98008167" lon="-1.73221"><ele>149.000000</ele><time>2010-06-30T09:32:33Z</time></trkpt>
	<trkpt lat="51.98013833" lon="-1.73219"><ele>148.000000</ele><time>2010-06-30T09:32:38Z</time></trkpt>
	<trkpt lat="51.98018833" lon="-1.732173333"><ele>148.000000</ele><time>2010-06-30T09:32:43Z</time></trkpt>
	<trkpt lat="51.98024167" lon="-1.732158333"><ele>148.000000</ele><time>2010-06-30T09:32:48Z</time></trkpt>
	<trkpt lat="51.98029833" lon="-1.732141667"><ele>148.000000</ele><time>2010-06-30T09:32:53Z</time></trkpt>
	<trkpt lat="51.98035667" lon="-1.732125"><ele>147.000000</ele><time>2010-06-30T09:32:58Z</time></trkpt>
	<trkpt lat="51.98041333" lon="-1.732108333"><ele>147.000000</ele><time>2010-06-30T09:33:03Z</time></trkpt>
	<trkpt lat="51.98046667" lon="-1.732095"><ele>147.000000</ele><time>2010-06-30T09:33:08Z</time></trkpt>
	<trkpt lat="51.98052167" lon="-1.732083333"><ele>147.000000</ele><time>2010-06-30T09:33:13Z</time></trkpt>
	<trkpt lat="51.980575" lon="-1.73207"><ele>147.000000</ele><time>2010-06-30T09:33:18Z</time></trkpt>
	<trkpt lat="51.98062667" lon="-1.732063333"><ele>147.000000</ele><time>2010-06-30T09:33:23Z</time></trkpt>
	<trkpt lat="51.98067667" lon="-1.732058333"><ele>147.000000</ele><time>2010-06-30T09:33:28Z</time></trkpt>
	<trkpt lat="51.98072667" lon="-1.732053333"><ele>147.000000</ele><time>2010-06-30T09:33:33Z</time></trkpt>
	<trkpt lat="51.98077667" lon="-1.732053333"><ele>147.000000</ele><time>2010-06-30T09:33:38Z</time></trkpt>
	<trkpt lat="51.98081833" lon="-1.732063333"><ele>147.000000</ele><time>2010-06-30T09:33:43Z</time></trkpt>
	<trkpt lat="51.980845" lon="-1.732061667"><ele>146.000000</ele><time>2010-06-30T09:33:48Z</time></trkpt>
	<trkpt lat="51.980855" lon="-1.732063333"><ele>145.000000</ele><time>2010-06-30T09:33:53Z</time></trkpt>
	<trkpt lat="51.98085333" lon="-1.732036667"><ele>147.000000</ele><time>2010-06-30T09:33:58Z</time></trkpt>
	<trkpt lat="51.98085333" lon="-1.732025"><ele>148.000000</ele><time>2010-06-30T09:34:03Z</time></trkpt>
	<trkpt lat="51.98086167" lon="-1.732026667"><ele>148.000000</ele><time>2010-06-30T09:34:08Z</time></trkpt>
	<trkpt lat="51.98086667" lon="-1.732031667"><ele>148.000000</ele><time>2010-06-30T09:34:13Z</time></trkpt>
	<trkpt lat="51.98087" lon="-1.73204"><ele>147.000000</ele><time>2010-06-30T09:34:18Z</time></trkpt>
	<trkpt lat="51.98087333" lon="-1.732046667"><ele>146.000000</ele><time>2010-06-30T09:34:23Z</time></trkpt>
	<trkpt lat="51.980875" lon="-1.732043333"><ele>147.000000</ele><time>2010-06-30T09:34:28Z</time></trkpt>
	<trkpt lat="51.98087" lon="-1.732008333"><ele>152.000000</ele><time>2010-06-30T09:34:33Z</time></trkpt>
	<trkpt lat="51.98087333" lon="-1.732018333"><ele>151.000000</ele><time>2010-06-30T09:34:38Z</time></trkpt>
	<trkpt lat="51.98087667" lon="-1.732018333"><ele>151.000000</ele><time>2010-06-30T09:34:43Z</time></trkpt>
	<trkpt lat="51.98086167" lon="-1.73198"><ele>154.000000</ele><time>2010-06-30T09:34:48Z</time></trkpt>
	<trkpt lat="51.98085333" lon="-1.731961667"><ele>155.000000</ele><time>2010-06-30T09:34:53Z</time></trkpt>
	<trkpt lat="51.98086" lon="-1.731983333"><ele>153.000000</ele><time>2010-06-30T09:34:58Z</time></trkpt>
	<trkpt lat="51.98086667" lon="-1.732005"><ele>152.000000</ele><time>2010-06-30T09:35:03Z</time></trkpt>
	<trkpt lat="51.98087333" lon="-1.732023333"><ele>150.000000</ele><time>2010-06-30T09:35:08Z</time></trkpt>
	<trkpt lat="51.98087667" lon="-1.732033333"><ele>148.000000</ele><time>2010-06-30T09:35:13Z</time></trkpt>
	<trkpt lat="51.98087667" lon="-1.732043333"><ele>146.000000</ele><time>2010-06-30T09:35:18Z</time></trkpt>
	<trkpt lat="51.98087667" lon="-1.732055"><ele>144.000000</ele><time>2010-06-30T09:35:23Z</time></trkpt>
	<trkpt lat="51.980875" lon="-1.732063333"><ele>143.000000</ele><time>2010-06-30T09:35:28Z</time></trkpt>
	<trkpt lat="51.980875" lon="-1.732075"><ele>142.000000</ele><time>2010-06-30T09:35:33Z</time></trkpt>
	<trkpt lat="51.98087333" lon="-1.732078333"><ele>141.000000</ele><time>2010-06-30T09:35:38Z</time></trkpt>
	<trkpt lat="51.98087" lon="-1.732078333"><ele>141.000000</ele><time>2010-06-30T09:35:43Z</time></trkpt>
	<trkpt lat="51.98087" lon="-1.732078333"><ele>141.000000</ele><time>2010-06-30T09:35:48Z</time></trkpt>
	<trkpt lat="51.98087833" lon="-1.732083333"><ele>141.000000</ele><time>2010-06-30T09:35:53Z</time></trkpt>
	<trkpt lat="51.9809" lon="-1.732101667"><ele>141.000000</ele><time>2010-06-30T09:35:58Z</time></trkpt>
	<trkpt lat="51.9809" lon="-1.732115"><ele>140.000000</ele><time>2010-06-30T09:36:03Z</time></trkpt>
	<trkpt lat="51.980885" lon="-1.732108333"><ele>141.000000</ele><time>2010-06-30T09:36:08Z</time></trkpt>
	<trkpt lat="51.98084667" lon="-1.732126667"><ele>143.000000</ele><time>2010-06-30T09:36:13Z</time></trkpt>
	<trkpt lat="51.980825" lon="-1.732126667"><ele>145.000000</ele><time>2010-06-30T09:36:18Z</time></trkpt>
	<trkpt lat="51.980855" lon="-1.73211"><ele>147.000000</ele><time>2010-06-30T09:36:23Z</time></trkpt>
	<trkpt lat="51.98088333" lon="-1.732123333"><ele>149.000000</ele><time>2010-06-30T09:36:28Z</time></trkpt>
	<trkpt lat="51.98090833" lon="-1.732151667"><ele>149.000000</ele><time>2010-06-30T09:36:33Z</time></trkpt>
	<trkpt lat="51.98092333" lon="-1.732158333"><ele>148.000000</ele><time>2010-06-30T09:36:38Z</time></trkpt>
	<trkpt lat="51.980955" lon="-1.732193333"><ele>148.000000</ele><time>2010-06-30T09:36:43Z</time></trkpt>
	<trkpt lat="51.98096" lon="-1.732255"><ele>147.000000</ele><time>2010-06-30T09:36:48Z</time></trkpt>
	<trkpt lat="51.98095833" lon="-1.73233"><ele>146.000000</ele><time>2010-06-30T09:36:53Z</time></trkpt>
	<trkpt lat="51.980955" lon="-1.732416667"><ele>145.000000</ele><time>2010-06-30T09:36:58Z</time></trkpt>
	<trkpt lat="51.98096333" lon="-1.732498333"><ele>145.000000</ele><time>2010-06-30T09:37:03Z</time></trkpt>
	<trkpt lat="51.98096333" lon="-1.732573333"><ele>145.000000</ele><time>2010-06-30T09:37:08Z</time></trkpt>
	<trkpt lat="51.98096333" lon="-1.732645"><ele>145.000000</ele><time>2010-06-30T09:37:13Z</time></trkpt>
	<trkpt lat="51.98097" lon="-1.732716667"><ele>146.000000</ele><time>2010-06-30T09:37:18Z</time></trkpt>
	<trkpt lat="51.98096833" lon="-1.732795"><ele>145.000000</ele><time>2010-06-30T09:37:23Z</time></trkpt>
	<trkpt lat="51.98097" lon="-1.732863333"><ele>146.000000</ele><time>2010-06-30T09:37:28Z</time></trkpt>
	<trkpt lat="51.98097" lon="-1.73294"><ele>146.000000</ele><time>2010-06-30T09:37:33Z</time></trkpt>
	<trkpt lat="51.98097833" lon="-1.733021667"><ele>146.000000</ele><time>2010-06-30T09:37:38Z</time></trkpt>
	<trkpt lat="51.98098167" lon="-1.733096667"><ele>147.000000</ele><time>2010-06-30T09:37:43Z</time></trkpt>
	<trkpt lat="51.980985" lon="-1.733175"><ele>147.000000</ele><time>2010-06-30T09:37:48Z</time></trkpt>
	<trkpt lat="51.98098667" lon="-1.733261667"><ele>146.000000</ele><time>2010-06-30T09:37:53Z</time></trkpt>
	<trkpt lat="51.98099333" lon="-1.733346667"><ele>148.000000</ele><time>2010-06-30T09:37:58Z</time></trkpt>
	<trkpt lat="51.981" lon="-1.73343"><ele>148.000000</ele><time>2010-06-30T09:38:03Z</time></trkpt>
	<trkpt lat="51.981005" lon="-1.73351"><ele>148.000000</ele><time>2010-06-30T09:38:08Z</time></trkpt>
	<trkpt lat="51.98100833" lon="-1.733586667"><ele>148.000000</ele><time>2010-06-30T09:38:13Z</time></trkpt>
	<trkpt lat="51.98101167" lon="-1.733665"><ele>148.000000</ele><time>2010-06-30T09:38:18Z</time></trkpt>
	<trkpt lat="51.98102" lon="-1.733746667"><ele>148.000000</ele><time>2010-06-30T09:38:23Z</time></trkpt>
	<trkpt lat="51.98102833" lon="-1.733828333"><ele>148.000000</ele><time>2010-06-30T09:38:28Z</time></trkpt>
	<trkpt lat="51.981035" lon="-1.733908333"><ele>148.000000</ele><time>2010-06-30T09:38:33Z</time></trkpt>
	<trkpt lat="51.98104667" lon="-1.733981667"><ele>148.000000</ele><time>2010-06-30T09:38:38Z</time></trkpt>
	<trkpt lat="51.98105667" lon="-1.73406"><ele>148.000000</ele><time>2010-06-30T09:38:43Z</time></trkpt>
	<trkpt lat="51.98107167" lon="-1.734138333"><ele>148.000000</ele><time>2010-06-30T09:38:48Z</time></trkpt>
	<trkpt lat="51.98108" lon="-1.734221667"><ele>147.000000</ele><time>2010-06-30T09:38:53Z</time></trkpt>
	<trkpt lat="51.981095" lon="-1.7343"><ele>148.000000</ele><time>2010-06-30T09:38:58Z</time></trkpt>
	<trkpt lat="51.98111" lon="-1.734376667"><ele>148.000000</ele><time>2010-06-30T09:39:03Z</time></trkpt>
	<trkpt lat="51.98112333" lon="-1.734455"><ele>148.000000</ele><time>2010-06-30T09:39:08Z</time></trkpt>
	<trkpt lat="51.98113667" lon="-1.734531667"><ele>148.000000</ele><time>2010-06-30T09:39:13Z</time></trkpt>
	<trkpt lat="51.98114667" lon="-1.734608333"><ele>148.000000</ele><time>2010-06-30T09:39:18Z</time></trkpt>
	<trkpt lat="51.98115833" lon="-1.734681667"><ele>148.000000</ele><time>2010-06-30T09:39:23Z</time></trkpt>
	<trkpt lat="51.98116667" lon="-1.73476"><ele>148.000000</ele><time>2010-06-30T09:39:28Z</time></trkpt>
	<trkpt lat="51.98117667" lon="-1.734835"><ele>148.000000</ele><time>2010-06-30T09:39:33Z</time></trkpt>
	<trkpt lat="51.98118333" lon="-1.734916667"><ele>148.000000</ele><time>2010-06-30T09:39:38Z</time></trkpt>
	<trkpt lat="51.981185" lon="-1.734995"><ele>147.000000</ele><time>2010-06-30T09:39:43Z</time></trkpt>
	<trkpt lat="51.98119" lon="-1.735076667"><ele>147.000000</ele><time>2010-06-30T09:39:48Z</time></trkpt>
	<trkpt lat="51.9812" lon="-1.735156667"><ele>147.000000</ele><time>2010-06-30T09:39:53Z</time></trkpt>
	<trkpt lat="51.98120667" lon="-1.735233333"><ele>147.000000</ele><time>2010-06-30T09:39:58Z</time></trkpt>
	<trkpt lat="51.98121167" lon="-1.735311667"><ele>147.000000</ele><time>2010-06-30T09:40:03Z</time></trkpt>
	<trkpt lat="51.98122" lon="-1.73539"><ele>147.000000</ele><time>2010-06-30T09:40:08Z</time></trkpt>
	<trkpt lat="51.98123" lon="-1.73546"><ele>147.000000</ele><time>2010-06-30T09:40:13Z</time></trkpt>
	<trkpt lat="51.98125167" lon="-1.735523333"><ele>148.000000</ele><time>2010-06-30T09:40:18Z</time></trkpt>
	<trkpt lat="51.98127167" lon="-1.735583333"><ele>149.000000</ele><time>2010-06-30T09:40:23Z</time></trkpt>
	<trkpt lat="51.98129" lon="-1.735645"><ele>150.000000</ele><time>2010-06-30T09:40:28Z</time></trkpt>
	<trkpt lat="51.981315" lon="-1.735698333"><ele>151.000000</ele><time>2010-06-30T09:40:33Z</time></trkpt>
	<trkpt lat="51.98132667" lon="-1.735736667"><ele>152.000000</ele><time>2010-06-30T09:40:38Z</time></trkpt>
	<trkpt lat="51.98132667" lon="-1.735765"><ele>152.000000</ele><time>2010-06-30T09:40:43Z</time></trkpt>
	<trkpt lat="51.98133167" lon="-1.735811667"><ele>152.000000</ele><time>2010-06-30T09:40:48Z</time></trkpt>
	<trkpt lat="51.98133" lon="-1.735815"><ele>150.000000</ele><time>2010-06-30T09:40:53Z</time></trkpt>
	<trkpt lat="51.98133333" lon="-1.735818333"><ele>150.000000</ele><time>2010-06-30T09:40:58Z</time></trkpt>
	<trkpt lat="51.98133" lon="-1.735833333"><ele>151.000000</ele><time>2010-06-30T09:41:03Z</time></trkpt>
	<trkpt lat="51.98133333" lon="-1.735825"><ele>152.000000</ele><time>2010-06-30T09:41:08Z</time></trkpt>
	<trkpt lat="51.98133833" lon="-1.735841667"><ele>153.000000</ele><time>2010-06-30T09:41:13Z</time></trkpt>
	<trkpt lat="51.98134667" lon="-1.735868333"><ele>153.000000</ele><time>2010-06-30T09:41:18Z</time></trkpt>
	<trkpt lat="51.981345" lon="-1.735878333"><ele>153.000000</ele><time>2010-06-30T09:41:23Z</time></trkpt>
	<trkpt lat="51.98137" lon="-1.735908333"><ele>154.000000</ele><time>2010-06-30T09:41:28Z</time></trkpt>
	<trkpt lat="51.98141" lon="-1.735943333"><ele>155.000000</ele><time>2010-06-30T09:41:33Z</time></trkpt>
	<trkpt lat="51.98144" lon="-1.735946667"><ele>156.000000</ele><time>2010-06-30T09:41:38Z</time></trkpt>
	<trkpt lat="51.98148167" lon="-1.735945"><ele>157.000000</ele><time>2010-06-30T09:41:43Z</time></trkpt>
	<trkpt lat="51.98152833" lon="-1.735956667"><ele>158.000000</ele><time>2010-06-30T09:41:48Z</time></trkpt>
	<trkpt lat="51.98158333" lon="-1.735968333"><ele>155.000000</ele><time>2010-06-30T09:41:53Z</time></trkpt>
	<trkpt lat="51.98164" lon="-1.735976667"><ele>153.000000</ele><time>2010-06-30T09:41:58Z</time></trkpt>
	<trkpt lat="51.98168833" lon="-1.735973333"><ele>152.000000</ele><time>2010-06-30T09:42:03Z</time></trkpt>
	<trkpt lat="51.98173667" lon="-1.73598"><ele>152.000000</ele><time>2010-06-30T09:42:08Z</time></trkpt>
	<trkpt lat="51.981785" lon="-1.735981667"><ele>151.000000</ele><time>2010-06-30T09:42:13Z</time></trkpt>
	<trkpt lat="51.98183167" lon="-1.735981667"><ele>151.000000</ele><time>2010-06-30T09:42:18Z</time></trkpt>
	<trkpt lat="51.981885" lon="-1.73598"><ele>149.000000</ele><time>2010-06-30T09:42:23Z</time></trkpt>
	<trkpt lat="51.981935" lon="-1.73599"><ele>149.000000</ele><time>2010-06-30T09:42:28Z</time></trkpt>
	<trkpt lat="51.98198667" lon="-1.736003333"><ele>150.000000</ele><time>2010-06-30T09:42:33Z</time></trkpt>
	<trkpt lat="51.98204167" lon="-1.736011667"><ele>150.000000</ele><time>2010-06-30T09:42:38Z</time></trkpt>
	<trkpt lat="51.98209167" lon="-1.736026667"><ele>150.000000</ele><time>2010-06-30T09:42:43Z</time></trkpt>
	<trkpt lat="51.98214667" lon="-1.73604"><ele>150.000000</ele><time>2010-06-30T09:42:48Z</time></trkpt>
	<trkpt lat="51.9822" lon="-1.73605"><ele>149.000000</ele><time>2010-06-30T09:42:53Z</time></trkpt>
	<trkpt lat="51.982245" lon="-1.736078333"><ele>150.000000</ele><time>2010-06-30T09:42:58Z</time></trkpt>
	<trkpt lat="51.98228667" lon="-1.73609"><ele>151.000000</ele><time>2010-06-30T09:43:03Z</time></trkpt>
	<trkpt lat="51.98233167" lon="-1.736093333"><ele>151.000000</ele><time>2010-06-30T09:43:08Z</time></trkpt>
	<trkpt lat="51.982385" lon="-1.736093333"><ele>151.000000</ele><time>2010-06-30T09:43:13Z</time></trkpt>
	<trkpt lat="51.982435" lon="-1.736098333"><ele>151.000000</ele><time>2010-06-30T09:43:18Z</time></trkpt>
	<trkpt lat="51.982485" lon="-1.736108333"><ele>152.000000</ele><time>2010-06-30T09:43:23Z</time></trkpt>
	<trkpt lat="51.98253167" lon="-1.736115"><ele>152.000000</ele><time>2010-06-30T09:43:28Z</time></trkpt>
	<trkpt lat="51.98258" lon="-1.736118333"><ele>153.000000</ele><time>2010-06-30T09:43:33Z</time></trkpt>
	<trkpt lat="51.982625" lon="-1.73613"><ele>153.000000</ele><time>2010-06-30T09:43:38Z</time></trkpt>
	<trkpt lat="51.98267167" lon="-1.736141667"><ele>155.000000</ele><time>2010-06-30T09:43:43Z</time></trkpt>
	<trkpt lat="51.98271" lon="-1.736153333"><ele>155.000000</ele><time>2010-06-30T09:43:48Z</time></trkpt>
	<trkpt lat="51.98273" lon="-1.736131667"><ele>155.000000</ele><time>2010-06-30T09:43:53Z</time></trkpt>
	<trkpt lat="51.982725" lon="-1.736133333"><ele>155.000000</ele><time>2010-06-30T09:43:58Z</time></trkpt>
	<trkpt lat="51.98273167" lon="-1.736118333"><ele>155.000000</ele><time>2010-06-30T09:44:03Z</time></trkpt>
	<trkpt lat="51.98273667" lon="-1.736108333"><ele>155.000000</ele><time>2010-06-30T09:44:08Z</time></trkpt>
	<trkpt lat="51.98274167" lon="-1.736111667"><ele>154.000000</ele><time>2010-06-30T09:44:13Z</time></trkpt>
	<trkpt lat="51.982745" lon="-1.736111667"><ele>154.000000</ele><time>2010-06-30T09:44:18Z</time></trkpt>
	<trkpt lat="51.98274833" lon="-1.736108333"><ele>154.000000</ele><time>2010-06-30T09:44:23Z</time></trkpt>
	<trkpt lat="51.98276667" lon="-1.736106667"><ele>155.000000</ele><time>2010-06-30T09:44:28Z</time></trkpt>
	<trkpt lat="51.98280833" lon="-1.736106667"><ele>158.000000</ele><time>2010-06-30T09:44:33Z</time></trkpt>
	<trkpt lat="51.98285667" lon="-1.736108333"><ele>159.000000</ele><time>2010-06-30T09:44:38Z</time></trkpt>
	<trkpt lat="51.98290833" lon="-1.736126667"><ele>160.000000</ele><time>2010-06-30T09:44:43Z</time></trkpt>
	<trkpt lat="51.98295333" lon="-1.736143333"><ele>160.000000</ele><time>2010-06-30T09:44:48Z</time></trkpt>
	<trkpt lat="51.98299833" lon="-1.73616"><ele>160.000000</ele><time>2010-06-30T09:44:53Z</time></trkpt>
	<trkpt lat="51.98305" lon="-1.736173333"><ele>159.000000</ele><time>2010-06-30T09:44:58Z</time></trkpt>
	<trkpt lat="51.98310333" lon="-1.736191667"><ele>159.000000</ele><time>2010-06-30T09:45:03Z</time></trkpt>
	<trkpt lat="51.98315333" lon="-1.736205"><ele>159.000000</ele><time>2010-06-30T09:45:08Z</time></trkpt>
	<trkpt lat="51.98320333" lon="-1.736218333"><ele>159.000000</ele><time>2010-06-30T09:45:13Z</time></trkpt>
	<trkpt lat="51.98325333" lon="-1.73623"><ele>159.000000</ele><time>2010-06-30T09:45:18Z</time></trkpt>
	<trkpt lat="51.983305" lon="-1.736241667"><ele>159.000000</ele><time>2010-06-30T09:45:23Z</time></trkpt>
	<trkpt lat="51.983355" lon="-1.736258333"><ele>159.000000</ele><time>2010-06-30T09:45:28Z</time></trkpt>
	<trkpt lat="51.98340333" lon="-1.736276667"><ele>159.000000</ele><time>2010-06-30T09:45:33Z</time></trkpt>
	<trkpt lat="51.98344833" lon="-1.736296667"><ele>159.000000</ele><time>2010-06-30T09:45:38Z</time></trkpt>
	<trkpt lat="51.98349333" lon="-1.736313333"><ele>159.000000</ele><time>2010-06-30T09:45:43Z</time></trkpt>
	<trkpt lat="51.98353833" lon="-1.736321667"><ele>161.000000</ele><time>2010-06-30T09:45:48Z</time></trkpt>
	<trkpt lat="51.98359667" lon="-1.73632"><ele>159.000000</ele><time>2010-06-30T09:45:53Z</time></trkpt>
	<trkpt lat="51.983655" lon="-1.73632"><ele>156.000000</ele><time>2010-06-30T09:45:58Z</time></trkpt>
	<trkpt lat="51.98370667" lon="-1.736321667"><ele>155.000000</ele><time>2010-06-30T09:46:03Z</time></trkpt>
	<trkpt lat="51.98375833" lon="-1.736335"><ele>155.000000</ele><time>2010-06-30T09:46:08Z</time></trkpt>
	<trkpt lat="51.98381333" lon="-1.736336667"><ele>154.000000</ele><time>2010-06-30T09:46:13Z</time></trkpt>
	<trkpt lat="51.98386667" lon="-1.73635"><ele>154.000000</ele><time>2010-06-30T09:46:18Z</time></trkpt>
	<trkpt lat="51.98391167" lon="-1.736363333"><ele>154.000000</ele><time>2010-06-30T09:46:23Z</time></trkpt>
	<trkpt lat="51.98395833" lon="-1.736378333"><ele>155.000000</ele><time>2010-06-30T09:46:28Z</time></trkpt>
	<trkpt lat="51.98400833" lon="-1.7364"><ele>155.000000</ele><time>2010-06-30T09:46:33Z</time></trkpt>
	<trkpt lat="51.984055" lon="-1.736415"><ele>155.000000</ele><time>2010-06-30T09:46:38Z</time></trkpt>
	<trkpt lat="51.9841" lon="-1.736431667"><ele>156.000000</ele><time>2010-06-30T09:46:43Z</time></trkpt>
	<trkpt lat="51.984145" lon="-1.73645"><ele>157.000000</ele><time>2010-06-30T09:46:48Z</time></trkpt>
	<trkpt lat="51.98419" lon="-1.73647"><ele>158.000000</ele><time>2010-06-30T09:46:53Z</time></trkpt>
	<trkpt lat="51.98423167" lon="-1.736481667"><ele>159.000000</ele><time>2010-06-30T09:46:58Z</time></trkpt>
	<trkpt lat="51.98428333" lon="-1.736486667"><ele>158.000000</ele><time>2010-06-30T09:47:03Z</time></trkpt>
	<trkpt lat="51.98432833" lon="-1.736505"><ele>158.000000</ele><time>2010-06-30T09:47:08Z</time></trkpt>
	<trkpt lat="51.98437667" lon="-1.736521667"><ele>158.000000</ele><time>2010-06-30T09:47:13Z</time></trkpt>
	<trkpt lat="51.98443" lon="-1.736541667"><ele>157.000000</ele><time>2010-06-30T09:47:18Z</time></trkpt>
	<trkpt lat="51.98448333" lon="-1.73656"><ele>156.000000</ele><time>2010-06-30T09:47:23Z</time></trkpt>
	<trkpt lat="51.98453833" lon="-1.736566667"><ele>156.000000</ele><time>2010-06-30T09:47:28Z</time></trkpt>
	<trkpt lat="51.98457667" lon="-1.736571667"><ele>157.000000</ele><time>2010-06-30T09:47:33Z</time></trkpt>
	<trkpt lat="51.98459333" lon="-1.736543333"><ele>155.000000</ele><time>2010-06-30T09:47:38Z</time></trkpt>
	<trkpt lat="51.9846" lon="-1.736548333"><ele>154.000000</ele><time>2010-06-30T09:47:43Z</time></trkpt>
	<trkpt lat="51.98461" lon="-1.73655"><ele>154.000000</ele><time>2010-06-30T09:47:48Z</time></trkpt>
	<trkpt lat="51.98462333" lon="-1.736563333"><ele>154.000000</ele><time>2010-06-30T09:47:53Z</time></trkpt>
	<trkpt lat="51.98464" lon="-1.736588333"><ele>156.000000</ele><time>2010-06-30T09:47:58Z</time></trkpt>
	<trkpt lat="51.98466667" lon="-1.736606667"><ele>158.000000</ele><time>2010-06-30T09:48:03Z</time></trkpt>
	<trkpt lat="51.98469833" lon="-1.736625"><ele>160.000000</ele><time>2010-06-30T09:48:08Z</time></trkpt>
	<trkpt lat="51.98472833" lon="-1.736645"><ele>161.000000</ele><time>2010-06-30T09:48:13Z</time></trkpt>
	<trkpt lat="51.98474833" lon="-1.736665"><ele>162.000000</ele><time>2010-06-30T09:48:18Z</time></trkpt>
	<trkpt lat="51.98478" lon="-1.736678333"><ele>163.000000</ele><time>2010-06-30T09:48:23Z</time></trkpt>
	<trkpt lat="51.98481333" lon="-1.736693333"><ele>164.000000</ele><time>2010-06-30T09:48:28Z</time></trkpt>
	<trkpt lat="51.98484833" lon="-1.736721667"><ele>164.000000</ele><time>2010-06-30T09:48:33Z</time></trkpt>
	<trkpt lat="51.98488167" lon="-1.736756667"><ele>164.000000</ele><time>2010-06-30T09:48:38Z</time></trkpt>
	<trkpt lat="51.98491667" lon="-1.736765"><ele>162.000000</ele><time>2010-06-30T09:48:43Z</time></trkpt>
	<trkpt lat="51.984945" lon="-1.736781667"><ele>163.000000</ele><time>2010-06-30T09:48:48Z</time></trkpt>
	<trkpt lat="51.98497333" lon="-1.736815"><ele>162.000000</ele><time>2010-06-30T09:48:53Z</time></trkpt>
	<trkpt lat="51.985005" lon="-1.736853333"><ele>163.000000</ele><time>2010-06-30T09:48:58Z</time></trkpt>
	<trkpt lat="51.98502667" lon="-1.736881667"><ele>164.000000</ele><time>2010-06-30T09:49:03Z</time></trkpt>
	<trkpt lat="51.985055" lon="-1.73691"><ele>166.000000</ele><time>2010-06-30T09:49:08Z</time></trkpt>
	<trkpt lat="51.98507167" lon="-1.736928333"><ele>167.000000</ele><time>2010-06-30T09:49:13Z</time></trkpt>
	<trkpt lat="51.98508833" lon="-1.736958333"><ele>167.000000</ele><time>2010-06-30T09:49:18Z</time></trkpt>
	<trkpt lat="51.98511" lon="-1.737006667"><ele>167.000000</ele><time>2010-06-30T09:49:23Z</time></trkpt>
	<trkpt lat="51.985135" lon="-1.737028333"><ele>168.000000</ele><time>2010-06-30T09:49:28Z</time></trkpt>
	<trkpt lat="51.98514167" lon="-1.737061667"><ele>168.000000</ele><time>2010-06-30T09:49:33Z</time></trkpt>
	<trkpt lat="51.98514167" lon="-1.737103333"><ele>164.000000</ele><time>2010-06-30T09:49:38Z</time></trkpt>
	<trkpt lat="51.98515667" lon="-1.737145"><ele>165.000000</ele><time>2010-06-30T09:49:43Z</time></trkpt>
	<trkpt lat="51.98516167" lon="-1.737185"><ele>165.000000</ele><time>2010-06-30T09:49:48Z</time></trkpt>
	<trkpt lat="51.98518" lon="-1.737233333"><ele>167.000000</ele><time>2010-06-30T09:49:53Z</time></trkpt>
	<trkpt lat="51.9852" lon="-1.737296667"><ele>166.000000</ele><time>2010-06-30T09:49:58Z</time></trkpt>
	<trkpt lat="51.98521333" lon="-1.73736"><ele>162.000000</ele><time>2010-06-30T09:50:03Z</time></trkpt>
	<trkpt lat="51.98522833" lon="-1.737398333"><ele>161.000000</ele><time>2010-06-30T09:50:08Z</time></trkpt>
	<trkpt lat="51.98524" lon="-1.737453333"><ele>161.000000</ele><time>2010-06-30T09:50:13Z</time></trkpt>
	<trkpt lat="51.98525167" lon="-1.737486667"><ele>162.000000</ele><time>2010-06-30T09:50:18Z</time></trkpt>
	<trkpt lat="51.98526" lon="-1.737535"><ele>160.000000</ele><time>2010-06-30T09:50:23Z</time></trkpt>
	<trkpt lat="51.98527167" lon="-1.737548333"><ele>160.000000</ele><time>2010-06-30T09:50:28Z</time></trkpt>
	<trkpt lat="51.98526833" lon="-1.737563333"><ele>160.000000</ele><time>2010-06-30T09:50:33Z</time></trkpt>
	<trkpt lat="51.98526667" lon="-1.737575"><ele>159.000000</ele><time>2010-06-30T09:50:38Z</time></trkpt>
	<trkpt lat="51.985265" lon="-1.737573333"><ele>159.000000</ele><time>2010-06-30T09:50:43Z</time></trkpt>
	<trkpt lat="51.98526167" lon="-1.73758"><ele>159.000000</ele><time>2010-06-30T09:50:48Z</time></trkpt>
	<trkpt lat="51.98526167" lon="-1.737588333"><ele>158.000000</ele><time>2010-06-30T09:50:53Z</time></trkpt>
	<trkpt lat="51.98524667" lon="-1.737653333"><ele>157.000000</ele><time>2010-06-30T09:50:58Z</time></trkpt>
	<trkpt lat="51.985235" lon="-1.737738333"><ele>156.000000</ele><time>2010-06-30T09:51:03Z</time></trkpt>
	<trkpt lat="51.985225" lon="-1.737811667"><ele>155.000000</ele><time>2010-06-30T09:51:08Z</time></trkpt>
	<trkpt lat="51.98521667" lon="-1.737876667"><ele>154.000000</ele><time>2010-06-30T09:51:13Z</time></trkpt>
	<trkpt lat="51.985205" lon="-1.737943333"><ele>153.000000</ele><time>2010-06-30T09:51:18Z</time></trkpt>
	<trkpt lat="51.98520167" lon="-1.738016667"><ele>153.000000</ele><time>2010-06-30T09:51:23Z</time></trkpt>
	<trkpt lat="51.98519667" lon="-1.738086667"><ele>153.000000</ele><time>2010-06-30T09:51:28Z</time></trkpt>
	<trkpt lat="51.9852" lon="-1.738148333"><ele>153.000000</ele><time>2010-06-30T09:51:33Z</time></trkpt>
	<trkpt lat="51.98520667" lon="-1.738215"><ele>153.000000</ele><time>2010-06-30T09:51:38Z</time></trkpt>
	<trkpt lat="51.98521" lon="-1.738288333"><ele>153.000000</ele><time>2010-06-30T09:51:43Z</time></trkpt>
	<trkpt lat="51.98521167" lon="-1.738365"><ele>153.000000</ele><time>2010-06-30T09:51:48Z</time></trkpt>
	<trkpt lat="51.98521667" lon="-1.738441667"><ele>153.000000</ele><time>2010-06-30T09:51:53Z</time></trkpt>
	<trkpt lat="51.98521667" lon="-1.738516667"><ele>153.000000</ele><time>2010-06-30T09:51:58Z</time></trkpt>
	<trkpt lat="51.98522" lon="-1.73859"><ele>153.000000</ele><time>2010-06-30T09:52:03Z</time></trkpt>
	<trkpt lat="51.98522667" lon="-1.738661667"><ele>153.000000</ele><time>2010-06-30T09:52:08Z</time></trkpt>
	<trkpt lat="51.98522833" lon="-1.738731667"><ele>153.000000</ele><time>2010-06-30T09:52:13Z</time></trkpt>
	<trkpt lat="51.98522833" lon="-1.738805"><ele>153.000000</ele><time>2010-06-30T09:52:18Z</time></trkpt>
	<trkpt lat="51.98523" lon="-1.738875"><ele>153.000000</ele><time>2010-06-30T09:52:23Z</time></trkpt>
	<trkpt lat="51.98523667" lon="-1.738946667"><ele>154.000000</ele><time>2010-06-30T09:52:28Z</time></trkpt>
	<trkpt lat="51.98524" lon="-1.739016667"><ele>153.000000</ele><time>2010-06-30T09:52:33Z</time></trkpt>
	<trkpt lat="51.98523667" lon="-1.739083333"><ele>153.000000</ele><time>2010-06-30T09:52:38Z</time></trkpt>
	<trkpt lat="51.98524167" lon="-1.739145"><ele>154.000000</ele><time>2010-06-30T09:52:43Z</time></trkpt>
	<trkpt lat="51.98524667" lon="-1.739213333"><ele>154.000000</ele><time>2010-06-30T09:52:48Z</time></trkpt>
	<trkpt lat="51.985255" lon="-1.73928"><ele>155.000000</ele><time>2010-06-30T09:52:53Z</time></trkpt>
	<trkpt lat="51.98526833" lon="-1.739341667"><ele>156.000000</ele><time>2010-06-30T09:52:58Z</time></trkpt>
	<trkpt lat="51.98527667" lon="-1.739388333"><ele>159.000000</ele><time>2010-06-30T09:53:03Z</time></trkpt>
	<trkpt lat="51.98528167" lon="-1.739436667"><ele>161.000000</ele><time>2010-06-30T09:53:08Z</time></trkpt>
	<trkpt lat="51.98528833" lon="-1.739488333"><ele>162.000000</ele><time>2010-06-30T09:53:13Z</time></trkpt>
	<trkpt lat="51.98529833" lon="-1.73954"><ele>162.000000</ele><time>2010-06-30T09:53:18Z</time></trkpt>
	<trkpt lat="51.98531167" lon="-1.739575"><ele>162.000000</ele><time>2010-06-30T09:53:23Z</time></trkpt>
	<trkpt lat="51.98532" lon="-1.739613333"><ele>162.000000</ele><time>2010-06-30T09:53:28Z</time></trkpt>
	<trkpt lat="51.98531167" lon="-1.739628333"><ele>160.000000</ele><time>2010-06-30T09:53:33Z</time></trkpt>
	<trkpt lat="51.98533" lon="-1.739666667"><ele>160.000000</ele><time>2010-06-30T09:53:38Z</time></trkpt>
	<trkpt lat="51.985335" lon="-1.739683333"><ele>159.000000</ele><time>2010-06-30T09:53:43Z</time></trkpt>
	<trkpt lat="51.98534167" lon="-1.7397"><ele>159.000000</ele><time>2010-06-30T09:53:48Z</time></trkpt>
	<trkpt lat="51.98534833" lon="-1.739708333"><ele>160.000000</ele><time>2010-06-30T09:53:53Z</time></trkpt>
	<trkpt lat="51.98535667" lon="-1.739718333"><ele>160.000000</ele><time>2010-06-30T09:53:58Z</time></trkpt>
	<trkpt lat="51.98536333" lon="-1.739715"><ele>160.000000</ele><time>2010-06-30T09:54:03Z</time></trkpt>
	<trkpt lat="51.98538167" lon="-1.739685"><ele>161.000000</ele><time>2010-06-30T09:54:08Z</time></trkpt>
	<trkpt lat="51.98543333" lon="-1.739635"><ele>164.000000</ele><time>2010-06-30T09:54:13Z</time></trkpt>
	<trkpt lat="51.98548333" lon="-1.739573333"><ele>166.000000</ele><time>2010-06-30T09:54:18Z</time></trkpt>
	<trkpt lat="51.98551667" lon="-1.739528333"><ele>168.000000</ele><time>2010-06-30T09:54:23Z</time></trkpt>
	<trkpt lat="51.98555" lon="-1.739468333"><ele>171.000000</ele><time>2010-06-30T09:54:28Z</time></trkpt>
	<trkpt lat="51.98558167" lon="-1.739425"><ele>171.000000</ele><time>2010-06-30T09:54:33Z</time></trkpt>
	<trkpt lat="51.98562" lon="-1.739361667"><ele>172.000000</ele><time>2010-06-30T09:54:38Z</time></trkpt>
	<trkpt lat="51.98565" lon="-1.739323333"><ele>171.000000</ele><time>2010-06-30T09:54:43Z</time></trkpt>
	<trkpt lat="51.98567667" lon="-1.739298333"><ele>172.000000</ele><time>2010-06-30T09:54:48Z</time></trkpt>
	<trkpt lat="51.985705" lon="-1.739268333"><ele>170.000000</ele><time>2010-06-30T09:54:53Z</time></trkpt>
	<trkpt lat="51.98573667" lon="-1.739245"><ele>170.000000</ele><time>2010-06-30T09:54:58Z</time></trkpt>
	<trkpt lat="51.98575333" lon="-1.739241667"><ele>169.000000</ele><time>2010-06-30T09:55:03Z</time></trkpt>
	<trkpt lat="51.98576833" lon="-1.73923"><ele>170.000000</ele><time>2010-06-30T09:55:08Z</time></trkpt>
	<trkpt lat="51.98577667" lon="-1.73919"><ele>171.000000</ele><time>2010-06-30T09:55:13Z</time></trkpt>
	<trkpt lat="51.98579333" lon="-1.739143333"><ele>169.000000</ele><time>2010-06-30T09:55:18Z</time></trkpt>
	<trkpt lat="51.98579833" lon="-1.739138333"><ele>168.000000</ele><time>2010-06-30T09:55:23Z</time></trkpt>
	<trkpt lat="51.98582833" lon="-1.739113333"><ele>166.000000</ele><time>2010-06-30T09:55:28Z</time></trkpt>
	<trkpt lat="51.98584167" lon="-1.739098333"><ele>162.000000</ele><time>2010-06-30T09:55:33Z</time></trkpt>
	<trkpt lat="51.98584667" lon="-1.739071667"><ele>160.000000</ele><time>2010-06-30T09:55:38Z</time></trkpt>
	<trkpt lat="51.98583333" lon="-1.739055"><ele>157.000000</ele><time>2010-06-30T09:55:43Z</time></trkpt>
	<trkpt lat="51.98582667" lon="-1.739045"><ele>156.000000</ele><time>2010-06-30T09:55:48Z</time></trkpt>
	<trkpt lat="51.98584167" lon="-1.739026667"><ele>159.000000</ele><time>2010-06-30T09:55:53Z</time></trkpt>
	<trkpt lat="51.98584167" lon="-1.739036667"><ele>160.000000</ele><time>2010-06-30T09:55:58Z</time></trkpt>
	<trkpt lat="51.98585" lon="-1.739036667"><ele>158.000000</ele><time>2010-06-30T09:56:03Z</time></trkpt>
	<trkpt lat="51.985835" lon="-1.739068333"><ele>154.000000</ele><time>2010-06-30T09:56:08Z</time></trkpt>
	<trkpt lat="51.98584833" lon="-1.739095"><ele>159.000000</ele><time>2010-06-30T09:56:13Z</time></trkpt>
	<trkpt lat="51.98586" lon="-1.739096667"><ele>157.000000</ele><time>2010-06-30T09:56:18Z</time></trkpt>
	<trkpt lat="51.98587167" lon="-1.739088333"><ele>156.000000</ele><time>2010-06-30T09:56:23Z</time></trkpt>
	<trkpt lat="51.98588333" lon="-1.739066667"><ele>158.000000</ele><time>2010-06-30T09:56:28Z</time></trkpt>
	<trkpt lat="51.985875" lon="-1.739043333"><ele>159.000000</ele><time>2010-06-30T09:56:33Z</time></trkpt>
	<trkpt lat="51.98586" lon="-1.739033333"><ele>159.000000</ele><time>2010-06-30T09:56:38Z</time></trkpt>
	<trkpt lat="51.98584833" lon="-1.739026667"><ele>159.000000</ele><time>2010-06-30T09:56:43Z</time></trkpt>
	<trkpt lat="51.98584333" lon="-1.739016667"><ele>159.000000</ele><time>2010-06-30T09:56:48Z</time></trkpt>
	<trkpt lat="51.98584167" lon="-1.73901"><ele>160.000000</ele><time>2010-06-30T09:56:53Z</time></trkpt>
	<trkpt lat="51.98583667" lon="-1.739011667"><ele>160.000000</ele><time>2010-06-30T09:56:58Z</time></trkpt>
	<trkpt lat="51.985835" lon="-1.73901"><ele>160.000000</ele><time>2010-06-30T09:57:03Z</time></trkpt>
	<trkpt lat="51.98583833" lon="-1.739005"><ele>161.000000</ele><time>2010-06-30T09:57:08Z</time></trkpt>
	<trkpt lat="51.98584167" lon="-1.739001667"><ele>161.000000</ele><time>2010-06-30T09:57:13Z</time></trkpt>
	<trkpt lat="51.98583667" lon="-1.739008333"><ele>161.000000</ele><time>2010-06-30T09:57:18Z</time></trkpt>
	<trkpt lat="51.98583833" lon="-1.739005"><ele>162.000000</ele><time>2010-06-30T09:57:23Z</time></trkpt>
	<trkpt lat="51.98582167" lon="-1.739028333"><ele>162.000000</ele><time>2010-06-30T09:57:28Z</time></trkpt>
	<trkpt lat="51.98582167" lon="-1.739031667"><ele>163.000000</ele><time>2010-06-30T09:57:33Z</time></trkpt>
	<trkpt lat="51.985795" lon="-1.739065"><ele>159.000000</ele><time>2010-06-30T09:57:38Z</time></trkpt>
	<trkpt lat="51.9858" lon="-1.73907"><ele>161.000000</ele><time>2010-06-30T09:57:43Z</time></trkpt>
	<trkpt lat="51.98579667" lon="-1.73908"><ele>164.000000</ele><time>2010-06-30T09:57:48Z</time></trkpt>
	<trkpt lat="51.98578667" lon="-1.739096667"><ele>163.000000</ele><time>2010-06-30T09:57:53Z</time></trkpt>
	<trkpt lat="51.98578333" lon="-1.739106667"><ele>163.000000</ele><time>2010-06-30T09:57:58Z</time></trkpt>
	<trkpt lat="51.98578167" lon="-1.739115"><ele>163.000000</ele><time>2010-06-30T09:58:03Z</time></trkpt>
	<trkpt lat="51.98578" lon="-1.739113333"><ele>163.000000</ele><time>2010-06-30T09:58:08Z</time></trkpt>
	<trkpt lat="51.98576667" lon="-1.739113333"><ele>159.000000</ele><time>2010-06-30T09:58:13Z</time></trkpt>
	<trkpt lat="51.985765" lon="-1.739106667"><ele>159.000000</ele><time>2010-06-30T09:58:18Z</time></trkpt>
	<trkpt lat="51.98577" lon="-1.7391"><ele>158.000000</ele><time>2010-06-30T09:58:23Z</time></trkpt>
	<trkpt lat="51.98577333" lon="-1.73909"><ele>156.000000</ele><time>2010-06-30T09:58:28Z</time></trkpt>
	<trkpt lat="51.98577667" lon="-1.739086667"><ele>154.000000</ele><time>2010-06-30T09:58:33Z</time></trkpt>
	<trkpt lat="51.985785" lon="-1.739076667"><ele>153.000000</ele><time>2010-06-30T09:58:38Z</time></trkpt>
	<trkpt lat="51.98579167" lon="-1.739066667"><ele>152.000000</ele><time>2010-06-30T09:58:43Z</time></trkpt>
	<trkpt lat="51.98582167" lon="-1.739036667"><ele>150.000000</ele><time>2010-06-30T09:58:48Z</time></trkpt>
	<trkpt lat="51.98583833" lon="-1.739026667"><ele>150.000000</ele><time>2010-06-30T09:58:53Z</time></trkpt>
	<trkpt lat="51.98584167" lon="-1.739025"><ele>149.000000</ele><time>2010-06-30T09:58:58Z</time></trkpt>
	<trkpt lat="51.98584" lon="-1.739023333"><ele>148.000000</ele><time>2010-06-30T09:59:03Z</time></trkpt>
	<trkpt lat="51.985825" lon="-1.739033333"><ele>154.000000</ele><time>2010-06-30T09:59:08Z</time></trkpt>
	<trkpt lat="51.98581833" lon="-1.739045"><ele>156.000000</ele><time>2010-06-30T09:59:13Z</time></trkpt>
	<trkpt lat="51.98581167" lon="-1.73904"><ele>159.000000</ele><time>2010-06-30T09:59:18Z</time></trkpt>
	<trkpt lat="51.985805" lon="-1.739043333"><ele>162.000000</ele><time>2010-06-30T09:59:23Z</time></trkpt>
	<trkpt lat="51.985805" lon="-1.739046667"><ele>164.000000</ele><time>2010-06-30T09:59:28Z</time></trkpt>
	<trkpt lat="51.98580167" lon="-1.739046667"><ele>165.000000</ele><time>2010-06-30T09:59:33Z</time></trkpt>
	<trkpt lat="51.9858" lon="-1.73905"><ele>166.000000</ele><time>2010-06-30T09:59:38Z</time></trkpt>
	<trkpt lat="51.98579833" lon="-1.739053333"><ele>167.000000</ele><time>2010-06-30T09:59:43Z</time></trkpt>
	<trkpt lat="51.9858" lon="-1.739058333"><ele>166.000000</ele><time>2010-06-30T09:59:48Z</time></trkpt>
	<trkpt lat="51.985795" lon="-1.739046667"><ele>167.000000</ele><time>2010-06-30T09:59:53Z</time></trkpt>
	<trkpt lat="51.98579667" lon="-1.739046667"><ele>167.000000</ele><time>2010-06-30T09:59:58Z</time></trkpt>
	<trkpt lat="51.98579667" lon="-1.739046667"><ele>167.000000</ele><time>2010-06-30T10:00:03Z</time></trkpt>
	<trkpt lat="51.985795" lon="-1.73905"><ele>167.000000</ele><time>2010-06-30T10:00:08Z</time></trkpt>
	<trkpt lat="51.98579167" lon="-1.739053333"><ele>166.000000</ele><time>2010-06-30T10:00:13Z</time></trkpt>
	<trkpt lat="51.98579" lon="-1.739055"><ele>165.000000</ele><time>2010-06-30T10:00:18Z</time></trkpt>
	<trkpt lat="51.98578333" lon="-1.739058333"><ele>164.000000</ele><time>2010-06-30T10:00:23Z</time></trkpt>
	<trkpt lat="51.98578667" lon="-1.739058333"><ele>164.000000</ele><time>2010-06-30T10:00:28Z</time></trkpt>
	<trkpt lat="51.98579" lon="-1.739055"><ele>165.000000</ele><time>2010-06-30T10:00:33Z</time></trkpt>
	<trkpt lat="51.98578667" lon="-1.739056667"><ele>165.000000</ele><time>2010-06-30T10:00:38Z</time></trkpt>
	<trkpt lat="51.98578333" lon="-1.739056667"><ele>164.000000</ele><time>2010-06-30T10:00:43Z</time></trkpt>
	<trkpt lat="51.985775" lon="-1.739058333"><ele>162.000000</ele><time>2010-06-30T10:00:48Z</time></trkpt>
	<trkpt lat="51.98577" lon="-1.739055"><ele>161.000000</ele><time>2010-06-30T10:00:53Z</time></trkpt>
	<trkpt lat="51.98577" lon="-1.739053333"><ele>162.000000</ele><time>2010-06-30T10:00:58Z</time></trkpt>
	<trkpt lat="51.98577167" lon="-1.739053333"><ele>161.000000</ele><time>2010-06-30T10:01:03Z</time></trkpt>
	<trkpt lat="51.98577333" lon="-1.739053333"><ele>161.000000</ele><time>2010-06-30T10:01:08Z</time></trkpt>
	<trkpt lat="51.98578333" lon="-1.739045"><ele>163.000000</ele><time>2010-06-30T10:01:13Z</time></trkpt>
	<trkpt lat="51.98578833" lon="-1.739045"><ele>163.000000</ele><time>2010-06-30T10:01:18Z</time></trkpt>
	<trkpt lat="51.98578833" lon="-1.739045"><ele>164.000000</ele><time>2010-06-30T10:01:23Z</time></trkpt>
	<trkpt lat="51.98579333" lon="-1.73904"><ele>165.000000</ele><time>2010-06-30T10:01:28Z</time></trkpt>
	<trkpt lat="51.98579833" lon="-1.739033333"><ele>166.000000</ele><time>2010-06-30T10:01:33Z</time></trkpt>
	<trkpt lat="51.98579833" lon="-1.739033333"><ele>167.000000</ele><time>2010-06-30T10:01:38Z</time></trkpt>
	<trkpt lat="51.98579833" lon="-1.739033333"><ele>168.000000</ele><time>2010-06-30T10:01:43Z</time></trkpt>
	<trkpt lat="51.98579667" lon="-1.739033333"><ele>168.000000</ele><time>2010-06-30T10:01:48Z</time></trkpt>
	<trkpt lat="51.98579667" lon="-1.739036667"><ele>168.000000</ele><time>2010-06-30T10:01:53Z</time></trkpt>
	<trkpt lat="51.985795" lon="-1.739038333"><ele>167.000000</ele><time>2010-06-30T10:01:58Z</time></trkpt>
	<trkpt lat="51.98579167" lon="-1.739041667"><ele>167.000000</ele><time>2010-06-30T10:02:03Z</time></trkpt>
	<trkpt lat="51.98579167" lon="-1.739043333"><ele>166.000000</ele><time>2010-06-30T10:02:08Z</time></trkpt>
	<trkpt lat="51.98578833" lon="-1.739046667"><ele>165.000000</ele><time>2010-06-30T10:02:13Z</time></trkpt>
	<trkpt lat="51.985785" lon="-1.73905"><ele>165.000000</ele><time>2010-06-30T10:02:18Z</time></trkpt>
	<trkpt lat="51.98578333" lon="-1.739053333"><ele>164.000000</ele><time>2010-06-30T10:02:23Z</time></trkpt>
	<trkpt lat="51.985795" lon="-1.739046667"><ele>166.000000</ele><time>2010-06-30T10:02:28Z</time></trkpt>
	<trkpt lat="51.9858" lon="-1.739046667"><ele>168.000000</ele><time>2010-06-30T10:02:33Z</time></trkpt>
	<trkpt lat="51.98580667" lon="-1.739043333"><ele>167.000000</ele><time>2010-06-30T10:02:38Z</time></trkpt>
	<trkpt lat="51.98581333" lon="-1.73904"><ele>165.000000</ele><time>2010-06-30T10:02:43Z</time></trkpt>
	<trkpt lat="51.98581" lon="-1.73905"><ele>162.000000</ele><time>2010-06-30T10:02:48Z</time></trkpt>
	<trkpt lat="51.98580667" lon="-1.739056667"><ele>160.000000</ele><time>2010-06-30T10:02:53Z</time></trkpt>
	<trkpt lat="51.985805" lon="-1.739061667"><ele>159.000000</ele><time>2010-06-30T10:02:58Z</time></trkpt>
	<trkpt lat="51.98580167" lon="-1.739065"><ele>158.000000</ele><time>2010-06-30T10:03:03Z</time></trkpt>
	<trkpt lat="51.9858" lon="-1.739068333"><ele>157.000000</ele><time>2010-06-30T10:03:08Z</time></trkpt>
	<trkpt lat="51.98580167" lon="-1.739068333"><ele>157.000000</ele><time>2010-06-30T10:03:13Z</time></trkpt>
	<trkpt lat="51.98580167" lon="-1.739066667"><ele>156.000000</ele><time>2010-06-30T10:03:18Z</time></trkpt>
	<trkpt lat="51.98580333" lon="-1.739071667"><ele>156.000000</ele><time>2010-06-30T10:03:23Z</time></trkpt>
	<trkpt lat="51.98580833" lon="-1.73907"><ele>157.000000</ele><time>2010-06-30T10:03:28Z</time></trkpt>
	<trkpt lat="51.98581333" lon="-1.739078333"><ele>157.000000</ele><time>2010-06-30T10:03:33Z</time></trkpt>
	<trkpt lat="51.98581833" lon="-1.739076667"><ele>156.000000</ele><time>2010-06-30T10:03:38Z</time></trkpt>
	<trkpt lat="51.98580833" lon="-1.739101667"><ele>154.000000</ele><time>2010-06-30T10:03:43Z</time></trkpt>
	<trkpt lat="51.98580333" lon="-1.739121667"><ele>154.000000</ele><time>2010-06-30T10:03:48Z</time></trkpt>
	<trkpt lat="51.98581" lon="-1.739111667"><ele>154.000000</ele><time>2010-06-30T10:03:53Z</time></trkpt>
	<trkpt lat="51.98582167" lon="-1.73909"><ele>155.000000</ele><time>2010-06-30T10:03:58Z</time></trkpt>
	<trkpt lat="51.985825" lon="-1.739075"><ele>154.000000</ele><time>2010-06-30T10:04:03Z</time></trkpt>
	<trkpt lat="51.98583333" lon="-1.739055"><ele>154.000000</ele><time>2010-06-30T10:04:08Z</time></trkpt>
	<trkpt lat="51.98584333" lon="-1.739038333"><ele>154.000000</ele><time>2010-06-30T10:04:13Z</time></trkpt>
	<trkpt lat="51.98584833" lon="-1.739031667"><ele>154.000000</ele><time>2010-06-30T10:04:18Z</time></trkpt>
	<trkpt lat="51.98585667" lon="-1.739018333"><ele>154.000000</ele><time>2010-06-30T10:04:23Z</time></trkpt>
	<trkpt lat="51.98586333" lon="-1.73901"><ele>154.000000</ele><time>2010-06-30T10:04:28Z</time></trkpt>
	<trkpt lat="51.98586833" lon="-1.739003333"><ele>155.000000</ele><time>2010-06-30T10:04:33Z</time></trkpt>
	<trkpt lat="51.98587833" lon="-1.738986667"><ele>156.000000</ele><time>2010-06-30T10:04:38Z</time></trkpt>
	<trkpt lat="51.98587833" lon="-1.738995"><ele>157.000000</ele><time>2010-06-30T10:04:43Z</time></trkpt>
	<trkpt lat="51.98587333" lon="-1.739005"><ele>158.000000</ele><time>2010-06-30T10:04:48Z</time></trkpt>
	<trkpt lat="51.985875" lon="-1.739011667"><ele>159.000000</ele><time>2010-06-30T10:04:53Z</time></trkpt>
	<trkpt lat="51.985875" lon="-1.739013333"><ele>159.000000</ele><time>2010-06-30T10:04:58Z</time></trkpt>
	<trkpt lat="51.98584833" lon="-1.739053333"><ele>162.000000</ele><time>2010-06-30T10:05:03Z</time></trkpt>
	<trkpt lat="51.98585333" lon="-1.739033333"><ele>158.000000</ele><time>2010-06-30T10:05:08Z</time></trkpt>
	<trkpt lat="51.98586167" lon="-1.739033333"><ele>161.000000</ele><time>2010-06-30T10:05:13Z</time></trkpt>
	<trkpt lat="51.98587" lon="-1.739016667"><ele>161.000000</ele><time>2010-06-30T10:05:18Z</time></trkpt>
	<trkpt lat="51.98584333" lon="-1.739016667"><ele>155.000000</ele><time>2010-06-30T10:05:23Z</time></trkpt>
	<trkpt lat="51.98583167" lon="-1.739025"><ele>152.000000</ele><time>2010-06-30T10:05:28Z</time></trkpt>
	<trkpt lat="51.985835" lon="-1.73903"><ele>151.000000</ele><time>2010-06-30T10:05:33Z</time></trkpt>
	<trkpt lat="51.985835" lon="-1.739033333"><ele>151.000000</ele><time>2010-06-30T10:05:38Z</time></trkpt>
	<trkpt lat="51.98583333" lon="-1.739045"><ele>151.000000</ele><time>2010-06-30T10:05:43Z</time></trkpt>
	<trkpt lat="51.98582667" lon="-1.739061667"><ele>151.000000</ele><time>2010-06-30T10:05:48Z</time></trkpt>
	<trkpt lat="51.98582333" lon="-1.739071667"><ele>151.000000</ele><time>2010-06-30T10:05:53Z</time></trkpt>
	<trkpt lat="51.985825" lon="-1.739078333"><ele>152.000000</ele><time>2010-06-30T10:05:58Z</time></trkpt>
	<trkpt lat="51.985825" lon="-1.739085"><ele>154.000000</ele><time>2010-06-30T10:06:03Z</time></trkpt>
	<trkpt lat="51.985825" lon="-1.739095"><ele>155.000000</ele><time>2010-06-30T10:06:08Z</time></trkpt>
	<trkpt lat="51.98580333" lon="-1.739123333"><ele>152.000000</ele><time>2010-06-30T10:06:13Z</time></trkpt>
	<trkpt lat="51.98579" lon="-1.739133333"><ele>150.000000</ele><time>2010-06-30T10:06:18Z</time></trkpt>
	<trkpt lat="51.98580167" lon="-1.739128333"><ele>152.000000</ele><time>2010-06-30T10:06:23Z</time></trkpt>
	<trkpt lat="51.98580833" lon="-1.739123333"><ele>153.000000</ele><time>2010-06-30T10:06:28Z</time></trkpt>
	<trkpt lat="51.98580833" lon="-1.739123333"><ele>153.000000</ele><time>2010-06-30T10:06:33Z</time></trkpt>
	<trkpt lat="51.985815" lon="-1.73911"><ele>153.000000</ele><time>2010-06-30T10:06:38Z</time></trkpt>
	<trkpt lat="51.98583167" lon="-1.739078333"><ele>155.000000</ele><time>2010-06-30T10:06:43Z</time></trkpt>
	<trkpt lat="51.985835" lon="-1.739076667"><ele>155.000000</ele><time>2010-06-30T10:06:48Z</time></trkpt>
	<trkpt lat="51.98582833" lon="-1.739101667"><ele>156.000000</ele><time>2010-06-30T10:06:53Z</time></trkpt>
	<trkpt lat="51.985825" lon="-1.739115"><ele>156.000000</ele><time>2010-06-30T10:06:58Z</time></trkpt>
	<trkpt lat="51.985825" lon="-1.739121667"><ele>156.000000</ele><time>2010-06-30T10:07:03Z</time></trkpt>
	<trkpt lat="51.98582333" lon="-1.739133333"><ele>157.000000</ele><time>2010-06-30T10:07:08Z</time></trkpt>
	<trkpt lat="51.98581833" lon="-1.739145"><ele>158.000000</ele><time>2010-06-30T10:07:13Z</time></trkpt>
	<trkpt lat="51.98582333" lon="-1.739126667"><ele>159.000000</ele><time>2010-06-30T10:07:18Z</time></trkpt>
	<trkpt lat="51.98582833" lon="-1.739111667"><ele>160.000000</ele><time>2010-06-30T10:07:23Z</time></trkpt>
	<trkpt lat="51.98582833" lon="-1.739116667"><ele>161.000000</ele><time>2010-06-30T10:07:28Z</time></trkpt>
	<trkpt lat="51.98581833" lon="-1.739138333"><ele>162.000000</ele><time>2010-06-30T10:07:33Z</time></trkpt>
	<trkpt lat="51.98581667" lon="-1.739153333"><ele>161.000000</ele><time>2010-06-30T10:07:38Z</time></trkpt>
	<trkpt lat="51.98583833" lon="-1.739171667"><ele>164.000000</ele><time>2010-06-30T10:07:43Z</time></trkpt>
	<trkpt lat="51.98583167" lon="-1.739181667"><ele>162.000000</ele><time>2010-06-30T10:07:48Z</time></trkpt>
	<trkpt lat="51.98582833" lon="-1.739188333"><ele>160.000000</ele><time>2010-06-30T10:07:53Z</time></trkpt>
	<trkpt lat="51.98583167" lon="-1.739166667"><ele>158.000000</ele><time>2010-06-30T10:07:58Z</time></trkpt>
	<trkpt lat="51.98582667" lon="-1.739155"><ele>158.000000</ele><time>2010-06-30T10:08:03Z</time></trkpt>
	<trkpt lat="51.98580833" lon="-1.73918"><ele>157.000000</ele><time>2010-06-30T10:08:08Z</time></trkpt>
	<trkpt lat="51.98580833" lon="-1.739193333"><ele>158.000000</ele><time>2010-06-30T10:08:13Z</time></trkpt>
	<trkpt lat="51.98580667" lon="-1.7392"><ele>158.000000</ele><time>2010-06-30T10:08:18Z</time></trkpt>
	<trkpt lat="51.98580167" lon="-1.7392"><ele>158.000000</ele><time>2010-06-30T10:08:23Z</time></trkpt>
	<trkpt lat="51.98580667" lon="-1.73919"><ele>157.000000</ele><time>2010-06-30T10:08:28Z</time></trkpt>
	<trkpt lat="51.985795" lon="-1.739188333"><ele>161.000000</ele><time>2010-06-30T10:08:33Z</time></trkpt>
	<trkpt lat="51.985795" lon="-1.739171667"><ele>163.000000</ele><time>2010-06-30T10:08:38Z</time></trkpt>
	<trkpt lat="51.98580167" lon="-1.739143333"><ele>163.000000</ele><time>2010-06-30T10:08:43Z</time></trkpt>
	<trkpt lat="51.98581167" lon="-1.739121667"><ele>164.000000</ele><time>2010-06-30T10:08:48Z</time></trkpt>
	<trkpt lat="51.985815" lon="-1.739121667"><ele>164.000000</ele><time>2010-06-30T10:08:53Z</time></trkpt>
	<trkpt lat="51.98581167" lon="-1.739123333"><ele>164.000000</ele><time>2010-06-30T10:08:58Z</time></trkpt>
	<trkpt lat="51.985805" lon="-1.739123333"><ele>163.000000</ele><time>2010-06-30T10:09:03Z</time></trkpt>
	<trkpt lat="51.98580167" lon="-1.73913"><ele>162.000000</ele><time>2010-06-30T10:09:08Z</time></trkpt>
	<trkpt lat="51.98579833" lon="-1.73913"><ele>161.000000</ele><time>2010-06-30T10:09:13Z</time></trkpt>
	<trkpt lat="51.98579833" lon="-1.73913"><ele>159.000000</ele><time>2010-06-30T10:09:18Z</time></trkpt>
	<trkpt lat="51.98579833" lon="-1.739125"><ele>158.000000</ele><time>2010-06-30T10:09:23Z</time></trkpt>
	<trkpt lat="51.985805" lon="-1.739116667"><ele>153.000000</ele><time>2010-06-30T10:09:28Z</time></trkpt>
	<trkpt lat="51.98580667" lon="-1.739115"><ele>149.000000</ele><time>2010-06-30T10:09:33Z</time></trkpt>
	<trkpt lat="51.985805" lon="-1.739101667"><ele>146.000000</ele><time>2010-06-30T10:09:38Z</time></trkpt>
	<trkpt lat="51.98581" lon="-1.739095"><ele>146.000000</ele><time>2010-06-30T10:09:43Z</time></trkpt>
	<trkpt lat="51.9858" lon="-1.739118333"><ele>146.000000</ele><time>2010-06-30T10:09:48Z</time></trkpt>
	<trkpt lat="51.98579167" lon="-1.739143333"><ele>146.000000</ele><time>2010-06-30T10:09:53Z</time></trkpt>
	<trkpt lat="51.98578333" lon="-1.739151667"><ele>147.000000</ele><time>2010-06-30T10:09:58Z</time></trkpt>
	<trkpt lat="51.98577333" lon="-1.739165"><ele>148.000000</ele><time>2010-06-30T10:10:03Z</time></trkpt>
	<trkpt lat="51.98577333" lon="-1.73918"><ele>146.000000</ele><time>2010-06-30T10:10:08Z</time></trkpt>
	<trkpt lat="51.98577167" lon="-1.739183333"><ele>144.000000</ele><time>2010-06-30T10:10:13Z</time></trkpt>
	<trkpt lat="51.98578" lon="-1.739175"><ele>145.000000</ele><time>2010-06-30T10:10:18Z</time></trkpt>
	<trkpt lat="51.98583167" lon="-1.739206667"><ele>151.000000</ele><time>2010-06-30T10:10:23Z</time></trkpt>
	<trkpt lat="51.98585833" lon="-1.739216667"><ele>152.000000</ele><time>2010-06-30T10:10:28Z</time></trkpt>
	<trkpt lat="51.98587167" lon="-1.739223333"><ele>152.000000</ele><time>2010-06-30T10:10:33Z</time></trkpt>
	<trkpt lat="51.98587833" lon="-1.73923"><ele>154.000000</ele><time>2010-06-30T10:10:38Z</time></trkpt>
	<trkpt lat="51.98587833" lon="-1.739216667"><ele>152.000000</ele><time>2010-06-30T10:10:43Z</time></trkpt>
	<trkpt lat="51.985875" lon="-1.739201667"><ele>151.000000</ele><time>2010-06-30T10:10:48Z</time></trkpt>
	<trkpt lat="51.98586" lon="-1.73919"><ele>149.000000</ele><time>2010-06-30T10:10:53Z</time></trkpt>
	<trkpt lat="51.98585833" lon="-1.739186667"><ele>148.000000</ele><time>2010-06-30T10:10:58Z</time></trkpt>
	<trkpt lat="51.98587167" lon="-1.739175"><ele>151.000000</ele><time>2010-06-30T10:11:03Z</time></trkpt>
	<trkpt lat="51.98586167" lon="-1.739168333"><ele>152.000000</ele><time>2010-06-30T10:11:08Z</time></trkpt>
	<trkpt lat="51.98584333" lon="-1.73917"><ele>151.000000</ele><time>2010-06-30T10:11:13Z</time></trkpt>
	<trkpt lat="51.98583833" lon="-1.739165"><ele>152.000000</ele><time>2010-06-30T10:11:18Z</time></trkpt>
	<trkpt lat="51.98584667" lon="-1.739155"><ele>150.000000</ele><time>2010-06-30T10:11:23Z</time></trkpt>
	<trkpt lat="51.985845" lon="-1.739155"><ele>151.000000</ele><time>2010-06-30T10:11:28Z</time></trkpt>
	<trkpt lat="51.98584333" lon="-1.739151667"><ele>150.000000</ele><time>2010-06-30T10:11:33Z</time></trkpt>
	<trkpt lat="51.98584167" lon="-1.73915"><ele>150.000000</ele><time>2010-06-30T10:11:38Z</time></trkpt>
	<trkpt lat="51.98585333" lon="-1.73913"><ele>151.000000</ele><time>2010-06-30T10:11:43Z</time></trkpt>
	<trkpt lat="51.98585" lon="-1.739125"><ele>152.000000</ele><time>2010-06-30T10:11:48Z</time></trkpt>
	<trkpt lat="51.98584667" lon="-1.739115"><ele>152.000000</ele><time>2010-06-30T10:11:53Z</time></trkpt>
	<trkpt lat="51.98584667" lon="-1.739103333"><ele>153.000000</ele><time>2010-06-30T10:11:58Z</time></trkpt>
	<trkpt lat="51.98582833" lon="-1.73909"><ele>156.000000</ele><time>2010-06-30T10:12:03Z</time></trkpt>
	<trkpt lat="51.98581167" lon="-1.73906"><ele>161.000000</ele><time>2010-06-30T10:12:08Z</time></trkpt>
	<trkpt lat="51.98580167" lon="-1.739033333"><ele>165.000000</ele><time>2010-06-30T10:12:13Z</time></trkpt>
	<trkpt lat="51.98581" lon="-1.739016667"><ele>161.000000</ele><time>2010-06-30T10:12:18Z</time></trkpt>
	<trkpt lat="51.985835" lon="-1.73901"><ele>162.000000</ele><time>2010-06-30T10:12:23Z</time></trkpt>
	<trkpt lat="51.98583833" lon="-1.739023333"><ele>163.000000</ele><time>2010-06-30T10:12:28Z</time></trkpt>
	<trkpt lat="51.98584333" lon="-1.73901"><ele>168.000000</ele><time>2010-06-30T10:12:33Z</time></trkpt>
	<trkpt lat="51.98583667" lon="-1.73903"><ele>171.000000</ele><time>2010-06-30T10:12:38Z</time></trkpt>
	<trkpt lat="51.98584833" lon="-1.739041667"><ele>170.000000</ele><time>2010-06-30T10:12:43Z</time></trkpt>
	<trkpt lat="51.98586333" lon="-1.73908"><ele>166.000000</ele><time>2010-06-30T10:12:48Z</time></trkpt>
	<trkpt lat="51.98586667" lon="-1.739088333"><ele>168.000000</ele><time>2010-06-30T10:12:53Z</time></trkpt>
	<trkpt lat="51.985855" lon="-1.739093333"><ele>167.000000</ele><time>2010-06-30T10:12:58Z</time></trkpt>
	<trkpt lat="51.98585" lon="-1.739085"><ele>166.000000</ele><time>2010-06-30T10:13:03Z</time></trkpt>
	<trkpt lat="51.985835" lon="-1.739118333"><ele>165.000000</ele><time>2010-06-30T10:13:08Z</time></trkpt>
	<trkpt lat="51.98583" lon="-1.739156667"><ele>164.000000</ele><time>2010-06-30T10:13:13Z</time></trkpt>
	<trkpt lat="51.98581333" lon="-1.73919"><ele>165.000000</ele><time>2010-06-30T10:13:18Z</time></trkpt>
	<trkpt lat="51.98580167" lon="-1.739233333"><ele>164.000000</ele><time>2010-06-30T10:13:23Z</time></trkpt>
	<trkpt lat="51.98579" lon="-1.739238333"><ele>161.000000</ele><time>2010-06-30T10:13:28Z</time></trkpt>
	<trkpt lat="51.98578167" lon="-1.739256667"><ele>160.000000</ele><time>2010-06-30T10:13:33Z</time></trkpt>
	<trkpt lat="51.98578667" lon="-1.739246667"><ele>159.000000</ele><time>2010-06-30T10:13:38Z</time></trkpt>
	<trkpt lat="51.98579" lon="-1.739236667"><ele>159.000000</ele><time>2010-06-30T10:13:43Z</time></trkpt>
	<trkpt lat="51.98578833" lon="-1.739233333"><ele>160.000000</ele><time>2010-06-30T10:13:48Z</time></trkpt>
	<trkpt lat="51.98579167" lon="-1.739231667"><ele>161.000000</ele><time>2010-06-30T10:13:53Z</time></trkpt>
	<trkpt lat="51.98579" lon="-1.739236667"><ele>161.000000</ele><time>2010-06-30T10:13:58Z</time></trkpt>
	<trkpt lat="51.98578333" lon="-1.739241667"><ele>161.000000</ele><time>2010-06-30T10:14:03Z</time></trkpt>
	<trkpt lat="51.98577833" lon="-1.73924"><ele>165.000000</ele><time>2010-06-30T10:14:08Z</time></trkpt>
	<trkpt lat="51.985765" lon="-1.739233333"><ele>163.000000</ele><time>2010-06-30T10:14:13Z</time></trkpt>
	<trkpt lat="51.98576667" lon="-1.739253333"><ele>163.000000</ele><time>2010-06-30T10:14:18Z</time></trkpt>
	<trkpt lat="51.98576333" lon="-1.739293333"><ele>161.000000</ele><time>2010-06-30T10:14:23Z</time></trkpt>
	<trkpt lat="51.98577167" lon="-1.73937"><ele>162.000000</ele><time>2010-06-30T10:14:28Z</time></trkpt>
	<trkpt lat="51.98579833" lon="-1.739421667"><ele>165.000000</ele><time>2010-06-30T10:14:33Z</time></trkpt>
	<trkpt lat="51.98581333" lon="-1.739456667"><ele>166.000000</ele><time>2010-06-30T10:14:38Z</time></trkpt>
	<trkpt lat="51.98582833" lon="-1.739523333"><ele>168.000000</ele><time>2010-06-30T10:14:43Z</time></trkpt>
	<trkpt lat="51.985835" lon="-1.73959"><ele>170.000000</ele><time>2010-06-30T10:14:48Z</time></trkpt>
	<trkpt lat="51.98585333" lon="-1.739661667"><ele>174.000000</ele><time>2010-06-30T10:14:53Z</time></trkpt>
	<trkpt lat="51.98586667" lon="-1.739725"><ele>176.000000</ele><time>2010-06-30T10:14:58Z</time></trkpt>
	<trkpt lat="51.98587167" lon="-1.739753333"><ele>177.000000</ele><time>2010-06-30T10:15:03Z</time></trkpt>
	<trkpt lat="51.98586667" lon="-1.739758333"><ele>175.000000</ele><time>2010-06-30T10:15:08Z</time></trkpt>
	<trkpt lat="51.98586333" lon="-1.739768333"><ele>170.000000</ele><time>2010-06-30T10:15:13Z</time></trkpt>
	<trkpt lat="51.98585833" lon="-1.739781667"><ele>171.000000</ele><time>2010-06-30T10:15:18Z</time></trkpt>
	<trkpt lat="51.98586" lon="-1.739781667"><ele>168.000000</ele><time>2010-06-30T10:15:23Z</time></trkpt>
	<trkpt lat="51.98586" lon="-1.739781667"><ele>166.000000</ele><time>2010-06-30T10:15:28Z</time></trkpt>
	<trkpt lat="51.98586333" lon="-1.739796667"><ele>164.000000</ele><time>2010-06-30T10:15:33Z</time></trkpt>
	<trkpt lat="51.98586667" lon="-1.739831667"><ele>161.000000</ele><time>2010-06-30T10:15:38Z</time></trkpt>
	<trkpt lat="51.985885" lon="-1.73991"><ele>159.000000</ele><time>2010-06-30T10:15:43Z</time></trkpt>
	<trkpt lat="51.9859" lon="-1.739991667"><ele>158.000000</ele><time>2010-06-30T10:15:48Z</time></trkpt>
	<trkpt lat="51.98593" lon="-1.740071667"><ele>159.000000</ele><time>2010-06-30T10:15:53Z</time></trkpt>
	<trkpt lat="51.98596667" lon="-1.740131667"><ele>160.000000</ele><time>2010-06-30T10:15:58Z</time></trkpt>
	<trkpt lat="51.98598833" lon="-1.740136667"><ele>159.000000</ele><time>2010-06-30T10:16:03Z</time></trkpt>
	<trkpt lat="51.98604667" lon="-1.740131667"><ele>157.000000</ele><time>2010-06-30T10:16:08Z</time></trkpt>
	<trkpt lat="51.98610167" lon="-1.740121667"><ele>158.000000</ele><time>2010-06-30T10:16:13Z</time></trkpt>
	<trkpt lat="51.986145" lon="-1.740103333"><ele>161.000000</ele><time>2010-06-30T10:16:18Z</time></trkpt>
	<trkpt lat="51.98618333" lon="-1.740075"><ele>162.000000</ele><time>2010-06-30T10:16:23Z</time></trkpt>
	<trkpt lat="51.98623333" lon="-1.740051667"><ele>163.000000</ele><time>2010-06-30T10:16:28Z</time></trkpt>
	<trkpt lat="51.98627" lon="-1.740028333"><ele>165.000000</ele><time>2010-06-30T10:16:33Z</time></trkpt>
	<trkpt lat="51.98629833" lon="-1.740001667"><ele>164.000000</ele><time>2010-06-30T10:16:38Z</time></trkpt>
	<trkpt lat="51.98631167" lon="-1.73998"><ele>162.000000</ele><time>2010-06-30T10:16:43Z</time></trkpt>
	<trkpt lat="51.98635667" lon="-1.739968333"><ele>162.000000</ele><time>2010-06-30T10:16:48Z</time></trkpt>
	<trkpt lat="51.98640833" lon="-1.739943333"><ele>161.000000</ele><time>2010-06-30T10:16:53Z</time></trkpt>
	<trkpt lat="51.98645833" lon="-1.739921667"><ele>162.000000</ele><time>2010-06-30T10:16:58Z</time></trkpt>
	<trkpt lat="51.98650167" lon="-1.73991"><ele>162.000000</ele><time>2010-06-30T10:17:03Z</time></trkpt>
	<trkpt lat="51.98654833" lon="-1.739875"><ele>162.000000</ele><time>2010-06-30T10:17:08Z</time></trkpt>
	<trkpt lat="51.98659833" lon="-1.739846667"><ele>163.000000</ele><time>2010-06-30T10:17:13Z</time></trkpt>
	<trkpt lat="51.98663333" lon="-1.73985"><ele>163.000000</ele><time>2010-06-30T10:17:18Z</time></trkpt>
	<trkpt lat="51.98666333" lon="-1.739831667"><ele>167.000000</ele><time>2010-06-30T10:17:23Z</time></trkpt>
	<trkpt lat="51.98670667" lon="-1.739815"><ele>167.000000</ele><time>2010-06-30T10:17:28Z</time></trkpt>
	<trkpt lat="51.98674667" lon="-1.739778333"><ele>166.000000</ele><time>2010-06-30T10:17:33Z</time></trkpt>
	<trkpt lat="51.98679333" lon="-1.739771667"><ele>166.000000</ele><time>2010-06-30T10:17:38Z</time></trkpt>
	<trkpt lat="51.98683333" lon="-1.739761667"><ele>169.000000</ele><time>2010-06-30T10:17:43Z</time></trkpt>
	<trkpt lat="51.98687833" lon="-1.739738333"><ele>169.000000</ele><time>2010-06-30T10:17:48Z</time></trkpt>
	<trkpt lat="51.98693333" lon="-1.739708333"><ele>170.000000</ele><time>2010-06-30T10:17:53Z</time></trkpt>
	<trkpt lat="51.98697167" lon="-1.739686667"><ele>168.000000</ele><time>2010-06-30T10:17:58Z</time></trkpt>
	<trkpt lat="51.987" lon="-1.739686667"><ele>169.000000</ele><time>2010-06-30T10:18:03Z</time></trkpt>
	<trkpt lat="51.987035" lon="-1.739691667"><ele>169.000000</ele><time>2010-06-30T10:18:08Z</time></trkpt>
	<trkpt lat="51.98706667" lon="-1.73968"><ele>169.000000</ele><time>2010-06-30T10:18:13Z</time></trkpt>
	<trkpt lat="51.98713333" lon="-1.739628333"><ele>165.000000</ele><time>2010-06-30T10:18:18Z</time></trkpt>
	<trkpt lat="51.987175" lon="-1.739611667"><ele>164.000000</ele><time>2010-06-30T10:18:23Z</time></trkpt>
	<trkpt lat="51.98722" lon="-1.7396"><ele>162.000000</ele><time>2010-06-30T10:18:28Z</time></trkpt>
	<trkpt lat="51.98723667" lon="-1.739581667"><ele>161.000000</ele><time>2010-06-30T10:18:33Z</time></trkpt>
	<trkpt lat="51.98724333" lon="-1.739566667"><ele>158.000000</ele><time>2010-06-30T10:18:38Z</time></trkpt>
	<trkpt lat="51.98724333" lon="-1.739553333"><ele>155.000000</ele><time>2010-06-30T10:18:43Z</time></trkpt>
	<trkpt lat="51.98725333" lon="-1.73956"><ele>154.000000</ele><time>2010-06-30T10:18:48Z</time></trkpt>
	<trkpt lat="51.98725833" lon="-1.73956"><ele>153.000000</ele><time>2010-06-30T10:18:53Z</time></trkpt>
	<trkpt lat="51.98726333" lon="-1.739565"><ele>152.000000</ele><time>2010-06-30T10:18:58Z</time></trkpt>
	<trkpt lat="51.987265" lon="-1.739566667"><ele>152.000000</ele><time>2010-06-30T10:19:03Z</time></trkpt>
	<trkpt lat="51.98726667" lon="-1.739571667"><ele>152.000000</ele><time>2010-06-30T10:19:08Z</time></trkpt>
	<trkpt lat="51.98726667" lon="-1.739568333"><ele>152.000000</ele><time>2010-06-30T10:19:13Z</time></trkpt>
	<trkpt lat="51.98727333" lon="-1.739571667"><ele>151.000000</ele><time>2010-06-30T10:19:18Z</time></trkpt>
	<trkpt lat="51.98726833" lon="-1.739543333"><ele>150.000000</ele><time>2010-06-30T10:19:23Z</time></trkpt>
	<trkpt lat="51.98726333" lon="-1.739515"><ele>149.000000</ele><time>2010-06-30T10:19:28Z</time></trkpt>
	<trkpt lat="51.98725333" lon="-1.739516667"><ele>154.000000</ele><time>2010-06-30T10:19:33Z</time></trkpt>
	<trkpt lat="51.98728" lon="-1.739573333"><ele>157.000000</ele><time>2010-06-30T10:19:38Z</time></trkpt>
	<trkpt lat="51.98729333" lon="-1.73961"><ele>158.000000</ele><time>2010-06-30T10:19:43Z</time></trkpt>
	<trkpt lat="51.987305" lon="-1.73967"><ele>160.000000</ele><time>2010-06-30T10:19:48Z</time></trkpt>
	<trkpt lat="51.98732" lon="-1.739745"><ele>161.000000</ele><time>2010-06-30T10:19:53Z</time></trkpt>
	<trkpt lat="51.98733333" lon="-1.739841667"><ele>163.000000</ele><time>2010-06-30T10:19:58Z</time></trkpt>
	<trkpt lat="51.98733667" lon="-1.739925"><ele>165.000000</ele><time>2010-06-30T10:20:03Z</time></trkpt>
	<trkpt lat="51.98735" lon="-1.740001667"><ele>166.000000</ele><time>2010-06-30T10:20:08Z</time></trkpt>
	<trkpt lat="51.987365" lon="-1.740075"><ele>167.000000</ele><time>2010-06-30T10:20:13Z</time></trkpt>
	<trkpt lat="51.98737833" lon="-1.740125"><ele>167.000000</ele><time>2010-06-30T10:20:18Z</time></trkpt>
	<trkpt lat="51.98738833" lon="-1.740163333"><ele>166.000000</ele><time>2010-06-30T10:20:23Z</time></trkpt>
	<trkpt lat="51.987405" lon="-1.740231667"><ele>166.000000</ele><time>2010-06-30T10:20:28Z</time></trkpt>
	<trkpt lat="51.98742333" lon="-1.74026"><ele>162.000000</ele><time>2010-06-30T10:20:33Z</time></trkpt>
	<trkpt lat="51.98742667" lon="-1.740266667"><ele>160.000000</ele><time>2010-06-30T10:20:38Z</time></trkpt>
	<trkpt lat="51.987425" lon="-1.740265"><ele>160.000000</ele><time>2010-06-30T10:20:43Z</time></trkpt>
	<trkpt lat="51.98743" lon="-1.74031"><ele>160.000000</ele><time>2010-06-30T10:20:48Z</time></trkpt>
	<trkpt lat="51.98745" lon="-1.740385"><ele>161.000000</ele><time>2010-06-30T10:20:53Z</time></trkpt>
	<trkpt lat="51.987465" lon="-1.74046"><ele>162.000000</ele><time>2010-06-30T10:20:58Z</time></trkpt>
	<trkpt lat="51.98748" lon="-1.740531667"><ele>164.000000</ele><time>2010-06-30T10:21:03Z</time></trkpt>
	<trkpt lat="51.98750167" lon="-1.740605"><ele>166.000000</ele><time>2010-06-30T10:21:08Z</time></trkpt>
	<trkpt lat="51.98751833" lon="-1.740688333"><ele>167.000000</ele><time>2010-06-30T10:21:13Z</time></trkpt>
	<trkpt lat="51.98753333" lon="-1.74077"><ele>168.000000</ele><time>2010-06-30T10:21:18Z</time></trkpt>
	<trkpt lat="51.98755333" lon="-1.74085"><ele>168.000000</ele><time>2010-06-30T10:21:23Z</time></trkpt>
	<trkpt lat="51.98757833" lon="-1.740925"><ele>168.000000</ele><time>2010-06-30T10:21:28Z</time></trkpt>
	<trkpt lat="51.987595" lon="-1.740988333"><ele>168.000000</ele><time>2010-06-30T10:21:33Z</time></trkpt>
	<trkpt lat="51.98761" lon="-1.741045"><ele>168.000000</ele><time>2010-06-30T10:21:38Z</time></trkpt>
	<trkpt lat="51.98762167" lon="-1.741065"><ele>166.000000</ele><time>2010-06-30T10:21:43Z</time></trkpt>
	<trkpt lat="51.98763" lon="-1.741098333"><ele>165.000000</ele><time>2010-06-30T10:21:48Z</time></trkpt>
	<trkpt lat="51.98763" lon="-1.741113333"><ele>165.000000</ele><time>2010-06-30T10:21:53Z</time></trkpt>
	<trkpt lat="51.98763" lon="-1.741111667"><ele>164.000000</ele><time>2010-06-30T10:21:58Z</time></trkpt>
	<trkpt lat="51.98763" lon="-1.741111667"><ele>165.000000</ele><time>2010-06-30T10:22:03Z</time></trkpt>
	<trkpt lat="51.98763333" lon="-1.74111"><ele>164.000000</ele><time>2010-06-30T10:22:08Z</time></trkpt>
	<trkpt lat="51.98764" lon="-1.74113"><ele>164.000000</ele><time>2010-06-30T10:22:13Z</time></trkpt>
	<trkpt lat="51.98764333" lon="-1.741133333"><ele>163.000000</ele><time>2010-06-30T10:22:18Z</time></trkpt>
	<trkpt lat="51.98764167" lon="-1.741133333"><ele>163.000000</ele><time>2010-06-30T10:22:23Z</time></trkpt>
	<trkpt lat="51.98764" lon="-1.741133333"><ele>162.000000</ele><time>2010-06-30T10:22:28Z</time></trkpt>
	<trkpt lat="51.98765167" lon="-1.74116"><ele>161.000000</ele><time>2010-06-30T10:22:33Z</time></trkpt>
	<trkpt lat="51.98766333" lon="-1.741205"><ele>162.000000</ele><time>2010-06-30T10:22:38Z</time></trkpt>
	<trkpt lat="51.987675" lon="-1.741281667"><ele>162.000000</ele><time>2010-06-30T10:22:43Z</time></trkpt>
	<trkpt lat="51.98768667" lon="-1.741345"><ele>163.000000</ele><time>2010-06-30T10:22:48Z</time></trkpt>
	<trkpt lat="51.98768667" lon="-1.741356667"><ele>163.000000</ele><time>2010-06-30T10:22:53Z</time></trkpt>
	<trkpt lat="51.987685" lon="-1.741356667"><ele>163.000000</ele><time>2010-06-30T10:22:58Z</time></trkpt>
	<trkpt lat="51.98769" lon="-1.741373333"><ele>163.000000</ele><time>2010-06-30T10:23:03Z</time></trkpt>
	<trkpt lat="51.9877" lon="-1.741413333"><ele>162.000000</ele><time>2010-06-30T10:23:08Z</time></trkpt>
	<trkpt lat="51.98769833" lon="-1.741418333"><ele>161.000000</ele><time>2010-06-30T10:23:13Z</time></trkpt>
	<trkpt lat="51.98769333" lon="-1.741418333"><ele>160.000000</ele><time>2010-06-30T10:23:18Z</time></trkpt>
	<trkpt lat="51.98769333" lon="-1.741438333"><ele>161.000000</ele><time>2010-06-30T10:23:23Z</time></trkpt>
	<trkpt lat="51.98771333" lon="-1.741486667"><ele>161.000000</ele><time>2010-06-30T10:23:28Z</time></trkpt>
	<trkpt lat="51.98773" lon="-1.74157"><ele>162.000000</ele><time>2010-06-30T10:23:33Z</time></trkpt>
	<trkpt lat="51.98775" lon="-1.74165"><ele>162.000000</ele><time>2010-06-30T10:23:38Z</time></trkpt>
	<trkpt lat="51.98777167" lon="-1.741726667"><ele>163.000000</ele><time>2010-06-30T10:23:43Z</time></trkpt>
	<trkpt lat="51.98778667" lon="-1.741806667"><ele>164.000000</ele><time>2010-06-30T10:23:48Z</time></trkpt>
	<trkpt lat="51.98780333" lon="-1.741886667"><ele>165.000000</ele><time>2010-06-30T10:23:53Z</time></trkpt>
	<trkpt lat="51.98782167" lon="-1.741963333"><ele>166.000000</ele><time>2010-06-30T10:23:58Z</time></trkpt>
	<trkpt lat="51.98784" lon="-1.742041667"><ele>167.000000</ele><time>2010-06-30T10:24:03Z</time></trkpt>
	<trkpt lat="51.98786167" lon="-1.74213"><ele>169.000000</ele><time>2010-06-30T10:24:08Z</time></trkpt>
	<trkpt lat="51.98788167" lon="-1.742208333"><ele>170.000000</ele><time>2010-06-30T10:24:13Z</time></trkpt>
	<trkpt lat="51.98790167" lon="-1.742285"><ele>171.000000</ele><time>2010-06-30T10:24:18Z</time></trkpt>
	<trkpt lat="51.98792167" lon="-1.742361667"><ele>171.000000</ele><time>2010-06-30T10:24:23Z</time></trkpt>
	<trkpt lat="51.98793833" lon="-1.742436667"><ele>171.000000</ele><time>2010-06-30T10:24:28Z</time></trkpt>
	<trkpt lat="51.98795833" lon="-1.742515"><ele>173.000000</ele><time>2010-06-30T10:24:33Z</time></trkpt>
	<trkpt lat="51.98797667" lon="-1.742596667"><ele>173.000000</ele><time>2010-06-30T10:24:38Z</time></trkpt>
	<trkpt lat="51.98799667" lon="-1.742671667"><ele>173.000000</ele><time>2010-06-30T10:24:43Z</time></trkpt>
	<trkpt lat="51.98802" lon="-1.742755"><ele>173.000000</ele><time>2010-06-30T10:24:48Z</time></trkpt>
	<trkpt lat="51.98803833" lon="-1.742831667"><ele>174.000000</ele><time>2010-06-30T10:24:53Z</time></trkpt>
	<trkpt lat="51.98805667" lon="-1.742906667"><ele>174.000000</ele><time>2010-06-30T10:24:58Z</time></trkpt>
	<trkpt lat="51.98807833" lon="-1.74298"><ele>173.000000</ele><time>2010-06-30T10:25:03Z</time></trkpt>
	<trkpt lat="51.98809333" lon="-1.743053333"><ele>172.000000</ele><time>2010-06-30T10:25:08Z</time></trkpt>
	<trkpt lat="51.98811333" lon="-1.743131667"><ele>172.000000</ele><time>2010-06-30T10:25:13Z</time></trkpt>
	<trkpt lat="51.98813" lon="-1.7432"><ele>172.000000</ele><time>2010-06-30T10:25:18Z</time></trkpt>
	<trkpt lat="51.988145" lon="-1.743248333"><ele>172.000000</ele><time>2010-06-30T10:25:23Z</time></trkpt>
	<trkpt lat="51.98814667" lon="-1.743253333"><ele>171.000000</ele><time>2010-06-30T10:25:28Z</time></trkpt>
	<trkpt lat="51.98814667" lon="-1.74325"><ele>170.000000</ele><time>2010-06-30T10:25:33Z</time></trkpt>
	<trkpt lat="51.98815167" lon="-1.743271667"><ele>170.000000</ele><time>2010-06-30T10:25:38Z</time></trkpt>
	<trkpt lat="51.98815833" lon="-1.743328333"><ele>168.000000</ele><time>2010-06-30T10:25:43Z</time></trkpt>
	<trkpt lat="51.988175" lon="-1.743396667"><ele>169.000000</ele><time>2010-06-30T10:25:48Z</time></trkpt>
	<trkpt lat="51.98819167" lon="-1.743455"><ele>168.000000</ele><time>2010-06-30T10:25:53Z</time></trkpt>
	<trkpt lat="51.98819667" lon="-1.743468333"><ele>167.000000</ele><time>2010-06-30T10:25:58Z</time></trkpt>
	<trkpt lat="51.98820667" lon="-1.74349"><ele>167.000000</ele><time>2010-06-30T10:26:03Z</time></trkpt>
	<trkpt lat="51.988205" lon="-1.743488333"><ele>168.000000</ele><time>2010-06-30T10:26:08Z</time></trkpt>
	<trkpt lat="51.98821167" lon="-1.743501667"><ele>167.000000</ele><time>2010-06-30T10:26:13Z</time></trkpt>
	<trkpt lat="51.98821833" lon="-1.743521667"><ele>166.000000</ele><time>2010-06-30T10:26:18Z</time></trkpt>
	<trkpt lat="51.988225" lon="-1.743575"><ele>166.000000</ele><time>2010-06-30T10:26:23Z</time></trkpt>
	<trkpt lat="51.988235" lon="-1.743645"><ele>167.000000</ele><time>2010-06-30T10:26:28Z</time></trkpt>
	<trkpt lat="51.98824667" lon="-1.743713333"><ele>169.000000</ele><time>2010-06-30T10:26:33Z</time></trkpt>
	<trkpt lat="51.98826667" lon="-1.743788333"><ele>171.000000</ele><time>2010-06-30T10:26:38Z</time></trkpt>
	<trkpt lat="51.988285" lon="-1.743856667"><ele>174.000000</ele><time>2010-06-30T10:26:43Z</time></trkpt>
	<trkpt lat="51.98830167" lon="-1.743925"><ele>176.000000</ele><time>2010-06-30T10:26:48Z</time></trkpt>
	<trkpt lat="51.988315" lon="-1.74399"><ele>178.000000</ele><time>2010-06-30T10:26:53Z</time></trkpt>
	<trkpt lat="51.98832667" lon="-1.744051667"><ele>179.000000</ele><time>2010-06-30T10:26:58Z</time></trkpt>
	<trkpt lat="51.98834833" lon="-1.744126667"><ele>180.000000</ele><time>2010-06-30T10:27:03Z</time></trkpt>
	<trkpt lat="51.98836167" lon="-1.744205"><ele>181.000000</ele><time>2010-06-30T10:27:08Z</time></trkpt>
	<trkpt lat="51.98837167" lon="-1.744281667"><ele>183.000000</ele><time>2010-06-30T10:27:13Z</time></trkpt>
	<trkpt lat="51.988375" lon="-1.744355"><ele>182.000000</ele><time>2010-06-30T10:27:18Z</time></trkpt>
	<trkpt lat="51.98838" lon="-1.744435"><ele>180.000000</ele><time>2010-06-30T10:27:23Z</time></trkpt>
	<trkpt lat="51.98838167" lon="-1.744521667"><ele>178.000000</ele><time>2010-06-30T10:27:28Z</time></trkpt>
	<trkpt lat="51.988385" lon="-1.744595"><ele>176.000000</ele><time>2010-06-30T10:27:33Z</time></trkpt>
	<trkpt lat="51.98839167" lon="-1.744681667"><ele>175.000000</ele><time>2010-06-30T10:27:38Z</time></trkpt>
	<trkpt lat="51.98839167" lon="-1.74476"><ele>174.000000</ele><time>2010-06-30T10:27:43Z</time></trkpt>
	<trkpt lat="51.98838667" lon="-1.74484"><ele>174.000000</ele><time>2010-06-30T10:27:48Z</time></trkpt>
	<trkpt lat="51.98838667" lon="-1.74492"><ele>174.000000</ele><time>2010-06-30T10:27:53Z</time></trkpt>
	<trkpt lat="51.98838667" lon="-1.74498"><ele>173.000000</ele><time>2010-06-30T10:27:58Z</time></trkpt>
	<trkpt lat="51.98838667" lon="-1.745068333"><ele>174.000000</ele><time>2010-06-30T10:28:03Z</time></trkpt>
	<trkpt lat="51.988385" lon="-1.745148333"><ele>175.000000</ele><time>2010-06-30T10:28:08Z</time></trkpt>
	<trkpt lat="51.98838667" lon="-1.745233333"><ele>176.000000</ele><time>2010-06-30T10:28:13Z</time></trkpt>
	<trkpt lat="51.98839833" lon="-1.745315"><ele>177.000000</ele><time>2010-06-30T10:28:18Z</time></trkpt>
	<trkpt lat="51.98841167" lon="-1.745395"><ele>178.000000</ele><time>2010-06-30T10:28:23Z</time></trkpt>
	<trkpt lat="51.98843" lon="-1.745466667"><ele>179.000000</ele><time>2010-06-30T10:28:28Z</time></trkpt>
	<trkpt lat="51.988445" lon="-1.745538333"><ele>180.000000</ele><time>2010-06-30T10:28:33Z</time></trkpt>
	<trkpt lat="51.98845167" lon="-1.745618333"><ele>179.000000</ele><time>2010-06-30T10:28:38Z</time></trkpt>
	<trkpt lat="51.98847" lon="-1.745686667"><ele>178.000000</ele><time>2010-06-30T10:28:43Z</time></trkpt>
	<trkpt lat="51.988475" lon="-1.74576"><ele>179.000000</ele><time>2010-06-30T10:28:48Z</time></trkpt>
	<trkpt lat="51.98848167" lon="-1.745835"><ele>179.000000</ele><time>2010-06-30T10:28:53Z</time></trkpt>
	<trkpt lat="51.988485" lon="-1.745911667"><ele>180.000000</ele><time>2010-06-30T10:28:58Z</time></trkpt>
	<trkpt lat="51.98848833" lon="-1.745978333"><ele>181.000000</ele><time>2010-06-30T10:29:03Z</time></trkpt>
	<trkpt lat="51.98850667" lon="-1.74601"><ele>179.000000</ele><time>2010-06-30T10:29:08Z</time></trkpt>
	<trkpt lat="51.98851167" lon="-1.746053333"><ele>179.000000</ele><time>2010-06-30T10:29:13Z</time></trkpt>
	<trkpt lat="51.98851333" lon="-1.746108333"><ele>181.000000</ele><time>2010-06-30T10:29:18Z</time></trkpt>
	<trkpt lat="51.988515" lon="-1.746113333"><ele>180.000000</ele><time>2010-06-30T10:29:23Z</time></trkpt>
	<trkpt lat="51.98851833" lon="-1.74612"><ele>179.000000</ele><time>2010-06-30T10:29:28Z</time></trkpt>
	<trkpt lat="51.988535" lon="-1.746123333"><ele>175.000000</ele><time>2010-06-30T10:29:33Z</time></trkpt>
	<trkpt lat="51.98853" lon="-1.746138333"><ele>174.000000</ele><time>2010-06-30T10:29:38Z</time></trkpt>
	<trkpt lat="51.98853" lon="-1.746156667"><ele>176.000000</ele><time>2010-06-30T10:29:43Z</time></trkpt>
	<trkpt lat="51.98851167" lon="-1.746218333"><ele>176.000000</ele><time>2010-06-30T10:29:48Z</time></trkpt>
	<trkpt lat="51.988515" lon="-1.746281667"><ele>175.000000</ele><time>2010-06-30T10:29:53Z</time></trkpt>
	<trkpt lat="51.988515" lon="-1.746351667"><ele>175.000000</ele><time>2010-06-30T10:29:58Z</time></trkpt>
	<trkpt lat="51.98850667" lon="-1.74641"><ele>174.000000</ele><time>2010-06-30T10:30:03Z</time></trkpt>
	<trkpt lat="51.98849667" lon="-1.746475"><ele>173.000000</ele><time>2010-06-30T10:30:08Z</time></trkpt>
	<trkpt lat="51.98848167" lon="-1.746536667"><ele>173.000000</ele><time>2010-06-30T10:30:13Z</time></trkpt>
	<trkpt lat="51.98845333" lon="-1.74658"><ele>174.000000</ele><time>2010-06-30T10:30:18Z</time></trkpt>
	<trkpt lat="51.98842167" lon="-1.746623333"><ele>174.000000</ele><time>2010-06-30T10:30:23Z</time></trkpt>
	<trkpt lat="51.98839333" lon="-1.74666"><ele>175.000000</ele><time>2010-06-30T10:30:28Z</time></trkpt>
	<trkpt lat="51.98836" lon="-1.746695"><ele>176.000000</ele><time>2010-06-30T10:30:33Z</time></trkpt>
	<trkpt lat="51.98832" lon="-1.746725"><ele>177.000000</ele><time>2010-06-30T10:30:38Z</time></trkpt>
	<trkpt lat="51.98828" lon="-1.746755"><ele>177.000000</ele><time>2010-06-30T10:30:43Z</time></trkpt>
	<trkpt lat="51.98824" lon="-1.746781667"><ele>178.000000</ele><time>2010-06-30T10:30:48Z</time></trkpt>
	<trkpt lat="51.98819833" lon="-1.746795"><ele>178.000000</ele><time>2010-06-30T10:30:53Z</time></trkpt>
	<trkpt lat="51.98814667" lon="-1.746795"><ele>178.000000</ele><time>2010-06-30T10:30:58Z</time></trkpt>
	<trkpt lat="51.98809333" lon="-1.746785"><ele>178.000000</ele><time>2010-06-30T10:31:03Z</time></trkpt>
	<trkpt lat="51.988045" lon="-1.74678"><ele>178.000000</ele><time>2010-06-30T10:31:08Z</time></trkpt>
	<trkpt lat="51.98799667" lon="-1.746766667"><ele>178.000000</ele><time>2010-06-30T10:31:13Z</time></trkpt>
	<trkpt lat="51.98794667" lon="-1.74676"><ele>178.000000</ele><time>2010-06-30T10:31:18Z</time></trkpt>
	<trkpt lat="51.98789667" lon="-1.746748333"><ele>179.000000</ele><time>2010-06-30T10:31:23Z</time></trkpt>
	<trkpt lat="51.987845" lon="-1.746745"><ele>178.000000</ele><time>2010-06-30T10:31:28Z</time></trkpt>
	<trkpt lat="51.9878" lon="-1.746735"><ele>177.000000</ele><time>2010-06-30T10:31:33Z</time></trkpt>
	<trkpt lat="51.98775667" lon="-1.746723333"><ele>178.000000</ele><time>2010-06-30T10:31:38Z</time></trkpt>
	<trkpt lat="51.987705" lon="-1.746721667"><ele>178.000000</ele><time>2010-06-30T10:31:43Z</time></trkpt>
	<trkpt lat="51.98765333" lon="-1.746715"><ele>178.000000</ele><time>2010-06-30T10:31:48Z</time></trkpt>
	<trkpt lat="51.9876" lon="-1.74671"><ele>177.000000</ele><time>2010-06-30T10:31:53Z</time></trkpt>
	<trkpt lat="51.98754667" lon="-1.746706667"><ele>177.000000</ele><time>2010-06-30T10:31:58Z</time></trkpt>
	<trkpt lat="51.987495" lon="-1.746705"><ele>177.000000</ele><time>2010-06-30T10:32:03Z</time></trkpt>
	<trkpt lat="51.98745" lon="-1.746703333"><ele>177.000000</ele><time>2010-06-30T10:32:08Z</time></trkpt>
	<trkpt lat="51.98743833" lon="-1.746703333"><ele>177.000000</ele><time>2010-06-30T10:32:13Z</time></trkpt>
	<trkpt lat="51.98740333" lon="-1.7467"><ele>177.000000</ele><time>2010-06-30T10:32:18Z</time></trkpt>
	<trkpt lat="51.98736" lon="-1.746695"><ele>178.000000</ele><time>2010-06-30T10:32:23Z</time></trkpt>
	<trkpt lat="51.98731" lon="-1.746693333"><ele>178.000000</ele><time>2010-06-30T10:32:28Z</time></trkpt>
	<trkpt lat="51.98725833" lon="-1.746695"><ele>178.000000</ele><time>2010-06-30T10:32:33Z</time></trkpt>
	<trkpt lat="51.9872" lon="-1.746706667"><ele>177.000000</ele><time>2010-06-30T10:32:38Z</time></trkpt>
	<trkpt lat="51.98715" lon="-1.7467"><ele>177.000000</ele><time>2010-06-30T10:32:43Z</time></trkpt>
	<trkpt lat="51.98709833" lon="-1.746703333"><ele>177.000000</ele><time>2010-06-30T10:32:48Z</time></trkpt>
	<trkpt lat="51.98705167" lon="-1.74671"><ele>177.000000</ele><time>2010-06-30T10:32:53Z</time></trkpt>
	<trkpt lat="51.987005" lon="-1.746715"><ele>176.000000</ele><time>2010-06-30T10:32:58Z</time></trkpt>
	<trkpt lat="51.986955" lon="-1.746716667"><ele>176.000000</ele><time>2010-06-30T10:33:03Z</time></trkpt>
	<trkpt lat="51.98690833" lon="-1.746723333"><ele>176.000000</ele><time>2010-06-30T10:33:08Z</time></trkpt>
	<trkpt lat="51.98685833" lon="-1.746728333"><ele>176.000000</ele><time>2010-06-30T10:33:13Z</time></trkpt>
	<trkpt lat="51.98680833" lon="-1.746745"><ele>175.000000</ele><time>2010-06-30T10:33:18Z</time></trkpt>
	<trkpt lat="51.98676333" lon="-1.746766667"><ele>175.000000</ele><time>2010-06-30T10:33:23Z</time></trkpt>
	<trkpt lat="51.98671833" lon="-1.746785"><ele>174.000000</ele><time>2010-06-30T10:33:28Z</time></trkpt>
	<trkpt lat="51.98672667" lon="-1.746781667"><ele>175.000000</ele><time>2010-06-30T10:33:33Z</time></trkpt>
	<trkpt lat="51.986715" lon="-1.746771667"><ele>176.000000</ele><time>2010-06-30T10:33:38Z</time></trkpt>
	<trkpt lat="51.98667333" lon="-1.746778333"><ele>176.000000</ele><time>2010-06-30T10:33:43Z</time></trkpt>
	<trkpt lat="51.98663167" lon="-1.74678"><ele>177.000000</ele><time>2010-06-30T10:33:48Z</time></trkpt>
	<trkpt lat="51.98659167" lon="-1.746763333"><ele>177.000000</ele><time>2010-06-30T10:33:53Z</time></trkpt>
	<trkpt lat="51.98655333" lon="-1.746753333"><ele>177.000000</ele><time>2010-06-30T10:33:58Z</time></trkpt>
	<trkpt lat="51.98650833" lon="-1.746736667"><ele>177.000000</ele><time>2010-06-30T10:34:03Z</time></trkpt>
	<trkpt lat="51.98646833" lon="-1.746728333"><ele>177.000000</ele><time>2010-06-30T10:34:08Z</time></trkpt>
	<trkpt lat="51.98642667" lon="-1.746726667"><ele>177.000000</ele><time>2010-06-30T10:34:13Z</time></trkpt>
	<trkpt lat="51.98638333" lon="-1.746716667"><ele>178.000000</ele><time>2010-06-30T10:34:18Z</time></trkpt>
	<trkpt lat="51.98634" lon="-1.746715"><ele>178.000000</ele><time>2010-06-30T10:34:23Z</time></trkpt>
	<trkpt lat="51.986295" lon="-1.746713333"><ele>178.000000</ele><time>2010-06-30T10:34:28Z</time></trkpt>
	<trkpt lat="51.98624667" lon="-1.74671"><ele>178.000000</ele><time>2010-06-30T10:34:33Z</time></trkpt>
	<trkpt lat="51.98619833" lon="-1.746705"><ele>178.000000</ele><time>2010-06-30T10:34:38Z</time></trkpt>
	<trkpt lat="51.98615167" lon="-1.746705"><ele>178.000000</ele><time>2010-06-30T10:34:43Z</time></trkpt>
	<trkpt lat="51.986105" lon="-1.746706667"><ele>179.000000</ele><time>2010-06-30T10:34:48Z</time></trkpt>
	<trkpt lat="51.98606333" lon="-1.746706667"><ele>179.000000</ele><time>2010-06-30T10:34:53Z</time></trkpt>
	<trkpt lat="51.98602167" lon="-1.746703333"><ele>180.000000</ele><time>2010-06-30T10:34:58Z</time></trkpt>
	<trkpt lat="51.98597833" lon="-1.746695"><ele>180.000000</ele><time>2010-06-30T10:35:03Z</time></trkpt>
	<trkpt lat="51.98593667" lon="-1.746695"><ele>181.000000</ele><time>2010-06-30T10:35:08Z</time></trkpt>
	<trkpt lat="51.98589833" lon="-1.746695"><ele>181.000000</ele><time>2010-06-30T10:35:13Z</time></trkpt>
	<trkpt lat="51.98585667" lon="-1.746695"><ele>182.000000</ele><time>2010-06-30T10:35:18Z</time></trkpt>
	<trkpt lat="51.98581333" lon="-1.74669"><ele>182.000000</ele><time>2010-06-30T10:35:23Z</time></trkpt>
	<trkpt lat="51.98576833" lon="-1.746688333"><ele>182.000000</ele><time>2010-06-30T10:35:28Z</time></trkpt>
	<trkpt lat="51.98572" lon="-1.746681667"><ele>182.000000</ele><time>2010-06-30T10:35:33Z</time></trkpt>
	<trkpt lat="51.98566667" lon="-1.746675"><ele>182.000000</ele><time>2010-06-30T10:35:38Z</time></trkpt>
	<trkpt lat="51.98561833" lon="-1.746671667"><ele>182.000000</ele><time>2010-06-30T10:35:43Z</time></trkpt>
	<trkpt lat="51.98556833" lon="-1.746665"><ele>182.000000</ele><time>2010-06-30T10:35:48Z</time></trkpt>
	<trkpt lat="51.98552167" lon="-1.746666667"><ele>182.000000</ele><time>2010-06-30T10:35:53Z</time></trkpt>
	<trkpt lat="51.98547167" lon="-1.746666667"><ele>182.000000</ele><time>2010-06-30T10:35:58Z</time></trkpt>
	<trkpt lat="51.985425" lon="-1.74667"><ele>183.000000</ele><time>2010-06-30T10:36:03Z</time></trkpt>
	<trkpt lat="51.98537833" lon="-1.746671667"><ele>183.000000</ele><time>2010-06-30T10:36:08Z</time></trkpt>
	<trkpt lat="51.98533167" lon="-1.74668"><ele>183.000000</ele><time>2010-06-30T10:36:13Z</time></trkpt>
	<trkpt lat="51.98528167" lon="-1.746681667"><ele>183.000000</ele><time>2010-06-30T10:36:18Z</time></trkpt>
	<trkpt lat="51.98523167" lon="-1.746686667"><ele>183.000000</ele><time>2010-06-30T10:36:23Z</time></trkpt>
	<trkpt lat="51.985185" lon="-1.746695"><ele>183.000000</ele><time>2010-06-30T10:36:28Z</time></trkpt>
	<trkpt lat="51.985135" lon="-1.7467"><ele>183.000000</ele><time>2010-06-30T10:36:33Z</time></trkpt>
	<trkpt lat="51.985085" lon="-1.746701667"><ele>183.000000</ele><time>2010-06-30T10:36:38Z</time></trkpt>
	<trkpt lat="51.98503667" lon="-1.746701667"><ele>183.000000</ele><time>2010-06-30T10:36:43Z</time></trkpt>
	<trkpt lat="51.98499" lon="-1.746703333"><ele>183.000000</ele><time>2010-06-30T10:36:48Z</time></trkpt>
	<trkpt lat="51.98494167" lon="-1.746713333"><ele>183.000000</ele><time>2010-06-30T10:36:53Z</time></trkpt>
	<trkpt lat="51.98489167" lon="-1.746716667"><ele>182.000000</ele><time>2010-06-30T10:36:58Z</time></trkpt>
	<trkpt lat="51.98484" lon="-1.746726667"><ele>182.000000</ele><time>2010-06-30T10:37:03Z</time></trkpt>
	<trkpt lat="51.984795" lon="-1.746733333"><ele>183.000000</ele><time>2010-06-30T10:37:08Z</time></trkpt>
	<trkpt lat="51.98475167" lon="-1.746741667"><ele>183.000000</ele><time>2010-06-30T10:37:13Z</time></trkpt>
	<trkpt lat="51.98470667" lon="-1.746748333"><ele>183.000000</ele><time>2010-06-30T10:37:18Z</time></trkpt>
	<trkpt lat="51.98466333" lon="-1.746763333"><ele>182.000000</ele><time>2010-06-30T10:37:23Z</time></trkpt>
	<trkpt lat="51.98463667" lon="-1.746773333"><ele>182.000000</ele><time>2010-06-30T10:37:28Z</time></trkpt>
	<trkpt lat="51.98463833" lon="-1.746771667"><ele>182.000000</ele><time>2010-06-30T10:37:33Z</time></trkpt>
	<trkpt lat="51.984635" lon="-1.746781667"><ele>182.000000</ele><time>2010-06-30T10:37:38Z</time></trkpt>
	<trkpt lat="51.984605" lon="-1.746791667"><ele>181.000000</ele><time>2010-06-30T10:37:43Z</time></trkpt>
	<trkpt lat="51.98455833" lon="-1.74682"><ele>181.000000</ele><time>2010-06-30T10:37:48Z</time></trkpt>
	<trkpt lat="51.98452" lon="-1.746846667"><ele>181.000000</ele><time>2010-06-30T10:37:53Z</time></trkpt>
	<trkpt lat="51.98448167" lon="-1.746866667"><ele>181.000000</ele><time>2010-06-30T10:37:58Z</time></trkpt>
	<trkpt lat="51.98443667" lon="-1.746886667"><ele>181.000000</ele><time>2010-06-30T10:38:03Z</time></trkpt>
	<trkpt lat="51.98438833" lon="-1.746903333"><ele>181.000000</ele><time>2010-06-30T10:38:08Z</time></trkpt>
	<trkpt lat="51.98434333" lon="-1.746913333"><ele>181.000000</ele><time>2010-06-30T10:38:13Z</time></trkpt>
	<trkpt lat="51.9843" lon="-1.746928333"><ele>181.000000</ele><time>2010-06-30T10:38:18Z</time></trkpt>
	<trkpt lat="51.98425667" lon="-1.746928333"><ele>180.000000</ele><time>2010-06-30T10:38:23Z</time></trkpt>
	<trkpt lat="51.98421833" lon="-1.746938333"><ele>181.000000</ele><time>2010-06-30T10:38:28Z</time></trkpt>
	<trkpt lat="51.98418833" lon="-1.746973333"><ele>182.000000</ele><time>2010-06-30T10:38:33Z</time></trkpt>
	<trkpt lat="51.98415" lon="-1.747001667"><ele>183.000000</ele><time>2010-06-30T10:38:38Z</time></trkpt>
	<trkpt lat="51.98411" lon="-1.747021667"><ele>183.000000</ele><time>2010-06-30T10:38:43Z</time></trkpt>
	<trkpt lat="51.98406833" lon="-1.747048333"><ele>183.000000</ele><time>2010-06-30T10:38:48Z</time></trkpt>
	<trkpt lat="51.984025" lon="-1.747075"><ele>183.000000</ele><time>2010-06-30T10:38:53Z</time></trkpt>
	<trkpt lat="51.98398" lon="-1.747081667"><ele>183.000000</ele><time>2010-06-30T10:38:58Z</time></trkpt>
	<trkpt lat="51.983935" lon="-1.747083333"><ele>182.000000</ele><time>2010-06-30T10:39:03Z</time></trkpt>
	<trkpt lat="51.98389333" lon="-1.747085"><ele>182.000000</ele><time>2010-06-30T10:39:08Z</time></trkpt>
	<trkpt lat="51.98384667" lon="-1.747081667"><ele>182.000000</ele><time>2010-06-30T10:39:13Z</time></trkpt>
	<trkpt lat="51.98379667" lon="-1.747081667"><ele>181.000000</ele><time>2010-06-30T10:39:18Z</time></trkpt>
	<trkpt lat="51.98374833" lon="-1.747075"><ele>181.000000</ele><time>2010-06-30T10:39:23Z</time></trkpt>
	<trkpt lat="51.98370167" lon="-1.74707"><ele>180.000000</ele><time>2010-06-30T10:39:28Z</time></trkpt>
	<trkpt lat="51.98365167" lon="-1.747065"><ele>180.000000</ele><time>2010-06-30T10:39:33Z</time></trkpt>
	<trkpt lat="51.98359833" lon="-1.747058333"><ele>179.000000</ele><time>2010-06-30T10:39:38Z</time></trkpt>
	<trkpt lat="51.98354833" lon="-1.74705"><ele>178.000000</ele><time>2010-06-30T10:39:43Z</time></trkpt>
	<trkpt lat="51.98349333" lon="-1.747036667"><ele>178.000000</ele><time>2010-06-30T10:39:48Z</time></trkpt>
	<trkpt lat="51.98344" lon="-1.747021667"><ele>177.000000</ele><time>2010-06-30T10:39:53Z</time></trkpt>
	<trkpt lat="51.98338833" lon="-1.747015"><ele>177.000000</ele><time>2010-06-30T10:39:58Z</time></trkpt>
	<trkpt lat="51.98334667" lon="-1.747008333"><ele>177.000000</ele><time>2010-06-30T10:40:03Z</time></trkpt>
	<trkpt lat="51.98330167" lon="-1.746993333"><ele>177.000000</ele><time>2010-06-30T10:40:08Z</time></trkpt>
	<trkpt lat="51.98326" lon="-1.74697"><ele>177.000000</ele><time>2010-06-30T10:40:13Z</time></trkpt>
	<trkpt lat="51.98321667" lon="-1.746945"><ele>177.000000</ele><time>2010-06-30T10:40:18Z</time></trkpt>
	<trkpt lat="51.98318667" lon="-1.746923333"><ele>178.000000</ele><time>2010-06-30T10:40:23Z</time></trkpt>
	<trkpt lat="51.98317167" lon="-1.74691"><ele>178.000000</ele><time>2010-06-30T10:40:28Z</time></trkpt>
	<trkpt lat="51.983175" lon="-1.74691"><ele>178.000000</ele><time>2010-06-30T10:40:33Z</time></trkpt>
	<trkpt lat="51.98317167" lon="-1.74691"><ele>178.000000</ele><time>2010-06-30T10:40:38Z</time></trkpt>
	<trkpt lat="51.98316833" lon="-1.74691"><ele>177.000000</ele><time>2010-06-30T10:40:43Z</time></trkpt>
	<trkpt lat="51.98315667" lon="-1.746916667"><ele>177.000000</ele><time>2010-06-30T10:40:48Z</time></trkpt>
	<trkpt lat="51.98314833" lon="-1.746921667"><ele>176.000000</ele><time>2010-06-30T10:40:53Z</time></trkpt>
	<trkpt lat="51.98314333" lon="-1.746923333"><ele>175.000000</ele><time>2010-06-30T10:40:58Z</time></trkpt>
	<trkpt lat="51.98314667" lon="-1.746923333"><ele>176.000000</ele><time>2010-06-30T10:41:03Z</time></trkpt>
	<trkpt lat="51.983145" lon="-1.746928333"><ele>176.000000</ele><time>2010-06-30T10:41:08Z</time></trkpt>
	<trkpt lat="51.98313333" lon="-1.746928333"><ele>176.000000</ele><time>2010-06-30T10:41:13Z</time></trkpt>
	<trkpt lat="51.98312667" lon="-1.746931667"><ele>176.000000</ele><time>2010-06-30T10:41:18Z</time></trkpt>
	<trkpt lat="51.983125" lon="-1.746936667"><ele>176.000000</ele><time>2010-06-30T10:41:23Z</time></trkpt>
	<trkpt lat="51.98312833" lon="-1.746928333"><ele>177.000000</ele><time>2010-06-30T10:41:28Z</time></trkpt>
	<trkpt lat="51.983125" lon="-1.746923333"><ele>176.000000</ele><time>2010-06-30T10:41:33Z</time></trkpt>
	<trkpt lat="51.98311333" lon="-1.746936667"><ele>176.000000</ele><time>2010-06-30T10:41:38Z</time></trkpt>
	<trkpt lat="51.98309167" lon="-1.746915"><ele>176.000000</ele><time>2010-06-30T10:41:43Z</time></trkpt>
	<trkpt lat="51.98307833" lon="-1.746895"><ele>178.000000</ele><time>2010-06-30T10:41:48Z</time></trkpt>
	<trkpt lat="51.983095" lon="-1.746898333"><ele>181.000000</ele><time>2010-06-30T10:41:53Z</time></trkpt>
	<trkpt lat="51.98308167" lon="-1.746885"><ele>181.000000</ele><time>2010-06-30T10:41:58Z</time></trkpt>
	<trkpt lat="51.98305" lon="-1.746863333"><ele>181.000000</ele><time>2010-06-30T10:42:03Z</time></trkpt>
	<trkpt lat="51.98299833" lon="-1.746863333"><ele>181.000000</ele><time>2010-06-30T10:42:08Z</time></trkpt>
	<trkpt lat="51.982945" lon="-1.746881667"><ele>178.000000</ele><time>2010-06-30T10:42:13Z</time></trkpt>
	<trkpt lat="51.98291667" lon="-1.746873333"><ele>176.000000</ele><time>2010-06-30T10:42:18Z</time></trkpt>
	<trkpt lat="51.98288667" lon="-1.74689"><ele>173.000000</ele><time>2010-06-30T10:42:23Z</time></trkpt>
	<trkpt lat="51.98288167" lon="-1.746913333"><ele>172.000000</ele><time>2010-06-30T10:42:28Z</time></trkpt>
	<trkpt lat="51.98287833" lon="-1.746931667"><ele>168.000000</ele><time>2010-06-30T10:42:33Z</time></trkpt>
	<trkpt lat="51.98286667" lon="-1.746958333"><ele>167.000000</ele><time>2010-06-30T10:42:38Z</time></trkpt>
	<trkpt lat="51.98284667" lon="-1.746928333"><ele>170.000000</ele><time>2010-06-30T10:42:43Z</time></trkpt>
	<trkpt lat="51.98280667" lon="-1.746936667"><ele>173.000000</ele><time>2010-06-30T10:42:48Z</time></trkpt>
	<trkpt lat="51.98276667" lon="-1.746946667"><ele>175.000000</ele><time>2010-06-30T10:42:53Z</time></trkpt>
	<trkpt lat="51.98272667" lon="-1.746953333"><ele>177.000000</ele><time>2010-06-30T10:42:58Z</time></trkpt>
	<trkpt lat="51.98267" lon="-1.746976667"><ele>176.000000</ele><time>2010-06-30T10:43:03Z</time></trkpt>
	<trkpt lat="51.98261833" lon="-1.746978333"><ele>176.000000</ele><time>2010-06-30T10:43:08Z</time></trkpt>
	<trkpt lat="51.982575" lon="-1.746986667"><ele>176.000000</ele><time>2010-06-30T10:43:13Z</time></trkpt>
	<trkpt lat="51.98252667" lon="-1.74699"><ele>177.000000</ele><time>2010-06-30T10:43:18Z</time></trkpt>
	<trkpt lat="51.98247833" lon="-1.747"><ele>178.000000</ele><time>2010-06-30T10:43:23Z</time></trkpt>
	<trkpt lat="51.98242667" lon="-1.747006667"><ele>178.000000</ele><time>2010-06-30T10:43:28Z</time></trkpt>
	<trkpt lat="51.98237667" lon="-1.74702"><ele>178.000000</ele><time>2010-06-30T10:43:33Z</time></trkpt>
	<trkpt lat="51.98232667" lon="-1.747033333"><ele>177.000000</ele><time>2010-06-30T10:43:38Z</time></trkpt>
	<trkpt lat="51.98227667" lon="-1.747046667"><ele>177.000000</ele><time>2010-06-30T10:43:43Z</time></trkpt>
	<trkpt lat="51.98222667" lon="-1.747053333"><ele>177.000000</ele><time>2010-06-30T10:43:48Z</time></trkpt>
	<trkpt lat="51.98217333" lon="-1.747056667"><ele>177.000000</ele><time>2010-06-30T10:43:53Z</time></trkpt>
	<trkpt lat="51.98212167" lon="-1.74707"><ele>177.000000</ele><time>2010-06-30T10:43:58Z</time></trkpt>
	<trkpt lat="51.98207333" lon="-1.747078333"><ele>178.000000</ele><time>2010-06-30T10:44:03Z</time></trkpt>
	<trkpt lat="51.98203" lon="-1.747088333"><ele>179.000000</ele><time>2010-06-30T10:44:08Z</time></trkpt>
	<trkpt lat="51.98198333" lon="-1.747098333"><ele>179.000000</ele><time>2010-06-30T10:44:13Z</time></trkpt>
	<trkpt lat="51.98194167" lon="-1.747105"><ele>179.000000</ele><time>2010-06-30T10:44:18Z</time></trkpt>
	<trkpt lat="51.981895" lon="-1.747118333"><ele>178.000000</ele><time>2010-06-30T10:44:23Z</time></trkpt>
	<trkpt lat="51.98185167" lon="-1.747098333"><ele>178.000000</ele><time>2010-06-30T10:44:28Z</time></trkpt>
	<trkpt lat="51.98180667" lon="-1.747083333"><ele>178.000000</ele><time>2010-06-30T10:44:33Z</time></trkpt>
	<trkpt lat="51.98174" lon="-1.747095"><ele>178.000000</ele><time>2010-06-30T10:44:38Z</time></trkpt>
	<trkpt lat="51.98168" lon="-1.747105"><ele>177.000000</ele><time>2010-06-30T10:44:43Z</time></trkpt>
	<trkpt lat="51.98162667" lon="-1.747123333"><ele>176.000000</ele><time>2010-06-30T10:44:48Z</time></trkpt>
	<trkpt lat="51.981575" lon="-1.747138333"><ele>175.000000</ele><time>2010-06-30T10:44:53Z</time></trkpt>
	<trkpt lat="51.981515" lon="-1.747148333"><ele>175.000000</ele><time>2010-06-30T10:44:58Z</time></trkpt>
	<trkpt lat="51.98146167" lon="-1.747161667"><ele>174.000000</ele><time>2010-06-30T10:45:03Z</time></trkpt>
	<trkpt lat="51.98140833" lon="-1.747173333"><ele>174.000000</ele><time>2010-06-30T10:45:08Z</time></trkpt>
	<trkpt lat="51.98135" lon="-1.747188333"><ele>174.000000</ele><time>2010-06-30T10:45:13Z</time></trkpt>
	<trkpt lat="51.98129333" lon="-1.747201667"><ele>174.000000</ele><time>2010-06-30T10:45:18Z</time></trkpt>
	<trkpt lat="51.98123833" lon="-1.747223333"><ele>173.000000</ele><time>2010-06-30T10:45:23Z</time></trkpt>
	<trkpt lat="51.981185" lon="-1.747258333"><ele>173.000000</ele><time>2010-06-30T10:45:28Z</time></trkpt>
	<trkpt lat="51.98113167" lon="-1.747286667"><ele>173.000000</ele><time>2010-06-30T10:45:33Z</time></trkpt>
	<trkpt lat="51.98108" lon="-1.747311667"><ele>173.000000</ele><time>2010-06-30T10:45:38Z</time></trkpt>
	<trkpt lat="51.98103167" lon="-1.747335"><ele>173.000000</ele><time>2010-06-30T10:45:43Z</time></trkpt>
	<trkpt lat="51.980975" lon="-1.747351667"><ele>174.000000</ele><time>2010-06-30T10:45:48Z</time></trkpt>
	<trkpt lat="51.980925" lon="-1.747376667"><ele>175.000000</ele><time>2010-06-30T10:45:53Z</time></trkpt>
	<trkpt lat="51.980875" lon="-1.747403333"><ele>175.000000</ele><time>2010-06-30T10:45:58Z</time></trkpt>
	<trkpt lat="51.98082" lon="-1.747428333"><ele>174.000000</ele><time>2010-06-30T10:46:03Z</time></trkpt>
	<trkpt lat="51.98076833" lon="-1.747451667"><ele>173.000000</ele><time>2010-06-30T10:46:08Z</time></trkpt>
	<trkpt lat="51.98072167" lon="-1.747466667"><ele>173.000000</ele><time>2010-06-30T10:46:13Z</time></trkpt>
	<trkpt lat="51.98066667" lon="-1.747476667"><ele>173.000000</ele><time>2010-06-30T10:46:18Z</time></trkpt>
	<trkpt lat="51.98061833" lon="-1.747486667"><ele>173.000000</ele><time>2010-06-30T10:46:23Z</time></trkpt>
	<trkpt lat="51.98056167" lon="-1.747495"><ele>173.000000</ele><time>2010-06-30T10:46:28Z</time></trkpt>
	<trkpt lat="51.98050333" lon="-1.747508333"><ele>172.000000</ele><time>2010-06-30T10:46:33Z</time></trkpt>
	<trkpt lat="51.98045833" lon="-1.747536667"><ele>171.000000</ele><time>2010-06-30T10:46:38Z</time></trkpt>
	<trkpt lat="51.98038667" lon="-1.747563333"><ele>169.000000</ele><time>2010-06-30T10:46:43Z</time></trkpt>
	<trkpt lat="51.98032667" lon="-1.747595"><ele>168.000000</ele><time>2010-06-30T10:46:48Z</time></trkpt>
	<trkpt lat="51.98027" lon="-1.747623333"><ele>166.000000</ele><time>2010-06-30T10:46:53Z</time></trkpt>
	<trkpt lat="51.98022833" lon="-1.747631667"><ele>167.000000</ele><time>2010-06-30T10:46:58Z</time></trkpt>
	<trkpt lat="51.98020833" lon="-1.747633333"><ele>170.000000</ele><time>2010-06-30T10:47:03Z</time></trkpt>
	<trkpt lat="51.98017833" lon="-1.747655"><ele>171.000000</ele><time>2010-06-30T10:47:08Z</time></trkpt>
	<trkpt lat="51.980135" lon="-1.747661667"><ele>169.000000</ele><time>2010-06-30T10:47:13Z</time></trkpt>
	<trkpt lat="51.98001667" lon="-1.74768"><ele>162.000000</ele><time>2010-06-30T10:47:18Z</time></trkpt>
	<trkpt lat="51.97994333" lon="-1.747703333"><ele>159.000000</ele><time>2010-06-30T10:47:23Z</time></trkpt>
	<trkpt lat="51.979885" lon="-1.747726667"><ele>157.000000</ele><time>2010-06-30T10:47:28Z</time></trkpt>
	<trkpt lat="51.97986667" lon="-1.747723333"><ele>160.000000</ele><time>2010-06-30T10:47:33Z</time></trkpt>
	<trkpt lat="51.97981833" lon="-1.74775"><ele>161.000000</ele><time>2010-06-30T10:47:38Z</time></trkpt>
	<trkpt lat="51.979765" lon="-1.747786667"><ele>163.000000</ele><time>2010-06-30T10:47:43Z</time></trkpt>
	<trkpt lat="51.97970833" lon="-1.74782"><ele>165.000000</ele><time>2010-06-30T10:47:48Z</time></trkpt>
	<trkpt lat="51.97966667" lon="-1.747828333"><ele>170.000000</ele><time>2010-06-30T10:47:53Z</time></trkpt>
	<trkpt lat="51.97959333" lon="-1.74787"><ele>170.000000</ele><time>2010-06-30T10:47:58Z</time></trkpt>
	<trkpt lat="51.97952667" lon="-1.747893333"><ele>172.000000</ele><time>2010-06-30T10:48:03Z</time></trkpt>
	<trkpt lat="51.97948167" lon="-1.747908333"><ele>173.000000</ele><time>2010-06-30T10:48:08Z</time></trkpt>
	<trkpt lat="51.979415" lon="-1.747946667"><ele>172.000000</ele><time>2010-06-30T10:48:13Z</time></trkpt>
	<trkpt lat="51.97935667" lon="-1.747971667"><ele>170.000000</ele><time>2010-06-30T10:48:18Z</time></trkpt>
	<trkpt lat="51.979305" lon="-1.747995"><ele>171.000000</ele><time>2010-06-30T10:48:23Z</time></trkpt>
	<trkpt lat="51.979285" lon="-1.747995"><ele>178.000000</ele><time>2010-06-30T10:48:28Z</time></trkpt>
	<trkpt lat="51.97923667" lon="-1.748001667"><ele>181.000000</ele><time>2010-06-30T10:48:33Z</time></trkpt>
	<trkpt lat="51.97917167" lon="-1.748005"><ele>181.000000</ele><time>2010-06-30T10:48:38Z</time></trkpt>
	<trkpt lat="51.97913667" lon="-1.747996667"><ele>181.000000</ele><time>2010-06-30T10:48:43Z</time></trkpt>
	<trkpt lat="51.979105" lon="-1.748015"><ele>179.000000</ele><time>2010-06-30T10:48:48Z</time></trkpt>
	<trkpt lat="51.97907" lon="-1.748013333"><ele>176.000000</ele><time>2010-06-30T10:48:53Z</time></trkpt>
	<trkpt lat="51.97905333" lon="-1.748011667"><ele>175.000000</ele><time>2010-06-30T10:48:58Z</time></trkpt>
	<trkpt lat="51.97902167" lon="-1.748008333"><ele>176.000000</ele><time>2010-06-30T10:49:03Z</time></trkpt>
	<trkpt lat="51.97900667" lon="-1.748036667"><ele>175.000000</ele><time>2010-06-30T10:49:08Z</time></trkpt>
	<trkpt lat="51.97902167" lon="-1.748065"><ele>172.000000</ele><time>2010-06-30T10:49:13Z</time></trkpt>
	<trkpt lat="51.97901167" lon="-1.748085"><ele>170.000000</ele><time>2010-06-30T10:49:18Z</time></trkpt>
	<trkpt lat="51.97900333" lon="-1.748105"><ele>168.000000</ele><time>2010-06-30T10:49:23Z</time></trkpt>
	<trkpt lat="51.97896667" lon="-1.748108333"><ele>164.000000</ele><time>2010-06-30T10:49:28Z</time></trkpt>
	<trkpt lat="51.97891667" lon="-1.74812"><ele>162.000000</ele><time>2010-06-30T10:49:33Z</time></trkpt>
	<trkpt lat="51.97889167" lon="-1.7481"><ele>161.000000</ele><time>2010-06-30T10:49:38Z</time></trkpt>
	<trkpt lat="51.97887667" lon="-1.748098333"><ele>161.000000</ele><time>2010-06-30T10:49:43Z</time></trkpt>
	<trkpt lat="51.97885333" lon="-1.748063333"><ele>161.000000</ele><time>2010-06-30T10:49:48Z</time></trkpt>
	<trkpt lat="51.978845" lon="-1.74803"><ele>159.000000</ele><time>2010-06-30T10:49:53Z</time></trkpt>
	<trkpt lat="51.97884667" lon="-1.748015"><ele>157.000000</ele><time>2010-06-30T10:49:58Z</time></trkpt>
	<trkpt lat="51.97884667" lon="-1.748006667"><ele>156.000000</ele><time>2010-06-30T10:50:03Z</time></trkpt>
	<trkpt lat="51.97884667" lon="-1.747993333"><ele>155.000000</ele><time>2010-06-30T10:50:08Z</time></trkpt>
	<trkpt lat="51.97885167" lon="-1.748003333"><ele>155.000000</ele><time>2010-06-30T10:50:13Z</time></trkpt>
	<trkpt lat="51.978845" lon="-1.748001667"><ele>157.000000</ele><time>2010-06-30T10:50:18Z</time></trkpt>
	<trkpt lat="51.97883" lon="-1.74799"><ele>159.000000</ele><time>2010-06-30T10:50:23Z</time></trkpt>
	<trkpt lat="51.978825" lon="-1.74799"><ele>160.000000</ele><time>2010-06-30T10:50:28Z</time></trkpt>
	<trkpt lat="51.97881667" lon="-1.747983333"><ele>161.000000</ele><time>2010-06-30T10:50:33Z</time></trkpt>
	<trkpt lat="51.97881167" lon="-1.747986667"><ele>162.000000</ele><time>2010-06-30T10:50:38Z</time></trkpt>
	<trkpt lat="51.978785" lon="-1.747976667"><ele>164.000000</ele><time>2010-06-30T10:50:43Z</time></trkpt>
	<trkpt lat="51.978765" lon="-1.747963333"><ele>165.000000</ele><time>2010-06-30T10:50:48Z</time></trkpt>
	<trkpt lat="51.97874167" lon="-1.747951667"><ele>167.000000</ele><time>2010-06-30T10:50:53Z</time></trkpt>
	<trkpt lat="51.97870167" lon="-1.747931667"><ele>168.000000</ele><time>2010-06-30T10:50:58Z</time></trkpt>
	<trkpt lat="51.97867" lon="-1.747921667"><ele>166.000000</ele><time>2010-06-30T10:51:03Z</time></trkpt>
	<trkpt lat="51.978635" lon="-1.747901667"><ele>167.000000</ele><time>2010-06-30T10:51:08Z</time></trkpt>
	<trkpt lat="51.97863" lon="-1.747906667"><ele>165.000000</ele><time>2010-06-30T10:51:13Z</time></trkpt>
	<trkpt lat="51.97862167" lon="-1.747908333"><ele>164.000000</ele><time>2010-06-30T10:51:18Z</time></trkpt>
	<trkpt lat="51.97861833" lon="-1.747916667"><ele>163.000000</ele><time>2010-06-30T10:51:23Z</time></trkpt>
	<trkpt lat="51.97857667" lon="-1.7479"><ele>162.000000</ele><time>2010-06-30T10:51:28Z</time></trkpt>
	<trkpt lat="51.97853" lon="-1.747885"><ele>163.000000</ele><time>2010-06-30T10:51:33Z</time></trkpt>
	<trkpt lat="51.97848667" lon="-1.747866667"><ele>163.000000</ele><time>2010-06-30T10:51:38Z</time></trkpt>
	<trkpt lat="51.97844333" lon="-1.747851667"><ele>163.000000</ele><time>2010-06-30T10:51:43Z</time></trkpt>
	<trkpt lat="51.97840167" lon="-1.747835"><ele>163.000000</ele><time>2010-06-30T10:51:48Z</time></trkpt>
	<trkpt lat="51.97835333" lon="-1.74782"><ele>164.000000</ele><time>2010-06-30T10:51:53Z</time></trkpt>
	<trkpt lat="51.978305" lon="-1.747805"><ele>165.000000</ele><time>2010-06-30T10:51:58Z</time></trkpt>
	<trkpt lat="51.97826" lon="-1.74778"><ele>165.000000</ele><time>2010-06-30T10:52:03Z</time></trkpt>
	<trkpt lat="51.978225" lon="-1.747773333"><ele>165.000000</ele><time>2010-06-30T10:52:08Z</time></trkpt>
	<trkpt lat="51.978175" lon="-1.747755"><ele>165.000000</ele><time>2010-06-30T10:52:13Z</time></trkpt>
	<trkpt lat="51.97813333" lon="-1.747735"><ele>165.000000</ele><time>2010-06-30T10:52:18Z</time></trkpt>
	<trkpt lat="51.978105" lon="-1.74772"><ele>164.000000</ele><time>2010-06-30T10:52:23Z</time></trkpt>
	<trkpt lat="51.97806" lon="-1.747706667"><ele>164.000000</ele><time>2010-06-30T10:52:28Z</time></trkpt>
	<trkpt lat="51.978015" lon="-1.747691667"><ele>164.000000</ele><time>2010-06-30T10:52:33Z</time></trkpt>
	<trkpt lat="51.97797333" lon="-1.747675"><ele>165.000000</ele><time>2010-06-30T10:52:38Z</time></trkpt>
	<trkpt lat="51.97792333" lon="-1.74766"><ele>165.000000</ele><time>2010-06-30T10:52:43Z</time></trkpt>
	<trkpt lat="51.977875" lon="-1.747635"><ele>165.000000</ele><time>2010-06-30T10:52:48Z</time></trkpt>
	<trkpt lat="51.97783" lon="-1.74762"><ele>165.000000</ele><time>2010-06-30T10:52:53Z</time></trkpt>
	<trkpt lat="51.97778667" lon="-1.747598333"><ele>166.000000</ele><time>2010-06-30T10:52:58Z</time></trkpt>
	<trkpt lat="51.97774" lon="-1.74758"><ele>166.000000</ele><time>2010-06-30T10:53:03Z</time></trkpt>
	<trkpt lat="51.97769333" lon="-1.747561667"><ele>166.000000</ele><time>2010-06-30T10:53:08Z</time></trkpt>
	<trkpt lat="51.977645" lon="-1.747546667"><ele>166.000000</ele><time>2010-06-30T10:53:13Z</time></trkpt>
	<trkpt lat="51.97759667" lon="-1.747523333"><ele>167.000000</ele><time>2010-06-30T10:53:18Z</time></trkpt>
	<trkpt lat="51.97755" lon="-1.747506667"><ele>167.000000</ele><time>2010-06-30T10:53:23Z</time></trkpt>
	<trkpt lat="51.97750167" lon="-1.747493333"><ele>167.000000</ele><time>2010-06-30T10:53:28Z</time></trkpt>
	<trkpt lat="51.977455" lon="-1.747478333"><ele>168.000000</ele><time>2010-06-30T10:53:33Z</time></trkpt>
	<trkpt lat="51.97741333" lon="-1.74746"><ele>168.000000</ele><time>2010-06-30T10:53:38Z</time></trkpt>
	<trkpt lat="51.97737" lon="-1.74745"><ele>169.000000</ele><time>2010-06-30T10:53:43Z</time></trkpt>
	<trkpt lat="51.977325" lon="-1.747445"><ele>170.000000</ele><time>2010-06-30T10:53:48Z</time></trkpt>
	<trkpt lat="51.97728167" lon="-1.747438333"><ele>170.000000</ele><time>2010-06-30T10:53:53Z</time></trkpt>
	<trkpt lat="51.97724" lon="-1.74743"><ele>171.000000</ele><time>2010-06-30T10:53:58Z</time></trkpt>
	<trkpt lat="51.97719833" lon="-1.747416667"><ele>172.000000</ele><time>2010-06-30T10:54:03Z</time></trkpt>
	<trkpt lat="51.97716" lon="-1.747406667"><ele>173.000000</ele><time>2010-06-30T10:54:08Z</time></trkpt>
	<trkpt lat="51.97712333" lon="-1.747391667"><ele>174.000000</ele><time>2010-06-30T10:54:13Z</time></trkpt>
	<trkpt lat="51.97708667" lon="-1.747383333"><ele>175.000000</ele><time>2010-06-30T10:54:18Z</time></trkpt>
	<trkpt lat="51.97705167" lon="-1.747376667"><ele>176.000000</ele><time>2010-06-30T10:54:23Z</time></trkpt>
	<trkpt lat="51.97701" lon="-1.747373333"><ele>177.000000</ele><time>2010-06-30T10:54:28Z</time></trkpt>
	<trkpt lat="51.97697167" lon="-1.747366667"><ele>178.000000</ele><time>2010-06-30T10:54:33Z</time></trkpt>
	<trkpt lat="51.97692833" lon="-1.747366667"><ele>179.000000</ele><time>2010-06-30T10:54:38Z</time></trkpt>
	<trkpt lat="51.97689" lon="-1.747365"><ele>180.000000</ele><time>2010-06-30T10:54:43Z</time></trkpt>
	<trkpt lat="51.976845" lon="-1.747363333"><ele>180.000000</ele><time>2010-06-30T10:54:48Z</time></trkpt>
	<trkpt lat="51.97679833" lon="-1.747355"><ele>181.000000</ele><time>2010-06-30T10:54:53Z</time></trkpt>
	<trkpt lat="51.97675167" lon="-1.747346667"><ele>181.000000</ele><time>2010-06-30T10:54:58Z</time></trkpt>
	<trkpt lat="51.97670667" lon="-1.747336667"><ele>181.000000</ele><time>2010-06-30T10:55:03Z</time></trkpt>
	<trkpt lat="51.976655" lon="-1.747323333"><ele>181.000000</ele><time>2010-06-30T10:55:08Z</time></trkpt>
	<trkpt lat="51.97661" lon="-1.747311667"><ele>181.000000</ele><time>2010-06-30T10:55:13Z</time></trkpt>
	<trkpt lat="51.97657333" lon="-1.74731"><ele>181.000000</ele><time>2010-06-30T10:55:18Z</time></trkpt>
	<trkpt lat="51.97656" lon="-1.747303333"><ele>180.000000</ele><time>2010-06-30T10:55:23Z</time></trkpt>
	<trkpt lat="51.97654" lon="-1.747285"><ele>179.000000</ele><time>2010-06-30T10:55:28Z</time></trkpt>
	<trkpt lat="51.97654" lon="-1.74728"><ele>179.000000</ele><time>2010-06-30T10:55:33Z</time></trkpt>
	<trkpt lat="51.97654333" lon="-1.747273333"><ele>179.000000</ele><time>2010-06-30T10:55:38Z</time></trkpt>
	<trkpt lat="51.976545" lon="-1.747266667"><ele>179.000000</ele><time>2010-06-30T10:55:43Z</time></trkpt>
	<trkpt lat="51.97654833" lon="-1.747265"><ele>179.000000</ele><time>2010-06-30T10:55:48Z</time></trkpt>
	<trkpt lat="51.97655" lon="-1.747261667"><ele>179.000000</ele><time>2010-06-30T10:55:53Z</time></trkpt>
	<trkpt lat="51.97655" lon="-1.747258333"><ele>181.000000</ele><time>2010-06-30T10:55:58Z</time></trkpt>
	<trkpt lat="51.97654333" lon="-1.747261667"><ele>180.000000</ele><time>2010-06-30T10:56:03Z</time></trkpt>
	<trkpt lat="51.97654" lon="-1.747271667"><ele>179.000000</ele><time>2010-06-30T10:56:08Z</time></trkpt>
	<trkpt lat="51.97653833" lon="-1.74727"><ele>180.000000</ele><time>2010-06-30T10:56:13Z</time></trkpt>
	<trkpt lat="51.97654167" lon="-1.74727"><ele>180.000000</ele><time>2010-06-30T10:56:18Z</time></trkpt>
	<trkpt lat="51.97654167" lon="-1.747266667"><ele>181.000000</ele><time>2010-06-30T10:56:23Z</time></trkpt>
	<trkpt lat="51.976545" lon="-1.74727"><ele>181.000000</ele><time>2010-06-30T10:56:28Z</time></trkpt>
	<trkpt lat="51.976545" lon="-1.747278333"><ele>181.000000</ele><time>2010-06-30T10:56:33Z</time></trkpt>
	<trkpt lat="51.97654667" lon="-1.747283333"><ele>182.000000</ele><time>2010-06-30T10:56:38Z</time></trkpt>
	<trkpt lat="51.976545" lon="-1.747283333"><ele>182.000000</ele><time>2010-06-30T10:56:43Z</time></trkpt>
	<trkpt lat="51.97654667" lon="-1.747286667"><ele>183.000000</ele><time>2010-06-30T10:56:48Z</time></trkpt>
	<trkpt lat="51.97655" lon="-1.747281667"><ele>182.000000</ele><time>2010-06-30T10:56:53Z</time></trkpt>
	<trkpt lat="51.97654833" lon="-1.747285"><ele>182.000000</ele><time>2010-06-30T10:56:58Z</time></trkpt>
	<trkpt lat="51.97654333" lon="-1.747285"><ele>181.000000</ele><time>2010-06-30T10:57:03Z</time></trkpt>
	<trkpt lat="51.97653667" lon="-1.747291667"><ele>180.000000</ele><time>2010-06-30T10:57:08Z</time></trkpt>
	<trkpt lat="51.97654333" lon="-1.747283333"><ele>181.000000</ele><time>2010-06-30T10:57:13Z</time></trkpt>
	<trkpt lat="51.97655" lon="-1.747276667"><ele>183.000000</ele><time>2010-06-30T10:57:18Z</time></trkpt>
	<trkpt lat="51.97655333" lon="-1.74727"><ele>185.000000</ele><time>2010-06-30T10:57:23Z</time></trkpt>
	<trkpt lat="51.97655833" lon="-1.747266667"><ele>186.000000</ele><time>2010-06-30T10:57:28Z</time></trkpt>
	<trkpt lat="51.97656333" lon="-1.747266667"><ele>187.000000</ele><time>2010-06-30T10:57:33Z</time></trkpt>
	<trkpt lat="51.97656667" lon="-1.747265"><ele>188.000000</ele><time>2010-06-30T10:57:38Z</time></trkpt>
	<trkpt lat="51.97657167" lon="-1.747266667"><ele>188.000000</ele><time>2010-06-30T10:57:43Z</time></trkpt>
	<trkpt lat="51.97656833" lon="-1.747266667"><ele>188.000000</ele><time>2010-06-30T10:57:48Z</time></trkpt>
	<trkpt lat="51.97655833" lon="-1.747276667"><ele>186.000000</ele><time>2010-06-30T10:57:53Z</time></trkpt>
	<trkpt lat="51.976545" lon="-1.747278333"><ele>185.000000</ele><time>2010-06-30T10:57:58Z</time></trkpt>
	<trkpt lat="51.97654333" lon="-1.747285"><ele>185.000000</ele><time>2010-06-30T10:58:03Z</time></trkpt>
	<trkpt lat="51.97652167" lon="-1.747276667"><ele>185.000000</ele><time>2010-06-30T10:58:08Z</time></trkpt>
	<trkpt lat="51.97648" lon="-1.747266667"><ele>184.000000</ele><time>2010-06-30T10:58:13Z</time></trkpt>
	<trkpt lat="51.97644167" lon="-1.747251667"><ele>184.000000</ele><time>2010-06-30T10:58:18Z</time></trkpt>
	<trkpt lat="51.976405" lon="-1.747238333"><ele>185.000000</ele><time>2010-06-30T10:58:23Z</time></trkpt>
	<trkpt lat="51.97636833" lon="-1.747216667"><ele>186.000000</ele><time>2010-06-30T10:58:28Z</time></trkpt>
	<trkpt lat="51.97632667" lon="-1.747198333"><ele>186.000000</ele><time>2010-06-30T10:58:33Z</time></trkpt>
	<trkpt lat="51.97628333" lon="-1.747178333"><ele>186.000000</ele><time>2010-06-30T10:58:38Z</time></trkpt>
	<trkpt lat="51.97624" lon="-1.747163333"><ele>187.000000</ele><time>2010-06-30T10:58:43Z</time></trkpt>
	<trkpt lat="51.97619167" lon="-1.747148333"><ele>186.000000</ele><time>2010-06-30T10:58:48Z</time></trkpt>
	<trkpt lat="51.97614" lon="-1.74713"><ele>186.000000</ele><time>2010-06-30T10:58:53Z</time></trkpt>
	<trkpt lat="51.97608833" lon="-1.747113333"><ele>185.000000</ele><time>2010-06-30T10:58:58Z</time></trkpt>
	<trkpt lat="51.97604" lon="-1.747095"><ele>185.000000</ele><time>2010-06-30T10:59:03Z</time></trkpt>
	<trkpt lat="51.97599" lon="-1.74708"><ele>185.000000</ele><time>2010-06-30T10:59:08Z</time></trkpt>
	<trkpt lat="51.97594167" lon="-1.747063333"><ele>185.000000</ele><time>2010-06-30T10:59:13Z</time></trkpt>
	<trkpt lat="51.97589333" lon="-1.747046667"><ele>185.000000</ele><time>2010-06-30T10:59:18Z</time></trkpt>
	<trkpt lat="51.975845" lon="-1.74703"><ele>185.000000</ele><time>2010-06-30T10:59:23Z</time></trkpt>
	<trkpt lat="51.97579667" lon="-1.747016667"><ele>185.000000</ele><time>2010-06-30T10:59:28Z</time></trkpt>
	<trkpt lat="51.975745" lon="-1.746995"><ele>185.000000</ele><time>2010-06-30T10:59:33Z</time></trkpt>
	<trkpt lat="51.975695" lon="-1.746981667"><ele>185.000000</ele><time>2010-06-30T10:59:38Z</time></trkpt>
	<trkpt lat="51.975645" lon="-1.746961667"><ele>185.000000</ele><time>2010-06-30T10:59:43Z</time></trkpt>
	<trkpt lat="51.97559667" lon="-1.746945"><ele>184.000000</ele><time>2010-06-30T10:59:48Z</time></trkpt>
	<trkpt lat="51.97554667" lon="-1.746928333"><ele>184.000000</ele><time>2010-06-30T10:59:53Z</time></trkpt>
	<trkpt lat="51.97549833" lon="-1.746906667"><ele>184.000000</ele><time>2010-06-30T10:59:58Z</time></trkpt>
	<trkpt lat="51.97544833" lon="-1.746891667"><ele>185.000000</ele><time>2010-06-30T11:00:03Z</time></trkpt>
	<trkpt lat="51.9754" lon="-1.746873333"><ele>185.000000</ele><time>2010-06-30T11:00:08Z</time></trkpt>
	<trkpt lat="51.97536" lon="-1.746853333"><ele>186.000000</ele><time>2010-06-30T11:00:13Z</time></trkpt>
	<trkpt lat="51.97531833" lon="-1.746836667"><ele>186.000000</ele><time>2010-06-30T11:00:18Z</time></trkpt>
	<trkpt lat="51.97527667" lon="-1.746816667"><ele>187.000000</ele><time>2010-06-30T11:00:23Z</time></trkpt>
	<trkpt lat="51.97523333" lon="-1.746805"><ele>187.000000</ele><time>2010-06-30T11:00:28Z</time></trkpt>
	<trkpt lat="51.97519" lon="-1.746781667"><ele>188.000000</ele><time>2010-06-30T11:00:33Z</time></trkpt>
	<trkpt lat="51.97515" lon="-1.746761667"><ele>189.000000</ele><time>2010-06-30T11:00:38Z</time></trkpt>
	<trkpt lat="51.9751" lon="-1.746743333"><ele>189.000000</ele><time>2010-06-30T11:00:43Z</time></trkpt>
	<trkpt lat="51.97506167" lon="-1.746725"><ele>190.000000</ele><time>2010-06-30T11:00:48Z</time></trkpt>
	<trkpt lat="51.97502" lon="-1.746713333"><ele>190.000000</ele><time>2010-06-30T11:00:53Z</time></trkpt>
	<trkpt lat="51.97497167" lon="-1.746698333"><ele>190.000000</ele><time>2010-06-30T11:00:58Z</time></trkpt>
	<trkpt lat="51.97492333" lon="-1.746693333"><ele>191.000000</ele><time>2010-06-30T11:01:03Z</time></trkpt>
	<trkpt lat="51.97490167" lon="-1.746693333"><ele>193.000000</ele><time>2010-06-30T11:01:08Z</time></trkpt>
	<trkpt lat="51.97484333" lon="-1.746703333"><ele>190.000000</ele><time>2010-06-30T11:01:13Z</time></trkpt>
	<trkpt lat="51.97482167" lon="-1.746718333"><ele>191.000000</ele><time>2010-06-30T11:01:18Z</time></trkpt>
	<trkpt lat="51.97481" lon="-1.746701667"><ele>195.000000</ele><time>2010-06-30T11:01:23Z</time></trkpt>
	<trkpt lat="51.97478333" lon="-1.746671667"><ele>196.000000</ele><time>2010-06-30T11:01:28Z</time></trkpt>
	<trkpt lat="51.974745" lon="-1.746623333"><ele>193.000000</ele><time>2010-06-30T11:01:33Z</time></trkpt>
	<trkpt lat="51.97471" lon="-1.746613333"><ele>192.000000</ele><time>2010-06-30T11:01:38Z</time></trkpt>
	<trkpt lat="51.97468" lon="-1.746595"><ele>191.000000</ele><time>2010-06-30T11:01:43Z</time></trkpt>
	<trkpt lat="51.974635" lon="-1.746591667"><ele>189.000000</ele><time>2010-06-30T11:01:48Z</time></trkpt>
	<trkpt lat="51.974605" lon="-1.746588333"><ele>188.000000</ele><time>2010-06-30T11:01:53Z</time></trkpt>
	<trkpt lat="51.97459" lon="-1.746588333"><ele>188.000000</ele><time>2010-06-30T11:01:58Z</time></trkpt>
	<trkpt lat="51.97458" lon="-1.746593333"><ele>188.000000</ele><time>2010-06-30T11:02:03Z</time></trkpt>
	<trkpt lat="51.97457833" lon="-1.74658"><ele>188.000000</ele><time>2010-06-30T11:02:08Z</time></trkpt>
	<trkpt lat="51.974555" lon="-1.746546667"><ele>188.000000</ele><time>2010-06-30T11:02:13Z</time></trkpt>
	<trkpt lat="51.97452833" lon="-1.746518333"><ele>187.000000</ele><time>2010-06-30T11:02:18Z</time></trkpt>
	<trkpt lat="51.97449167" lon="-1.746481667"><ele>187.000000</ele><time>2010-06-30T11:02:23Z</time></trkpt>
	<trkpt lat="51.97445167" lon="-1.746441667"><ele>188.000000</ele><time>2010-06-30T11:02:28Z</time></trkpt>
	<trkpt lat="51.974405" lon="-1.746408333"><ele>187.000000</ele><time>2010-06-30T11:02:33Z</time></trkpt>
	<trkpt lat="51.97436" lon="-1.746373333"><ele>187.000000</ele><time>2010-06-30T11:02:38Z</time></trkpt>
	<trkpt lat="51.97431" lon="-1.746336667"><ele>186.000000</ele><time>2010-06-30T11:02:43Z</time></trkpt>
	<trkpt lat="51.974265" lon="-1.7463"><ele>186.000000</ele><time>2010-06-30T11:02:48Z</time></trkpt>
	<trkpt lat="51.97422167" lon="-1.746263333"><ele>186.000000</ele><time>2010-06-30T11:02:53Z</time></trkpt>
	<trkpt lat="51.974175" lon="-1.746225"><ele>186.000000</ele><time>2010-06-30T11:02:58Z</time></trkpt>
	<trkpt lat="51.974125" lon="-1.746188333"><ele>186.000000</ele><time>2010-06-30T11:03:03Z</time></trkpt>
	<trkpt lat="51.97407833" lon="-1.746145"><ele>186.000000</ele><time>2010-06-30T11:03:08Z</time></trkpt>
	<trkpt lat="51.97403667" lon="-1.746108333"><ele>186.000000</ele><time>2010-06-30T11:03:13Z</time></trkpt>
	<trkpt lat="51.97398833" lon="-1.746076667"><ele>186.000000</ele><time>2010-06-30T11:03:18Z</time></trkpt>
	<trkpt lat="51.97394667" lon="-1.746038333"><ele>186.000000</ele><time>2010-06-30T11:03:23Z</time></trkpt>
	<trkpt lat="51.973875" lon="-1.746018333"><ele>183.000000</ele><time>2010-06-30T11:03:28Z</time></trkpt>
	<trkpt lat="51.97383333" lon="-1.745996667"><ele>183.000000</ele><time>2010-06-30T11:03:33Z</time></trkpt>
	<trkpt lat="51.97379333" lon="-1.745973333"><ele>183.000000</ele><time>2010-06-30T11:03:38Z</time></trkpt>
	<trkpt lat="51.97374333" lon="-1.745953333"><ele>181.000000</ele><time>2010-06-30T11:03:43Z</time></trkpt>
	<trkpt lat="51.97368667" lon="-1.745923333"><ele>179.000000</ele><time>2010-06-30T11:03:48Z</time></trkpt>
	<trkpt lat="51.97363833" lon="-1.745915"><ele>180.000000</ele><time>2010-06-30T11:03:53Z</time></trkpt>
	<trkpt lat="51.97360833" lon="-1.745896667"><ele>183.000000</ele><time>2010-06-30T11:03:58Z</time></trkpt>
	<trkpt lat="51.97357" lon="-1.745903333"><ele>185.000000</ele><time>2010-06-30T11:04:03Z</time></trkpt>
	<trkpt lat="51.97350667" lon="-1.745905"><ele>184.000000</ele><time>2010-06-30T11:04:08Z</time></trkpt>
	<trkpt lat="51.97346667" lon="-1.7459"><ele>184.000000</ele><time>2010-06-30T11:04:13Z</time></trkpt>
	<trkpt lat="51.97344333" lon="-1.74592"><ele>185.000000</ele><time>2010-06-30T11:04:18Z</time></trkpt>
	<trkpt lat="51.97341833" lon="-1.745948333"><ele>186.000000</ele><time>2010-06-30T11:04:23Z</time></trkpt>
	<trkpt lat="51.97343667" lon="-1.745965"><ele>195.000000</ele><time>2010-06-30T11:04:28Z</time></trkpt>
	<trkpt lat="51.97342" lon="-1.74596"><ele>198.000000</ele><time>2010-06-30T11:04:33Z</time></trkpt>
	<trkpt lat="51.97339" lon="-1.745933333"><ele>199.000000</ele><time>2010-06-30T11:04:38Z</time></trkpt>
	<trkpt lat="51.97334667" lon="-1.745918333"><ele>198.000000</ele><time>2010-06-30T11:04:43Z</time></trkpt>
	<trkpt lat="51.97332" lon="-1.745896667"><ele>194.000000</ele><time>2010-06-30T11:04:48Z</time></trkpt>
	<trkpt lat="51.97330833" lon="-1.745865"><ele>195.000000</ele><time>2010-06-30T11:04:53Z</time></trkpt>
	<trkpt lat="51.97329667" lon="-1.745865"><ele>197.000000</ele><time>2010-06-30T11:04:58Z</time></trkpt>
	<trkpt lat="51.97328667" lon="-1.745866667"><ele>199.000000</ele><time>2010-06-30T11:05:03Z</time></trkpt>
	<trkpt lat="51.973235" lon="-1.745836667"><ele>200.000000</ele><time>2010-06-30T11:05:08Z</time></trkpt>
	<trkpt lat="51.973175" lon="-1.745775"><ele>193.000000</ele><time>2010-06-30T11:05:13Z</time></trkpt>
	<trkpt lat="51.97310333" lon="-1.745743333"><ele>188.000000</ele><time>2010-06-30T11:05:18Z</time></trkpt>
	<trkpt lat="51.97302167" lon="-1.74576"><ele>180.000000</ele><time>2010-06-30T11:05:23Z</time></trkpt>
	<trkpt lat="51.97297167" lon="-1.745783333"><ele>178.000000</ele><time>2010-06-30T11:05:28Z</time></trkpt>
	<trkpt lat="51.972935" lon="-1.745806667"><ele>177.000000</ele><time>2010-06-30T11:05:33Z</time></trkpt>
	<trkpt lat="51.97288833" lon="-1.745791667"><ele>177.000000</ele><time>2010-06-30T11:05:38Z</time></trkpt>
	<trkpt lat="51.97283667" lon="-1.745768333"><ele>179.000000</ele><time>2010-06-30T11:05:43Z</time></trkpt>
	<trkpt lat="51.97278833" lon="-1.745746667"><ele>180.000000</ele><time>2010-06-30T11:05:48Z</time></trkpt>
	<trkpt lat="51.97274167" lon="-1.745718333"><ele>183.000000</ele><time>2010-06-30T11:05:53Z</time></trkpt>
	<trkpt lat="51.97268167" lon="-1.745695"><ele>184.000000</ele><time>2010-06-30T11:05:58Z</time></trkpt>
	<trkpt lat="51.97263667" lon="-1.745671667"><ele>186.000000</ele><time>2010-06-30T11:06:03Z</time></trkpt>
	<trkpt lat="51.97259167" lon="-1.745653333"><ele>187.000000</ele><time>2010-06-30T11:06:08Z</time></trkpt>
	<trkpt lat="51.97253333" lon="-1.74564"><ele>187.000000</ele><time>2010-06-30T11:06:13Z</time></trkpt>
	<trkpt lat="51.97247" lon="-1.745618333"><ele>186.000000</ele><time>2010-06-30T11:06:18Z</time></trkpt>
	<trkpt lat="51.97241667" lon="-1.745595"><ele>186.000000</ele><time>2010-06-30T11:06:23Z</time></trkpt>
	<trkpt lat="51.972375" lon="-1.745566667"><ele>187.000000</ele><time>2010-06-30T11:06:28Z</time></trkpt>
	<trkpt lat="51.97233167" lon="-1.745538333"><ele>188.000000</ele><time>2010-06-30T11:06:33Z</time></trkpt>
	<trkpt lat="51.97229" lon="-1.74551"><ele>188.000000</ele><time>2010-06-30T11:06:38Z</time></trkpt>
	<trkpt lat="51.972245" lon="-1.74549"><ele>188.000000</ele><time>2010-06-30T11:06:43Z</time></trkpt>
	<trkpt lat="51.97219333" lon="-1.74546"><ele>188.000000</ele><time>2010-06-30T11:06:48Z</time></trkpt>
	<trkpt lat="51.97215167" lon="-1.745425"><ele>188.000000</ele><time>2010-06-30T11:06:53Z</time></trkpt>
	<trkpt lat="51.97210667" lon="-1.745383333"><ele>188.000000</ele><time>2010-06-30T11:06:58Z</time></trkpt>
	<trkpt lat="51.97206" lon="-1.745351667"><ele>187.000000</ele><time>2010-06-30T11:07:03Z</time></trkpt>
	<trkpt lat="51.97201667" lon="-1.745318333"><ele>187.000000</ele><time>2010-06-30T11:07:08Z</time></trkpt>
	<trkpt lat="51.97196833" lon="-1.745283333"><ele>187.000000</ele><time>2010-06-30T11:07:13Z</time></trkpt>
	<trkpt lat="51.971915" lon="-1.745255"><ele>187.000000</ele><time>2010-06-30T11:07:18Z</time></trkpt>
	<trkpt lat="51.97186833" lon="-1.745226667"><ele>187.000000</ele><time>2010-06-30T11:07:23Z</time></trkpt>
	<trkpt lat="51.971825" lon="-1.745188333"><ele>187.000000</ele><time>2010-06-30T11:07:28Z</time></trkpt>
	<trkpt lat="51.97178333" lon="-1.745155"><ele>187.000000</ele><time>2010-06-30T11:07:33Z</time></trkpt>
	<trkpt lat="51.971735" lon="-1.745128333"><ele>187.000000</ele><time>2010-06-30T11:07:38Z</time></trkpt>
	<trkpt lat="51.971695" lon="-1.745093333"><ele>188.000000</ele><time>2010-06-30T11:07:43Z</time></trkpt>
	<trkpt lat="51.97165167" lon="-1.74506"><ele>188.000000</ele><time>2010-06-30T11:07:48Z</time></trkpt>
	<trkpt lat="51.97160333" lon="-1.745026667"><ele>188.000000</ele><time>2010-06-30T11:07:53Z</time></trkpt>
	<trkpt lat="51.971555" lon="-1.744998333"><ele>188.000000</ele><time>2010-06-30T11:07:58Z</time></trkpt>
	<trkpt lat="51.97151" lon="-1.744971667"><ele>188.000000</ele><time>2010-06-30T11:08:03Z</time></trkpt>
	<trkpt lat="51.971465" lon="-1.744938333"><ele>188.000000</ele><time>2010-06-30T11:08:08Z</time></trkpt>
	<trkpt lat="51.97141667" lon="-1.744905"><ele>188.000000</ele><time>2010-06-30T11:08:13Z</time></trkpt>
	<trkpt lat="51.97136667" lon="-1.744858333"><ele>188.000000</ele><time>2010-06-30T11:08:18Z</time></trkpt>
	<trkpt lat="51.97131833" lon="-1.744815"><ele>188.000000</ele><time>2010-06-30T11:08:23Z</time></trkpt>
	<trkpt lat="51.97127" lon="-1.74478"><ele>187.000000</ele><time>2010-06-30T11:08:28Z</time></trkpt>
	<trkpt lat="51.97122" lon="-1.744751667"><ele>187.000000</ele><time>2010-06-30T11:08:33Z</time></trkpt>
	<trkpt lat="51.971175" lon="-1.744721667"><ele>187.000000</ele><time>2010-06-30T11:08:38Z</time></trkpt>
	<trkpt lat="51.971125" lon="-1.744683333"><ele>187.000000</ele><time>2010-06-30T11:08:43Z</time></trkpt>
	<trkpt lat="51.97108333" lon="-1.744655"><ele>187.000000</ele><time>2010-06-30T11:08:48Z</time></trkpt>
	<trkpt lat="51.97103833" lon="-1.744625"><ele>187.000000</ele><time>2010-06-30T11:08:53Z</time></trkpt>
	<trkpt lat="51.97099333" lon="-1.744593333"><ele>187.000000</ele><time>2010-06-30T11:08:58Z</time></trkpt>
	<trkpt lat="51.970955" lon="-1.744551667"><ele>188.000000</ele><time>2010-06-30T11:09:03Z</time></trkpt>
	<trkpt lat="51.97091333" lon="-1.744515"><ele>189.000000</ele><time>2010-06-30T11:09:08Z</time></trkpt>
	<trkpt lat="51.97087" lon="-1.744478333"><ele>189.000000</ele><time>2010-06-30T11:09:13Z</time></trkpt>
	<trkpt lat="51.970825" lon="-1.744445"><ele>189.000000</ele><time>2010-06-30T11:09:18Z</time></trkpt>
	<trkpt lat="51.97077833" lon="-1.744411667"><ele>189.000000</ele><time>2010-06-30T11:09:23Z</time></trkpt>
	<trkpt lat="51.97073333" lon="-1.744378333"><ele>189.000000</ele><time>2010-06-30T11:09:28Z</time></trkpt>
	<trkpt lat="51.970685" lon="-1.744348333"><ele>189.000000</ele><time>2010-06-30T11:09:33Z</time></trkpt>
	<trkpt lat="51.97063333" lon="-1.744316667"><ele>189.000000</ele><time>2010-06-30T11:09:38Z</time></trkpt>
	<trkpt lat="51.970585" lon="-1.744286667"><ele>188.000000</ele><time>2010-06-30T11:09:43Z</time></trkpt>
	<trkpt lat="51.97053667" lon="-1.744261667"><ele>188.000000</ele><time>2010-06-30T11:09:48Z</time></trkpt>
	<trkpt lat="51.97048833" lon="-1.744233333"><ele>188.000000</ele><time>2010-06-30T11:09:53Z</time></trkpt>
	<trkpt lat="51.97043833" lon="-1.744198333"><ele>188.000000</ele><time>2010-06-30T11:09:58Z</time></trkpt>
	<trkpt lat="51.97039333" lon="-1.74417"><ele>187.000000</ele><time>2010-06-30T11:10:03Z</time></trkpt>
	<trkpt lat="51.970345" lon="-1.744141667"><ele>187.000000</ele><time>2010-06-30T11:10:08Z</time></trkpt>
	<trkpt lat="51.97029167" lon="-1.744113333"><ele>187.000000</ele><time>2010-06-30T11:10:13Z</time></trkpt>
	<trkpt lat="51.97024167" lon="-1.744085"><ele>186.000000</ele><time>2010-06-30T11:10:18Z</time></trkpt>
	<trkpt lat="51.97018833" lon="-1.744058333"><ele>186.000000</ele><time>2010-06-30T11:10:23Z</time></trkpt>
	<trkpt lat="51.97013833" lon="-1.74403"><ele>185.000000</ele><time>2010-06-30T11:10:28Z</time></trkpt>
	<trkpt lat="51.970085" lon="-1.743998333"><ele>184.000000</ele><time>2010-06-30T11:10:33Z</time></trkpt>
	<trkpt lat="51.97003333" lon="-1.743961667"><ele>183.000000</ele><time>2010-06-30T11:10:38Z</time></trkpt>
	<trkpt lat="51.96998167" lon="-1.743935"><ele>182.000000</ele><time>2010-06-30T11:10:43Z</time></trkpt>
	<trkpt lat="51.969935" lon="-1.743903333"><ele>181.000000</ele><time>2010-06-30T11:10:48Z</time></trkpt>
	<trkpt lat="51.96989" lon="-1.74387"><ele>181.000000</ele><time>2010-06-30T11:10:53Z</time></trkpt>
	<trkpt lat="51.96984333" lon="-1.743835"><ele>180.000000</ele><time>2010-06-30T11:10:58Z</time></trkpt>
	<trkpt lat="51.96979667" lon="-1.743796667"><ele>179.000000</ele><time>2010-06-30T11:11:03Z</time></trkpt>
	<trkpt lat="51.96975" lon="-1.743756667"><ele>179.000000</ele><time>2010-06-30T11:11:08Z</time></trkpt>
	<trkpt lat="51.969705" lon="-1.743718333"><ele>179.000000</ele><time>2010-06-30T11:11:13Z</time></trkpt>
	<trkpt lat="51.96966167" lon="-1.743673333"><ele>179.000000</ele><time>2010-06-30T11:11:18Z</time></trkpt>
	<trkpt lat="51.96962" lon="-1.743631667"><ele>179.000000</ele><time>2010-06-30T11:11:23Z</time></trkpt>
	<trkpt lat="51.96957667" lon="-1.74359"><ele>179.000000</ele><time>2010-06-30T11:11:28Z</time></trkpt>
	<trkpt lat="51.96953833" lon="-1.743546667"><ele>179.000000</ele><time>2010-06-30T11:11:33Z</time></trkpt>
	<trkpt lat="51.96949833" lon="-1.743506667"><ele>179.000000</ele><time>2010-06-30T11:11:38Z</time></trkpt>
	<trkpt lat="51.96945667" lon="-1.743471667"><ele>179.000000</ele><time>2010-06-30T11:11:43Z</time></trkpt>
	<trkpt lat="51.96941667" lon="-1.743433333"><ele>180.000000</ele><time>2010-06-30T11:11:48Z</time></trkpt>
	<trkpt lat="51.96938" lon="-1.743383333"><ele>179.000000</ele><time>2010-06-30T11:11:53Z</time></trkpt>
	<trkpt lat="51.96934833" lon="-1.743331667"><ele>180.000000</ele><time>2010-06-30T11:11:58Z</time></trkpt>
	<trkpt lat="51.96931333" lon="-1.74329"><ele>180.000000</ele><time>2010-06-30T11:12:03Z</time></trkpt>
	<trkpt lat="51.96927667" lon="-1.743255"><ele>179.000000</ele><time>2010-06-30T11:12:08Z</time></trkpt>
	<trkpt lat="51.96926333" lon="-1.74325"><ele>178.000000</ele><time>2010-06-30T11:12:13Z</time></trkpt>
	<trkpt lat="51.96925333" lon="-1.743208333"><ele>178.000000</ele><time>2010-06-30T11:12:18Z</time></trkpt>
	<trkpt lat="51.96922833" lon="-1.743153333"><ele>178.000000</ele><time>2010-06-30T11:12:23Z</time></trkpt>
	<trkpt lat="51.96919833" lon="-1.743113333"><ele>179.000000</ele><time>2010-06-30T11:12:28Z</time></trkpt>
	<trkpt lat="51.96916167" lon="-1.743085"><ele>179.000000</ele><time>2010-06-30T11:12:33Z</time></trkpt>
	<trkpt lat="51.96912333" lon="-1.743055"><ele>179.000000</ele><time>2010-06-30T11:12:38Z</time></trkpt>
	<trkpt lat="51.96908833" lon="-1.743031667"><ele>179.000000</ele><time>2010-06-30T11:12:43Z</time></trkpt>
	<trkpt lat="51.96905333" lon="-1.743006667"><ele>180.000000</ele><time>2010-06-30T11:12:48Z</time></trkpt>
	<trkpt lat="51.96901333" lon="-1.742981667"><ele>180.000000</ele><time>2010-06-30T11:12:53Z</time></trkpt>
	<trkpt lat="51.96897833" lon="-1.742961667"><ele>180.000000</ele><time>2010-06-30T11:12:58Z</time></trkpt>
	<trkpt lat="51.96894" lon="-1.74294"><ele>180.000000</ele><time>2010-06-30T11:13:03Z</time></trkpt>
	<trkpt lat="51.96890667" lon="-1.742916667"><ele>181.000000</ele><time>2010-06-30T11:13:08Z</time></trkpt>
	<trkpt lat="51.96887" lon="-1.742886667"><ele>181.000000</ele><time>2010-06-30T11:13:13Z</time></trkpt>
	<trkpt lat="51.96883167" lon="-1.742866667"><ele>182.000000</ele><time>2010-06-30T11:13:18Z</time></trkpt>
	<trkpt lat="51.96879333" lon="-1.742841667"><ele>182.000000</ele><time>2010-06-30T11:13:23Z</time></trkpt>
	<trkpt lat="51.96875" lon="-1.742826667"><ele>182.000000</ele><time>2010-06-30T11:13:28Z</time></trkpt>
	<trkpt lat="51.9687" lon="-1.742811667"><ele>182.000000</ele><time>2010-06-30T11:13:33Z</time></trkpt>
	<trkpt lat="51.968655" lon="-1.742795"><ele>182.000000</ele><time>2010-06-30T11:13:38Z</time></trkpt>
	<trkpt lat="51.96861" lon="-1.742766667"><ele>182.000000</ele><time>2010-06-30T11:13:43Z</time></trkpt>
	<trkpt lat="51.968575" lon="-1.742746667"><ele>183.000000</ele><time>2010-06-30T11:13:48Z</time></trkpt>
	<trkpt lat="51.96853167" lon="-1.742731667"><ele>183.000000</ele><time>2010-06-30T11:13:53Z</time></trkpt>
	<trkpt lat="51.96849" lon="-1.742713333"><ele>183.000000</ele><time>2010-06-30T11:13:58Z</time></trkpt>
	<trkpt lat="51.96845167" lon="-1.742696667"><ele>184.000000</ele><time>2010-06-30T11:14:03Z</time></trkpt>
	<trkpt lat="51.96840833" lon="-1.742681667"><ele>184.000000</ele><time>2010-06-30T11:14:08Z</time></trkpt>
	<trkpt lat="51.968365" lon="-1.742663333"><ele>184.000000</ele><time>2010-06-30T11:14:13Z</time></trkpt>
	<trkpt lat="51.96832167" lon="-1.742648333"><ele>184.000000</ele><time>2010-06-30T11:14:18Z</time></trkpt>
	<trkpt lat="51.96827833" lon="-1.742633333"><ele>185.000000</ele><time>2010-06-30T11:14:23Z</time></trkpt>
	<trkpt lat="51.96823167" lon="-1.742628333"><ele>185.000000</ele><time>2010-06-30T11:14:28Z</time></trkpt>
	<trkpt lat="51.96817833" lon="-1.742623333"><ele>185.000000</ele><time>2010-06-30T11:14:33Z</time></trkpt>
	<trkpt lat="51.96812833" lon="-1.742615"><ele>184.000000</ele><time>2010-06-30T11:14:38Z</time></trkpt>
	<trkpt lat="51.96807667" lon="-1.742611667"><ele>184.000000</ele><time>2010-06-30T11:14:43Z</time></trkpt>
	<trkpt lat="51.96802833" lon="-1.7426"><ele>184.000000</ele><time>2010-06-30T11:14:48Z</time></trkpt>
	<trkpt lat="51.96798167" lon="-1.74259"><ele>184.000000</ele><time>2010-06-30T11:14:53Z</time></trkpt>
	<trkpt lat="51.96793333" lon="-1.742581667"><ele>184.000000</ele><time>2010-06-30T11:14:58Z</time></trkpt>
	<trkpt lat="51.96788667" lon="-1.74258"><ele>184.000000</ele><time>2010-06-30T11:15:03Z</time></trkpt>
	<trkpt lat="51.96783833" lon="-1.742575"><ele>184.000000</ele><time>2010-06-30T11:15:08Z</time></trkpt>
	<trkpt lat="51.9678" lon="-1.742578333"><ele>183.000000</ele><time>2010-06-30T11:15:13Z</time></trkpt>
	<trkpt lat="51.96777833" lon="-1.742596667"><ele>183.000000</ele><time>2010-06-30T11:15:18Z</time></trkpt>
	<trkpt lat="51.96777833" lon="-1.742583333"><ele>182.000000</ele><time>2010-06-30T11:15:23Z</time></trkpt>
	<trkpt lat="51.96777833" lon="-1.742583333"><ele>182.000000</ele><time>2010-06-30T11:15:28Z</time></trkpt>
	<trkpt lat="51.96777833" lon="-1.742583333"><ele>182.000000</ele><time>2010-06-30T11:15:33Z</time></trkpt>
	<trkpt lat="51.967775" lon="-1.742593333"><ele>182.000000</ele><time>2010-06-30T11:15:38Z</time></trkpt>
	<trkpt lat="51.96777667" lon="-1.742593333"><ele>182.000000</ele><time>2010-06-30T11:15:43Z</time></trkpt>
	<trkpt lat="51.96775667" lon="-1.742583333"><ele>183.000000</ele><time>2010-06-30T11:15:48Z</time></trkpt>
	<trkpt lat="51.967715" lon="-1.742606667"><ele>183.000000</ele><time>2010-06-30T11:15:53Z</time></trkpt>
	<trkpt lat="51.96767333" lon="-1.742641667"><ele>184.000000</ele><time>2010-06-30T11:15:58Z</time></trkpt>
	<trkpt lat="51.96763333" lon="-1.742666667"><ele>184.000000</ele><time>2010-06-30T11:16:03Z</time></trkpt>
	<trkpt lat="51.96758333" lon="-1.742671667"><ele>184.000000</ele><time>2010-06-30T11:16:08Z</time></trkpt>
	<trkpt lat="51.96753333" lon="-1.742671667"><ele>184.000000</ele><time>2010-06-30T11:16:13Z</time></trkpt>
	<trkpt lat="51.96748167" lon="-1.742681667"><ele>183.000000</ele><time>2010-06-30T11:16:18Z</time></trkpt>
	<trkpt lat="51.96742833" lon="-1.742681667"><ele>183.000000</ele><time>2010-06-30T11:16:23Z</time></trkpt>
	<trkpt lat="51.96737333" lon="-1.742688333"><ele>183.000000</ele><time>2010-06-30T11:16:28Z</time></trkpt>
	<trkpt lat="51.96732" lon="-1.742691667"><ele>183.000000</ele><time>2010-06-30T11:16:33Z</time></trkpt>
	<trkpt lat="51.96726667" lon="-1.742693333"><ele>183.000000</ele><time>2010-06-30T11:16:38Z</time></trkpt>
	<trkpt lat="51.96721333" lon="-1.742691667"><ele>183.000000</ele><time>2010-06-30T11:16:43Z</time></trkpt>
	<trkpt lat="51.96716167" lon="-1.742686667"><ele>183.000000</ele><time>2010-06-30T11:16:48Z</time></trkpt>
	<trkpt lat="51.96710667" lon="-1.742675"><ele>183.000000</ele><time>2010-06-30T11:16:53Z</time></trkpt>
	<trkpt lat="51.967055" lon="-1.742665"><ele>183.000000</ele><time>2010-06-30T11:16:58Z</time></trkpt>
	<trkpt lat="51.96700333" lon="-1.74265"><ele>183.000000</ele><time>2010-06-30T11:17:03Z</time></trkpt>
	<trkpt lat="51.96695167" lon="-1.742635"><ele>184.000000</ele><time>2010-06-30T11:17:08Z</time></trkpt>
	<trkpt lat="51.9669" lon="-1.742618333"><ele>184.000000</ele><time>2010-06-30T11:17:13Z</time></trkpt>
	<trkpt lat="51.96685167" lon="-1.742598333"><ele>184.000000</ele><time>2010-06-30T11:17:18Z</time></trkpt>
	<trkpt lat="51.9668" lon="-1.742581667"><ele>184.000000</ele><time>2010-06-30T11:17:23Z</time></trkpt>
	<trkpt lat="51.96674833" lon="-1.742558333"><ele>185.000000</ele><time>2010-06-30T11:17:28Z</time></trkpt>
	<trkpt lat="51.96669167" lon="-1.74254"><ele>184.000000</ele><time>2010-06-30T11:17:33Z</time></trkpt>
	<trkpt lat="51.96664" lon="-1.742515"><ele>184.000000</ele><time>2010-06-30T11:17:38Z</time></trkpt>
	<trkpt lat="51.96659" lon="-1.74249"><ele>184.000000</ele><time>2010-06-30T11:17:43Z</time></trkpt>
	<trkpt lat="51.96653833" lon="-1.742468333"><ele>185.000000</ele><time>2010-06-30T11:17:48Z</time></trkpt>
	<trkpt lat="51.96648833" lon="-1.742448333"><ele>185.000000</ele><time>2010-06-30T11:17:53Z</time></trkpt>
	<trkpt lat="51.96643667" lon="-1.74243"><ele>185.000000</ele><time>2010-06-30T11:17:58Z</time></trkpt>
	<trkpt lat="51.96638833" lon="-1.742411667"><ele>185.000000</ele><time>2010-06-30T11:18:03Z</time></trkpt>
	<trkpt lat="51.96633167" lon="-1.742395"><ele>185.000000</ele><time>2010-06-30T11:18:08Z</time></trkpt>
	<trkpt lat="51.96628167" lon="-1.742376667"><ele>185.000000</ele><time>2010-06-30T11:18:13Z</time></trkpt>
	<trkpt lat="51.96622667" lon="-1.742361667"><ele>185.000000</ele><time>2010-06-30T11:18:18Z</time></trkpt>
	<trkpt lat="51.96618" lon="-1.74233"><ele>185.000000</ele><time>2010-06-30T11:18:23Z</time></trkpt>
	<trkpt lat="51.96613667" lon="-1.74229"><ele>185.000000</ele><time>2010-06-30T11:18:28Z</time></trkpt>
	<trkpt lat="51.9661" lon="-1.742238333"><ele>185.000000</ele><time>2010-06-30T11:18:33Z</time></trkpt>
	<trkpt lat="51.96607167" lon="-1.74221"><ele>184.000000</ele><time>2010-06-30T11:18:38Z</time></trkpt>
	<trkpt lat="51.96606667" lon="-1.742208333"><ele>183.000000</ele><time>2010-06-30T11:18:43Z</time></trkpt>
	<trkpt lat="51.96604833" lon="-1.74219"><ele>183.000000</ele><time>2010-06-30T11:18:48Z</time></trkpt>
	<trkpt lat="51.966045" lon="-1.742171667"><ele>183.000000</ele><time>2010-06-30T11:18:53Z</time></trkpt>
	<trkpt lat="51.966025" lon="-1.742153333"><ele>187.000000</ele><time>2010-06-30T11:18:58Z</time></trkpt>
	<trkpt lat="51.96599667" lon="-1.742158333"><ele>185.000000</ele><time>2010-06-30T11:19:03Z</time></trkpt>
	<trkpt lat="51.96597833" lon="-1.742178333"><ele>183.000000</ele><time>2010-06-30T11:19:08Z</time></trkpt>
	<trkpt lat="51.965955" lon="-1.742178333"><ele>181.000000</ele><time>2010-06-30T11:19:13Z</time></trkpt>
	<trkpt lat="51.96595333" lon="-1.742151667"><ele>184.000000</ele><time>2010-06-30T11:19:18Z</time></trkpt>
	<trkpt lat="51.96592667" lon="-1.74211"><ele>186.000000</ele><time>2010-06-30T11:19:23Z</time></trkpt>
	<trkpt lat="51.96587167" lon="-1.742076667"><ele>186.000000</ele><time>2010-06-30T11:19:28Z</time></trkpt>
	<trkpt lat="51.96581333" lon="-1.74204"><ele>186.000000</ele><time>2010-06-30T11:19:33Z</time></trkpt>
	<trkpt lat="51.96576333" lon="-1.742008333"><ele>187.000000</ele><time>2010-06-30T11:19:38Z</time></trkpt>
	<trkpt lat="51.96569833" lon="-1.741991667"><ele>187.000000</ele><time>2010-06-30T11:19:43Z</time></trkpt>
	<trkpt lat="51.96566333" lon="-1.741961667"><ele>187.000000</ele><time>2010-06-30T11:19:48Z</time></trkpt>
	<trkpt lat="51.965655" lon="-1.741963333"><ele>187.000000</ele><time>2010-06-30T11:19:53Z</time></trkpt>
	<trkpt lat="51.965645" lon="-1.741958333"><ele>188.000000</ele><time>2010-06-30T11:19:58Z</time></trkpt>
	<trkpt lat="51.965655" lon="-1.741951667"><ele>189.000000</ele><time>2010-06-30T11:20:03Z</time></trkpt>
	<trkpt lat="51.96565" lon="-1.741946667"><ele>189.000000</ele><time>2010-06-30T11:20:08Z</time></trkpt>
	<trkpt lat="51.965635" lon="-1.741926667"><ele>189.000000</ele><time>2010-06-30T11:20:13Z</time></trkpt>
	<trkpt lat="51.965635" lon="-1.741928333"><ele>189.000000</ele><time>2010-06-30T11:20:18Z</time></trkpt>
	<trkpt lat="51.96563" lon="-1.741928333"><ele>188.000000</ele><time>2010-06-30T11:20:23Z</time></trkpt>
	<trkpt lat="51.96562667" lon="-1.741928333"><ele>188.000000</ele><time>2010-06-30T11:20:28Z</time></trkpt>
	<trkpt lat="51.96562" lon="-1.741928333"><ele>187.000000</ele><time>2010-06-30T11:20:33Z</time></trkpt>
	<trkpt lat="51.96561833" lon="-1.741926667"><ele>186.000000</ele><time>2010-06-30T11:20:38Z</time></trkpt>
	<trkpt lat="51.96564833" lon="-1.741921667"><ele>190.000000</ele><time>2010-06-30T11:20:43Z</time></trkpt>
	<trkpt lat="51.96564167" lon="-1.741923333"><ele>189.000000</ele><time>2010-06-30T11:20:48Z</time></trkpt>
	<trkpt lat="51.965635" lon="-1.741926667"><ele>189.000000</ele><time>2010-06-30T11:20:53Z</time></trkpt>
	<trkpt lat="51.96563167" lon="-1.741925"><ele>189.000000</ele><time>2010-06-30T11:20:58Z</time></trkpt>
	<trkpt lat="51.965625" lon="-1.741925"><ele>188.000000</ele><time>2010-06-30T11:21:03Z</time></trkpt>
	<trkpt lat="51.965625" lon="-1.741923333"><ele>188.000000</ele><time>2010-06-30T11:21:08Z</time></trkpt>
	<trkpt lat="51.965625" lon="-1.741921667"><ele>188.000000</ele><time>2010-06-30T11:21:13Z</time></trkpt>
	<trkpt lat="51.96562333" lon="-1.74192"><ele>187.000000</ele><time>2010-06-30T11:21:18Z</time></trkpt>
	<trkpt lat="51.96562" lon="-1.74192"><ele>187.000000</ele><time>2010-06-30T11:21:23Z</time></trkpt>
	<trkpt lat="51.96561667" lon="-1.741918333"><ele>187.000000</ele><time>2010-06-30T11:21:28Z</time></trkpt>
	<trkpt lat="51.9656" lon="-1.741915"><ele>185.000000</ele><time>2010-06-30T11:21:33Z</time></trkpt>
	<trkpt lat="51.96559833" lon="-1.741915"><ele>185.000000</ele><time>2010-06-30T11:21:38Z</time></trkpt>
	<trkpt lat="51.96559667" lon="-1.741915"><ele>185.000000</ele><time>2010-06-30T11:21:43Z</time></trkpt>
	<trkpt lat="51.96563167" lon="-1.7419"><ele>189.000000</ele><time>2010-06-30T11:21:48Z</time></trkpt>
	<trkpt lat="51.96563333" lon="-1.7419"><ele>189.000000</ele><time>2010-06-30T11:21:53Z</time></trkpt>
	<trkpt lat="51.96562667" lon="-1.741905"><ele>189.000000</ele><time>2010-06-30T11:21:58Z</time></trkpt>
	<trkpt lat="51.96562" lon="-1.741906667"><ele>189.000000</ele><time>2010-06-30T11:22:03Z</time></trkpt>
	<trkpt lat="51.96561667" lon="-1.741908333"><ele>188.000000</ele><time>2010-06-30T11:22:08Z</time></trkpt>
	<trkpt lat="51.96561333" lon="-1.74191"><ele>188.000000</ele><time>2010-06-30T11:22:13Z</time></trkpt>
	<trkpt lat="51.96563167" lon="-1.741906667"><ele>191.000000</ele><time>2010-06-30T11:22:18Z</time></trkpt>
	<trkpt lat="51.96564167" lon="-1.741906667"><ele>192.000000</ele><time>2010-06-30T11:22:23Z</time></trkpt>
	<trkpt lat="51.96563167" lon="-1.741905"><ele>192.000000</ele><time>2010-06-30T11:22:28Z</time></trkpt>
	<trkpt lat="51.965635" lon="-1.741906667"><ele>192.000000</ele><time>2010-06-30T11:22:33Z</time></trkpt>
	<trkpt lat="51.96563333" lon="-1.741908333"><ele>191.000000</ele><time>2010-06-30T11:22:38Z</time></trkpt>
	<trkpt lat="51.965635" lon="-1.741908333"><ele>191.000000</ele><time>2010-06-30T11:22:43Z</time></trkpt>
	<trkpt lat="51.96563333" lon="-1.741913333"><ele>190.000000</ele><time>2010-06-30T11:22:48Z</time></trkpt>
	<trkpt lat="51.96562" lon="-1.741921667"><ele>188.000000</ele><time>2010-06-30T11:22:53Z</time></trkpt>
	<trkpt lat="51.96561333" lon="-1.741925"><ele>187.000000</ele><time>2010-06-30T11:22:58Z</time></trkpt>
	<trkpt lat="51.96561333" lon="-1.741926667"><ele>187.000000</ele><time>2010-06-30T11:23:03Z</time></trkpt>
	<trkpt lat="51.96560833" lon="-1.741926667"><ele>186.000000</ele><time>2010-06-30T11:23:08Z</time></trkpt>
	<trkpt lat="51.96560333" lon="-1.741925"><ele>186.000000</ele><time>2010-06-30T11:23:13Z</time></trkpt>
	<trkpt lat="51.96560167" lon="-1.741923333"><ele>185.000000</ele><time>2010-06-30T11:23:18Z</time></trkpt>
	<trkpt lat="51.96559667" lon="-1.741913333"><ele>185.000000</ele><time>2010-06-30T11:23:23Z</time></trkpt>
	<trkpt lat="51.96559333" lon="-1.74191"><ele>185.000000</ele><time>2010-06-30T11:23:28Z</time></trkpt>
	<trkpt lat="51.96557" lon="-1.741873333"><ele>186.000000</ele><time>2010-06-30T11:23:33Z</time></trkpt>
	<trkpt lat="51.96553333" lon="-1.74183"><ele>186.000000</ele><time>2010-06-30T11:23:38Z</time></trkpt>
	<trkpt lat="51.96548333" lon="-1.741805"><ele>186.000000</ele><time>2010-06-30T11:23:43Z</time></trkpt>
	<trkpt lat="51.96543667" lon="-1.741778333"><ele>186.000000</ele><time>2010-06-30T11:23:48Z</time></trkpt>
	<trkpt lat="51.965385" lon="-1.74177"><ele>185.000000</ele><time>2010-06-30T11:23:53Z</time></trkpt>
	<trkpt lat="51.965335" lon="-1.741765"><ele>185.000000</ele><time>2010-06-30T11:23:58Z</time></trkpt>
	<trkpt lat="51.96528833" lon="-1.741753333"><ele>185.000000</ele><time>2010-06-30T11:24:03Z</time></trkpt>
	<trkpt lat="51.96524833" lon="-1.741738333"><ele>185.000000</ele><time>2010-06-30T11:24:08Z</time></trkpt>
	<trkpt lat="51.96521" lon="-1.741736667"><ele>185.000000</ele><time>2010-06-30T11:24:13Z</time></trkpt>
	<trkpt lat="51.965185" lon="-1.741733333"><ele>186.000000</ele><time>2010-06-30T11:24:18Z</time></trkpt>
	<trkpt lat="51.96517833" lon="-1.741736667"><ele>186.000000</ele><time>2010-06-30T11:24:23Z</time></trkpt>
	<trkpt lat="51.96515" lon="-1.741736667"><ele>184.000000</ele><time>2010-06-30T11:24:28Z</time></trkpt>
	<trkpt lat="51.965115" lon="-1.741708333"><ele>184.000000</ele><time>2010-06-30T11:24:33Z</time></trkpt>
	<trkpt lat="51.96509667" lon="-1.741656667"><ele>185.000000</ele><time>2010-06-30T11:24:38Z</time></trkpt>
	<trkpt lat="51.965065" lon="-1.741591667"><ele>184.000000</ele><time>2010-06-30T11:24:43Z</time></trkpt>
	<trkpt lat="51.96505333" lon="-1.741515"><ele>184.000000</ele><time>2010-06-30T11:24:48Z</time></trkpt>
	<trkpt lat="51.96502" lon="-1.741466667"><ele>183.000000</ele><time>2010-06-30T11:24:53Z</time></trkpt>
	<trkpt lat="51.96502333" lon="-1.741473333"><ele>182.000000</ele><time>2010-06-30T11:24:58Z</time></trkpt>
	<trkpt lat="51.96501667" lon="-1.741458333"><ele>182.000000</ele><time>2010-06-30T11:25:03Z</time></trkpt>
	<trkpt lat="51.96502167" lon="-1.741465"><ele>182.000000</ele><time>2010-06-30T11:25:08Z</time></trkpt>
	<trkpt lat="51.965025" lon="-1.741468333"><ele>181.000000</ele><time>2010-06-30T11:25:13Z</time></trkpt>
	<trkpt lat="51.96502333" lon="-1.741466667"><ele>181.000000</ele><time>2010-06-30T11:25:18Z</time></trkpt>
	<trkpt lat="51.96502167" lon="-1.741463333"><ele>181.000000</ele><time>2010-06-30T11:25:23Z</time></trkpt>
	<trkpt lat="51.96501333" lon="-1.741455"><ele>180.000000</ele><time>2010-06-30T11:25:28Z</time></trkpt>
	<trkpt lat="51.96502" lon="-1.741463333"><ele>181.000000</ele><time>2010-06-30T11:25:33Z</time></trkpt>
</trkseg>
</trk>
</gpx>
